<?xml version="1.0" encoding="UTF-8" standalone="no" ?>
<gpx xmlns="http://www.topografix.com/GPX/1/1" xmlns:xsi="http://www.w3.org/2001/XMLSchema-instance" xsi:schemaLocation="http://www.topografix.com/GPX/1/1 http://www.topografix.com/GPX/1/1/gpx.xsd" version="1.1" creator="VisuGPX - https://www.visugpx.com">
  <metadata>
    <name>randonnée</name>
  </metadata>
  <trk>
    <name><![CDATA[Tracé actuel: 09 JUIL 2019 08:15]]></name>
    <trkseg>
      <trkpt lat="49.63485" lon="4.98108">
        <ele>177.98</ele>
        <time>2019-07-09T06:15:41Z</time>
      </trkpt>
      <trkpt lat="49.63489" lon="4.9812">
        <ele>177.5</ele>
        <time>2019-07-09T06:15:48Z</time>
      </trkpt>
      <trkpt lat="49.63493" lon="4.9814">
        <ele>197.69</ele>
        <time>2019-07-09T06:15:57Z</time>
      </trkpt>
      <trkpt lat="49.63495" lon="4.98163">
        <ele>200.57</ele>
        <time>2019-07-09T06:16:13Z</time>
      </trkpt>
      <trkpt lat="49.63493" lon="4.98165">
        <ele>200.09</ele>
        <time>2019-07-09T06:16:15Z</time>
      </trkpt>
      <trkpt lat="49.63481" lon="4.98183">
        <ele>200.09</ele>
        <time>2019-07-09T06:16:29Z</time>
      </trkpt>
      <trkpt lat="49.63474" lon="4.98203">
        <ele>202.49</ele>
        <time>2019-07-09T06:16:46Z</time>
      </trkpt>
      <trkpt lat="49.6347" lon="4.98226">
        <ele>207.3</ele>
        <time>2019-07-09T06:17:02Z</time>
      </trkpt>
      <trkpt lat="49.63462" lon="4.98239">
        <ele>204.9</ele>
        <time>2019-07-09T06:17:18Z</time>
      </trkpt>
      <trkpt lat="49.63458" lon="4.98242">
        <ele>202.01</ele>
        <time>2019-07-09T06:17:30Z</time>
      </trkpt>
      <trkpt lat="49.63449" lon="4.98261">
        <ele>202.01</ele>
        <time>2019-07-09T06:17:44Z</time>
      </trkpt>
      <trkpt lat="49.63443" lon="4.98272">
        <ele>201.05</ele>
        <time>2019-07-09T06:17:58Z</time>
      </trkpt>
      <trkpt lat="49.63442" lon="4.98272">
        <ele>201.05</ele>
        <time>2019-07-09T06:17:59Z</time>
      </trkpt>
      <trkpt lat="49.63431" lon="4.98282">
        <ele>201.05</ele>
        <time>2019-07-09T06:18:13Z</time>
      </trkpt>
      <trkpt lat="49.63423" lon="4.9829">
        <ele>202.01</ele>
        <time>2019-07-09T06:18:25Z</time>
      </trkpt>
      <trkpt lat="49.63414" lon="4.98297">
        <ele>201.53</ele>
        <time>2019-07-09T06:18:41Z</time>
      </trkpt>
      <trkpt lat="49.63404" lon="4.98306">
        <ele>201.53</ele>
        <time>2019-07-09T06:18:54Z</time>
      </trkpt>
      <trkpt lat="49.63394" lon="4.98316">
        <ele>199.61</ele>
        <time>2019-07-09T06:19:07Z</time>
      </trkpt>
      <trkpt lat="49.63383" lon="4.98318">
        <ele>199.61</ele>
        <time>2019-07-09T06:19:21Z</time>
      </trkpt>
      <trkpt lat="49.63371" lon="4.98324">
        <ele>199.61</ele>
        <time>2019-07-09T06:19:42Z</time>
      </trkpt>
      <trkpt lat="49.63361" lon="4.98325">
        <ele>198.65</ele>
        <time>2019-07-09T06:19:58Z</time>
      </trkpt>
      <trkpt lat="49.63346" lon="4.98346">
        <ele>198.65</ele>
        <time>2019-07-09T06:20:10Z</time>
      </trkpt>
      <trkpt lat="49.63333" lon="4.98355">
        <ele>195.77</ele>
        <time>2019-07-09T06:20:24Z</time>
      </trkpt>
      <trkpt lat="49.63323" lon="4.98351">
        <ele>195.77</ele>
        <time>2019-07-09T06:20:40Z</time>
      </trkpt>
      <trkpt lat="49.63312" lon="4.98352">
        <ele>195.77</ele>
        <time>2019-07-09T06:20:52Z</time>
      </trkpt>
      <trkpt lat="49.63294" lon="4.98354">
        <ele>195.28</ele>
        <time>2019-07-09T06:21:06Z</time>
      </trkpt>
      <trkpt lat="49.63281" lon="4.98355">
        <ele>197.21</ele>
        <time>2019-07-09T06:21:19Z</time>
      </trkpt>
      <trkpt lat="49.63265" lon="4.98349">
        <ele>202.01</ele>
        <time>2019-07-09T06:21:34Z</time>
      </trkpt>
      <trkpt lat="49.63251" lon="4.9835">
        <ele>200.09</ele>
        <time>2019-07-09T06:21:48Z</time>
      </trkpt>
      <trkpt lat="49.63236" lon="4.98349">
        <ele>199.13</ele>
        <time>2019-07-09T06:22:03Z</time>
      </trkpt>
      <trkpt lat="49.63234" lon="4.98349">
        <ele>198.65</ele>
        <time>2019-07-09T06:22:06Z</time>
      </trkpt>
      <trkpt lat="49.63228" lon="4.9835">
        <ele>197.69</ele>
        <time>2019-07-09T06:22:12Z</time>
      </trkpt>
      <trkpt lat="49.63213" lon="4.98347">
        <ele>196.25</ele>
        <time>2019-07-09T06:22:27Z</time>
      </trkpt>
      <trkpt lat="49.63208" lon="4.98346">
        <ele>197.21</ele>
        <time>2019-07-09T06:22:33Z</time>
      </trkpt>
      <trkpt lat="49.63194" lon="4.98345">
        <ele>192.88</ele>
        <time>2019-07-09T06:22:49Z</time>
      </trkpt>
      <trkpt lat="49.63184" lon="4.98346">
        <ele>189.04</ele>
        <time>2019-07-09T06:23:01Z</time>
      </trkpt>
      <trkpt lat="49.63177" lon="4.98344">
        <ele>187.59</ele>
        <time>2019-07-09T06:23:09Z</time>
      </trkpt>
      <trkpt lat="49.63172" lon="4.98346">
        <ele>187.59</ele>
        <time>2019-07-09T06:23:14Z</time>
      </trkpt>
      <trkpt lat="49.6316" lon="4.98346">
        <ele>190</ele>
        <time>2019-07-09T06:23:26Z</time>
      </trkpt>
      <trkpt lat="49.63159" lon="4.98345">
        <ele>190.48</ele>
        <time>2019-07-09T06:23:28Z</time>
      </trkpt>
      <trkpt lat="49.63144" lon="4.98343">
        <ele>190</ele>
        <time>2019-07-09T06:23:42Z</time>
      </trkpt>
      <trkpt lat="49.63138" lon="4.98347">
        <ele>190</ele>
        <time>2019-07-09T06:23:50Z</time>
      </trkpt>
      <trkpt lat="49.63129" lon="4.98347">
        <ele>190.96</ele>
        <time>2019-07-09T06:23:58Z</time>
      </trkpt>
      <trkpt lat="49.63112" lon="4.98344">
        <ele>191.44</ele>
        <time>2019-07-09T06:24:15Z</time>
      </trkpt>
      <trkpt lat="49.63099" lon="4.98343">
        <ele>188.08</ele>
        <time>2019-07-09T06:24:30Z</time>
      </trkpt>
      <trkpt lat="49.63088" lon="4.98345">
        <ele>186.15</ele>
        <time>2019-07-09T06:24:44Z</time>
      </trkpt>
      <trkpt lat="49.63073" lon="4.98342">
        <ele>184.71</ele>
        <time>2019-07-09T06:24:59Z</time>
      </trkpt>
      <trkpt lat="49.63059" lon="4.98342">
        <ele>182.31</ele>
        <time>2019-07-09T06:25:13Z</time>
      </trkpt>
      <trkpt lat="49.63047" lon="4.98335">
        <ele>188.08</ele>
        <time>2019-07-09T06:25:25Z</time>
      </trkpt>
      <trkpt lat="49.63032" lon="4.98332">
        <ele>190</ele>
        <time>2019-07-09T06:25:38Z</time>
      </trkpt>
      <trkpt lat="49.63023" lon="4.98334">
        <ele>191.92</ele>
        <time>2019-07-09T06:25:50Z</time>
      </trkpt>
      <trkpt lat="49.63015" lon="4.98334">
        <ele>193.36</ele>
        <time>2019-07-09T06:26:00Z</time>
      </trkpt>
      <trkpt lat="49.62996" lon="4.9833">
        <ele>200.09</ele>
        <time>2019-07-09T06:26:17Z</time>
      </trkpt>
      <trkpt lat="49.6298" lon="4.98322">
        <ele>211.63</ele>
        <time>2019-07-09T06:26:30Z</time>
      </trkpt>
      <trkpt lat="49.62968" lon="4.98318">
        <ele>216.43</ele>
        <time>2019-07-09T06:26:42Z</time>
      </trkpt>
      <trkpt lat="49.62952" lon="4.98313">
        <ele>226.53</ele>
        <time>2019-07-09T06:26:57Z</time>
      </trkpt>
      <trkpt lat="49.62947" lon="4.98315">
        <ele>227.01</ele>
        <time>2019-07-09T06:27:02Z</time>
      </trkpt>
      <trkpt lat="49.62932" lon="4.9832">
        <ele>232.78</ele>
        <time>2019-07-09T06:27:15Z</time>
      </trkpt>
      <trkpt lat="49.6292" lon="4.98322">
        <ele>237.1</ele>
        <time>2019-07-09T06:27:27Z</time>
      </trkpt>
      <trkpt lat="49.62907" lon="4.98327">
        <ele>240.47</ele>
        <time>2019-07-09T06:27:40Z</time>
      </trkpt>
      <trkpt lat="49.62897" lon="4.98335">
        <ele>237.1</ele>
        <time>2019-07-09T06:27:53Z</time>
      </trkpt>
      <trkpt lat="49.62887" lon="4.98338">
        <ele>235.18</ele>
        <time>2019-07-09T06:28:05Z</time>
      </trkpt>
      <trkpt lat="49.62881" lon="4.98339">
        <ele>234.7</ele>
        <time>2019-07-09T06:28:11Z</time>
      </trkpt>
      <trkpt lat="49.62867" lon="4.98341">
        <ele>235.18</ele>
        <time>2019-07-09T06:28:24Z</time>
      </trkpt>
      <trkpt lat="49.62853" lon="4.98345">
        <ele>235.66</ele>
        <time>2019-07-09T06:28:39Z</time>
      </trkpt>
      <trkpt lat="49.62839" lon="4.98351">
        <ele>239.02</ele>
        <time>2019-07-09T06:28:55Z</time>
      </trkpt>
      <trkpt lat="49.62829" lon="4.9836">
        <ele>240.47</ele>
        <time>2019-07-09T06:29:07Z</time>
      </trkpt>
      <trkpt lat="49.62827" lon="4.98364">
        <ele>240.47</ele>
        <time>2019-07-09T06:29:14Z</time>
      </trkpt>
      <trkpt lat="49.62814" lon="4.98373">
        <ele>245.27</ele>
        <time>2019-07-09T06:29:28Z</time>
      </trkpt>
      <trkpt lat="49.62802" lon="4.98383">
        <ele>247.2</ele>
        <time>2019-07-09T06:29:42Z</time>
      </trkpt>
      <trkpt lat="49.62794" lon="4.9839">
        <ele>246.72</ele>
        <time>2019-07-09T06:29:52Z</time>
      </trkpt>
      <trkpt lat="49.62783" lon="4.98401">
        <ele>249.12</ele>
        <time>2019-07-09T06:30:05Z</time>
      </trkpt>
      <trkpt lat="49.6277" lon="4.9841">
        <ele>248.64</ele>
        <time>2019-07-09T06:30:19Z</time>
      </trkpt>
      <trkpt lat="49.62756" lon="4.98419">
        <ele>250.08</ele>
        <time>2019-07-09T06:30:33Z</time>
      </trkpt>
      <trkpt lat="49.62745" lon="4.98428">
        <ele>252.48</ele>
        <time>2019-07-09T06:30:48Z</time>
      </trkpt>
      <trkpt lat="49.62735" lon="4.98436">
        <ele>255.37</ele>
        <time>2019-07-09T06:31:00Z</time>
      </trkpt>
      <trkpt lat="49.62722" lon="4.98445">
        <ele>257.77</ele>
        <time>2019-07-09T06:31:15Z</time>
      </trkpt>
      <trkpt lat="49.62711" lon="4.98459">
        <ele>257.77</ele>
        <time>2019-07-09T06:31:30Z</time>
      </trkpt>
      <trkpt lat="49.62696" lon="4.98471">
        <ele>260.65</ele>
        <time>2019-07-09T06:31:47Z</time>
      </trkpt>
      <trkpt lat="49.62686" lon="4.98477">
        <ele>263.06</ele>
        <time>2019-07-09T06:32:01Z</time>
      </trkpt>
      <trkpt lat="49.62667" lon="4.98492">
        <ele>264.02</ele>
        <time>2019-07-09T06:32:18Z</time>
      </trkpt>
      <trkpt lat="49.62651" lon="4.98507">
        <ele>264.02</ele>
        <time>2019-07-09T06:32:35Z</time>
      </trkpt>
      <trkpt lat="49.62638" lon="4.98519">
        <ele>266.42</ele>
        <time>2019-07-09T06:32:52Z</time>
      </trkpt>
      <trkpt lat="49.62624" lon="4.98532">
        <ele>264.5</ele>
        <time>2019-07-09T06:33:06Z</time>
      </trkpt>
      <trkpt lat="49.62609" lon="4.98545">
        <ele>262.1</ele>
        <time>2019-07-09T06:33:22Z</time>
      </trkpt>
      <trkpt lat="49.62593" lon="4.98558">
        <ele>260.65</ele>
        <time>2019-07-09T06:33:38Z</time>
      </trkpt>
      <trkpt lat="49.6258" lon="4.98567">
        <ele>260.17</ele>
        <time>2019-07-09T06:33:53Z</time>
      </trkpt>
      <trkpt lat="49.62566" lon="4.9858">
        <ele>259.69</ele>
        <time>2019-07-09T06:34:08Z</time>
      </trkpt>
      <trkpt lat="49.62558" lon="4.98585">
        <ele>259.69</ele>
        <time>2019-07-09T06:34:17Z</time>
      </trkpt>
      <trkpt lat="49.62553" lon="4.98579">
        <ele>259.21</ele>
        <time>2019-07-09T06:34:25Z</time>
      </trkpt>
      <trkpt lat="49.62552" lon="4.98561">
        <ele>259.21</ele>
        <time>2019-07-09T06:34:39Z</time>
      </trkpt>
      <trkpt lat="49.6255" lon="4.98553">
        <ele>258.73</ele>
        <time>2019-07-09T06:34:44Z</time>
      </trkpt>
      <trkpt lat="49.62546" lon="4.98554">
        <ele>258.73</ele>
        <time>2019-07-09T06:34:50Z</time>
      </trkpt>
      <trkpt lat="49.62529" lon="4.9856">
        <ele>259.69</ele>
        <time>2019-07-09T06:35:06Z</time>
      </trkpt>
      <trkpt lat="49.62518" lon="4.98561">
        <ele>259.69</ele>
        <time>2019-07-09T06:35:17Z</time>
      </trkpt>
      <trkpt lat="49.62512" lon="4.98559">
        <ele>259.69</ele>
        <time>2019-07-09T06:35:22Z</time>
      </trkpt>
      <trkpt lat="49.62495" lon="4.98553">
        <ele>259.69</ele>
        <time>2019-07-09T06:35:38Z</time>
      </trkpt>
      <trkpt lat="49.62482" lon="4.98542">
        <ele>260.65</ele>
        <time>2019-07-09T06:35:52Z</time>
      </trkpt>
      <trkpt lat="49.62469" lon="4.9853">
        <ele>259.69</ele>
        <time>2019-07-09T06:36:08Z</time>
      </trkpt>
      <trkpt lat="49.62453" lon="4.98518">
        <ele>260.17</ele>
        <time>2019-07-09T06:36:23Z</time>
      </trkpt>
      <trkpt lat="49.6244" lon="4.98508">
        <ele>262.1</ele>
        <time>2019-07-09T06:36:36Z</time>
      </trkpt>
      <trkpt lat="49.62428" lon="4.985">
        <ele>263.54</ele>
        <time>2019-07-09T06:36:49Z</time>
      </trkpt>
      <trkpt lat="49.62416" lon="4.98491">
        <ele>263.54</ele>
        <time>2019-07-09T06:37:02Z</time>
      </trkpt>
      <trkpt lat="49.62402" lon="4.98481">
        <ele>262.58</ele>
        <time>2019-07-09T06:37:16Z</time>
      </trkpt>
      <trkpt lat="49.6239" lon="4.98473">
        <ele>264.02</ele>
        <time>2019-07-09T06:37:29Z</time>
      </trkpt>
      <trkpt lat="49.62386" lon="4.98471">
        <ele>264.02</ele>
        <time>2019-07-09T06:37:34Z</time>
      </trkpt>
      <trkpt lat="49.6238" lon="4.98467">
        <ele>264.5</ele>
        <time>2019-07-09T06:37:43Z</time>
      </trkpt>
      <trkpt lat="49.62368" lon="4.9846">
        <ele>265.94</ele>
        <time>2019-07-09T06:37:55Z</time>
      </trkpt>
      <trkpt lat="49.62355" lon="4.98453">
        <ele>266.9</ele>
        <time>2019-07-09T06:38:08Z</time>
      </trkpt>
      <trkpt lat="49.62343" lon="4.98445">
        <ele>267.86</ele>
        <time>2019-07-09T06:38:20Z</time>
      </trkpt>
      <trkpt lat="49.62332" lon="4.98436">
        <ele>268.83</ele>
        <time>2019-07-09T06:38:33Z</time>
      </trkpt>
      <trkpt lat="49.62319" lon="4.98424">
        <ele>268.83</ele>
        <time>2019-07-09T06:38:47Z</time>
      </trkpt>
      <trkpt lat="49.62312" lon="4.98416">
        <ele>267.38</ele>
        <time>2019-07-09T06:38:55Z</time>
      </trkpt>
      <trkpt lat="49.62301" lon="4.98396">
        <ele>268.35</ele>
        <time>2019-07-09T06:39:10Z</time>
      </trkpt>
      <trkpt lat="49.62299" lon="4.98393">
        <ele>268.83</ele>
        <time>2019-07-09T06:39:14Z</time>
      </trkpt>
      <trkpt lat="49.6229" lon="4.9838">
        <ele>270.75</ele>
        <time>2019-07-09T06:39:26Z</time>
      </trkpt>
      <trkpt lat="49.6228" lon="4.98367">
        <ele>273.63</ele>
        <time>2019-07-09T06:39:40Z</time>
      </trkpt>
      <trkpt lat="49.62272" lon="4.98349">
        <ele>274.59</ele>
        <time>2019-07-09T06:39:54Z</time>
      </trkpt>
      <trkpt lat="49.6226" lon="4.9833">
        <ele>277</ele>
        <time>2019-07-09T06:40:10Z</time>
      </trkpt>
      <trkpt lat="49.62248" lon="4.98319">
        <ele>278.92</ele>
        <time>2019-07-09T06:40:23Z</time>
      </trkpt>
      <trkpt lat="49.62246" lon="4.98317">
        <ele>278.92</ele>
        <time>2019-07-09T06:40:26Z</time>
      </trkpt>
      <trkpt lat="49.62241" lon="4.98315">
        <ele>279.88</ele>
        <time>2019-07-09T06:40:30Z</time>
      </trkpt>
      <trkpt lat="49.62225" lon="4.98301">
        <ele>278.44</ele>
        <time>2019-07-09T06:40:45Z</time>
      </trkpt>
      <trkpt lat="49.62213" lon="4.98295">
        <ele>276.04</ele>
        <time>2019-07-09T06:41:01Z</time>
      </trkpt>
      <trkpt lat="49.62199" lon="4.98287">
        <ele>275.07</ele>
        <time>2019-07-09T06:41:16Z</time>
      </trkpt>
      <trkpt lat="49.62181" lon="4.98281">
        <ele>274.11</ele>
        <time>2019-07-09T06:41:32Z</time>
      </trkpt>
      <trkpt lat="49.62177" lon="4.98282">
        <ele>273.15</ele>
        <time>2019-07-09T06:41:38Z</time>
      </trkpt>
      <trkpt lat="49.62167" lon="4.9828">
        <ele>269.31</ele>
        <time>2019-07-09T06:41:48Z</time>
      </trkpt>
      <trkpt lat="49.62146" lon="4.98272">
        <ele>266.42</ele>
        <time>2019-07-09T06:42:03Z</time>
      </trkpt>
      <trkpt lat="49.62138" lon="4.98267">
        <ele>265.94</ele>
        <time>2019-07-09T06:42:12Z</time>
      </trkpt>
      <trkpt lat="49.62123" lon="4.98257">
        <ele>271.23</ele>
        <time>2019-07-09T06:42:26Z</time>
      </trkpt>
      <trkpt lat="49.62113" lon="4.9825">
        <ele>274.11</ele>
        <time>2019-07-09T06:42:37Z</time>
      </trkpt>
      <trkpt lat="49.62099" lon="4.98241">
        <ele>276.52</ele>
        <time>2019-07-09T06:42:51Z</time>
      </trkpt>
      <trkpt lat="49.62086" lon="4.98228">
        <ele>278.44</ele>
        <time>2019-07-09T06:43:05Z</time>
      </trkpt>
      <trkpt lat="49.62071" lon="4.9822">
        <ele>279.4</ele>
        <time>2019-07-09T06:43:18Z</time>
      </trkpt>
      <trkpt lat="49.62057" lon="4.98213">
        <ele>281.32</ele>
        <time>2019-07-09T06:43:30Z</time>
      </trkpt>
      <trkpt lat="49.62044" lon="4.98207">
        <ele>282.77</ele>
        <time>2019-07-09T06:43:44Z</time>
      </trkpt>
      <trkpt lat="49.62043" lon="4.98207">
        <ele>282.77</ele>
        <time>2019-07-09T06:43:45Z</time>
      </trkpt>
      <trkpt lat="49.62029" lon="4.98198">
        <ele>283.73</ele>
        <time>2019-07-09T06:43:59Z</time>
      </trkpt>
      <trkpt lat="49.62015" lon="4.98192">
        <ele>283.73</ele>
        <time>2019-07-09T06:44:12Z</time>
      </trkpt>
      <trkpt lat="49.62002" lon="4.98186">
        <ele>284.69</ele>
        <time>2019-07-09T06:44:25Z</time>
      </trkpt>
      <trkpt lat="49.61988" lon="4.98181">
        <ele>285.17</ele>
        <time>2019-07-09T06:44:40Z</time>
      </trkpt>
      <trkpt lat="49.61978" lon="4.98176">
        <ele>284.69</ele>
        <time>2019-07-09T06:44:50Z</time>
      </trkpt>
      <trkpt lat="49.61965" lon="4.98171">
        <ele>284.69</ele>
        <time>2019-07-09T06:45:01Z</time>
      </trkpt>
      <trkpt lat="49.61951" lon="4.98163">
        <ele>283.73</ele>
        <time>2019-07-09T06:45:16Z</time>
      </trkpt>
      <trkpt lat="49.61937" lon="4.98158">
        <ele>283.25</ele>
        <time>2019-07-09T06:45:33Z</time>
      </trkpt>
      <trkpt lat="49.61922" lon="4.98149">
        <ele>287.57</ele>
        <time>2019-07-09T06:45:46Z</time>
      </trkpt>
      <trkpt lat="49.6192" lon="4.98148">
        <ele>288.05</ele>
        <time>2019-07-09T06:45:48Z</time>
      </trkpt>
      <trkpt lat="49.61903" lon="4.98142">
        <ele>291.42</ele>
        <time>2019-07-09T06:46:03Z</time>
      </trkpt>
      <trkpt lat="49.61894" lon="4.98143">
        <ele>292.86</ele>
        <time>2019-07-09T06:46:12Z</time>
      </trkpt>
      <trkpt lat="49.61875" lon="4.98148">
        <ele>296.22</ele>
        <time>2019-07-09T06:46:26Z</time>
      </trkpt>
      <trkpt lat="49.61862" lon="4.98154">
        <ele>298.63</ele>
        <time>2019-07-09T06:46:41Z</time>
      </trkpt>
      <trkpt lat="49.6186" lon="4.98155">
        <ele>299.11</ele>
        <time>2019-07-09T06:46:43Z</time>
      </trkpt>
      <trkpt lat="49.61839" lon="4.98164">
        <ele>307.28</ele>
        <time>2019-07-09T06:46:58Z</time>
      </trkpt>
      <trkpt lat="49.61834" lon="4.98167">
        <ele>309.68</ele>
        <time>2019-07-09T06:47:03Z</time>
      </trkpt>
      <trkpt lat="49.61826" lon="4.98173">
        <ele>309.68</ele>
        <time>2019-07-09T06:47:17Z</time>
      </trkpt>
      <trkpt lat="49.61826" lon="4.98178">
        <ele>306.8</ele>
        <time>2019-07-09T06:47:33Z</time>
      </trkpt>
      <trkpt lat="49.61826" lon="4.98179">
        <ele>306.8</ele>
        <time>2019-07-09T06:47:34Z</time>
      </trkpt>
      <trkpt lat="49.61822" lon="4.98186">
        <ele>306.8</ele>
        <time>2019-07-09T06:47:39Z</time>
      </trkpt>
      <trkpt lat="49.61815" lon="4.98209">
        <ele>305.84</ele>
        <time>2019-07-09T06:47:55Z</time>
      </trkpt>
      <trkpt lat="49.61813" lon="4.98217">
        <ele>305.36</ele>
        <time>2019-07-09T06:48:05Z</time>
      </trkpt>
      <trkpt lat="49.61806" lon="4.98242">
        <ele>304.39</ele>
        <time>2019-07-09T06:48:20Z</time>
      </trkpt>
      <trkpt lat="49.61802" lon="4.98264">
        <ele>305.36</ele>
        <time>2019-07-09T06:48:35Z</time>
      </trkpt>
      <trkpt lat="49.61797" lon="4.98288">
        <ele>304.39</ele>
        <time>2019-07-09T06:48:49Z</time>
      </trkpt>
      <trkpt lat="49.61796" lon="4.983">
        <ele>304.39</ele>
        <time>2019-07-09T06:48:57Z</time>
      </trkpt>
      <trkpt lat="49.61792" lon="4.98324">
        <ele>306.32</ele>
        <time>2019-07-09T06:49:13Z</time>
      </trkpt>
      <trkpt lat="49.61787" lon="4.98349">
        <ele>307.28</ele>
        <time>2019-07-09T06:49:30Z</time>
      </trkpt>
      <trkpt lat="49.61779" lon="4.98383">
        <ele>309.68</ele>
        <time>2019-07-09T06:49:48Z</time>
      </trkpt>
      <trkpt lat="49.61772" lon="4.98403">
        <ele>310.64</ele>
        <time>2019-07-09T06:50:01Z</time>
      </trkpt>
      <trkpt lat="49.61765" lon="4.98423">
        <ele>314.49</ele>
        <time>2019-07-09T06:50:17Z</time>
      </trkpt>
      <trkpt lat="49.61761" lon="4.9845">
        <ele>319.78</ele>
        <time>2019-07-09T06:50:33Z</time>
      </trkpt>
      <trkpt lat="49.61756" lon="4.98477">
        <ele>320.74</ele>
        <time>2019-07-09T06:50:50Z</time>
      </trkpt>
      <trkpt lat="49.61749" lon="4.985">
        <ele>317.85</ele>
        <time>2019-07-09T06:51:05Z</time>
      </trkpt>
      <trkpt lat="49.61744" lon="4.98528">
        <ele>317.85</ele>
        <time>2019-07-09T06:51:21Z</time>
      </trkpt>
      <trkpt lat="49.61742" lon="4.98533">
        <ele>317.37</ele>
        <time>2019-07-09T06:51:23Z</time>
      </trkpt>
      <trkpt lat="49.61738" lon="4.98554">
        <ele>318.81</ele>
        <time>2019-07-09T06:51:39Z</time>
      </trkpt>
      <trkpt lat="49.61733" lon="4.98577">
        <ele>321.22</ele>
        <time>2019-07-09T06:51:54Z</time>
      </trkpt>
      <trkpt lat="49.61728" lon="4.98605">
        <ele>319.78</ele>
        <time>2019-07-09T06:52:11Z</time>
      </trkpt>
      <trkpt lat="49.61725" lon="4.98625">
        <ele>316.41</ele>
        <time>2019-07-09T06:52:24Z</time>
      </trkpt>
      <trkpt lat="49.61718" lon="4.98655">
        <ele>314.01</ele>
        <time>2019-07-09T06:52:42Z</time>
      </trkpt>
      <trkpt lat="49.61715" lon="4.9868">
        <ele>314.49</ele>
        <time>2019-07-09T06:53:00Z</time>
      </trkpt>
      <trkpt lat="49.61704" lon="4.98701">
        <ele>318.33</ele>
        <time>2019-07-09T06:53:15Z</time>
      </trkpt>
      <trkpt lat="49.61696" lon="4.9872">
        <ele>319.78</ele>
        <time>2019-07-09T06:53:31Z</time>
      </trkpt>
      <trkpt lat="49.61686" lon="4.98745">
        <ele>321.22</ele>
        <time>2019-07-09T06:53:48Z</time>
      </trkpt>
      <trkpt lat="49.61674" lon="4.98764">
        <ele>321.22</ele>
        <time>2019-07-09T06:54:04Z</time>
      </trkpt>
      <trkpt lat="49.61661" lon="4.98786">
        <ele>319.78</ele>
        <time>2019-07-09T06:54:21Z</time>
      </trkpt>
      <trkpt lat="49.6165" lon="4.98811">
        <ele>322.66</ele>
        <time>2019-07-09T06:54:38Z</time>
      </trkpt>
      <trkpt lat="49.61642" lon="4.98826">
        <ele>326.02</ele>
        <time>2019-07-09T06:54:50Z</time>
      </trkpt>
      <trkpt lat="49.61636" lon="4.98845">
        <ele>326.02</ele>
        <time>2019-07-09T06:55:07Z</time>
      </trkpt>
      <trkpt lat="49.61625" lon="4.98861">
        <ele>331.31</ele>
        <time>2019-07-09T06:55:27Z</time>
      </trkpt>
      <trkpt lat="49.61619" lon="4.98883">
        <ele>329.87</ele>
        <time>2019-07-09T06:55:41Z</time>
      </trkpt>
      <trkpt lat="49.61612" lon="4.98902">
        <ele>329.87</ele>
        <time>2019-07-09T06:55:56Z</time>
      </trkpt>
      <trkpt lat="49.61602" lon="4.98923">
        <ele>328.91</ele>
        <time>2019-07-09T06:56:12Z</time>
      </trkpt>
      <trkpt lat="49.61591" lon="4.98949">
        <ele>325.54</ele>
        <time>2019-07-09T06:56:31Z</time>
      </trkpt>
      <trkpt lat="49.6158" lon="4.98981">
        <ele>320.74</ele>
        <time>2019-07-09T06:56:51Z</time>
      </trkpt>
      <trkpt lat="49.61574" lon="4.9901">
        <ele>310.64</ele>
        <time>2019-07-09T06:57:08Z</time>
      </trkpt>
      <trkpt lat="49.61566" lon="4.99025">
        <ele>313.53</ele>
        <time>2019-07-09T06:57:21Z</time>
      </trkpt>
      <trkpt lat="49.61557" lon="4.99042">
        <ele>314.49</ele>
        <time>2019-07-09T06:57:36Z</time>
      </trkpt>
      <trkpt lat="49.61553" lon="4.99067">
        <ele>315.45</ele>
        <time>2019-07-09T06:57:54Z</time>
      </trkpt>
      <trkpt lat="49.61546" lon="4.99087">
        <ele>313.05</ele>
        <time>2019-07-09T06:58:08Z</time>
      </trkpt>
      <trkpt lat="49.61536" lon="4.99114">
        <ele>315.93</ele>
        <time>2019-07-09T06:58:25Z</time>
      </trkpt>
      <trkpt lat="49.61528" lon="4.99136">
        <ele>314.01</ele>
        <time>2019-07-09T06:58:43Z</time>
      </trkpt>
      <trkpt lat="49.61519" lon="4.99157">
        <ele>318.33</ele>
        <time>2019-07-09T06:58:58Z</time>
      </trkpt>
      <trkpt lat="49.6151" lon="4.99173">
        <ele>325.06</ele>
        <time>2019-07-09T06:59:18Z</time>
      </trkpt>
      <trkpt lat="49.61507" lon="4.99176">
        <ele>326.99</ele>
        <time>2019-07-09T06:59:23Z</time>
      </trkpt>
      <trkpt lat="49.61486" lon="4.9919">
        <ele>329.39</ele>
        <time>2019-07-09T06:59:41Z</time>
      </trkpt>
      <trkpt lat="49.61475" lon="4.99199">
        <ele>325.06</ele>
        <time>2019-07-09T07:00:02Z</time>
      </trkpt>
      <trkpt lat="49.6146" lon="4.9921">
        <ele>320.74</ele>
        <time>2019-07-09T07:00:18Z</time>
      </trkpt>
      <trkpt lat="49.61453" lon="4.99225">
        <ele>320.26</ele>
        <time>2019-07-09T07:00:36Z</time>
      </trkpt>
      <trkpt lat="49.61453" lon="4.99226">
        <ele>320.26</ele>
        <time>2019-07-09T07:00:37Z</time>
      </trkpt>
      <trkpt lat="49.61453" lon="4.99245">
        <ele>325.06</ele>
        <time>2019-07-09T07:00:55Z</time>
      </trkpt>
      <trkpt lat="49.61449" lon="4.99275">
        <ele>328.91</ele>
        <time>2019-07-09T07:01:12Z</time>
      </trkpt>
      <trkpt lat="49.61447" lon="4.99293">
        <ele>332.75</ele>
        <time>2019-07-09T07:01:29Z</time>
      </trkpt>
      <trkpt lat="49.61446" lon="4.99326">
        <ele>329.39</ele>
        <time>2019-07-09T07:01:43Z</time>
      </trkpt>
      <trkpt lat="49.61448" lon="4.99345">
        <ele>330.83</ele>
        <time>2019-07-09T07:02:01Z</time>
      </trkpt>
      <trkpt lat="49.61442" lon="4.99361">
        <ele>332.27</ele>
        <time>2019-07-09T07:02:12Z</time>
      </trkpt>
      <trkpt lat="49.61436" lon="4.99397">
        <ele>326.02</ele>
        <time>2019-07-09T07:02:29Z</time>
      </trkpt>
      <trkpt lat="49.61427" lon="4.99421">
        <ele>317.37</ele>
        <time>2019-07-09T07:02:44Z</time>
      </trkpt>
      <trkpt lat="49.61423" lon="4.99435">
        <ele>315.93</ele>
        <time>2019-07-09T07:02:53Z</time>
      </trkpt>
      <trkpt lat="49.61422" lon="4.99441">
        <ele>314.01</ele>
        <time>2019-07-09T07:02:56Z</time>
      </trkpt>
      <trkpt lat="49.61416" lon="4.99461">
        <ele>312.57</ele>
        <time>2019-07-09T07:03:10Z</time>
      </trkpt>
      <trkpt lat="49.61407" lon="4.9949">
        <ele>303.91</ele>
        <time>2019-07-09T07:03:25Z</time>
      </trkpt>
      <trkpt lat="49.61401" lon="4.99505">
        <ele>301.99</ele>
        <time>2019-07-09T07:03:35Z</time>
      </trkpt>
      <trkpt lat="49.61394" lon="4.99528">
        <ele>299.59</ele>
        <time>2019-07-09T07:03:51Z</time>
      </trkpt>
      <trkpt lat="49.61381" lon="4.99552">
        <ele>299.59</ele>
        <time>2019-07-09T07:04:08Z</time>
      </trkpt>
      <trkpt lat="49.61372" lon="4.99577">
        <ele>294.3</ele>
        <time>2019-07-09T07:04:23Z</time>
      </trkpt>
      <trkpt lat="49.61371" lon="4.99578">
        <ele>293.82</ele>
        <time>2019-07-09T07:04:24Z</time>
      </trkpt>
      <trkpt lat="49.6137" lon="4.99605">
        <ele>284.69</ele>
        <time>2019-07-09T07:04:39Z</time>
      </trkpt>
      <trkpt lat="49.61368" lon="4.99631">
        <ele>280.84</ele>
        <time>2019-07-09T07:04:54Z</time>
      </trkpt>
      <trkpt lat="49.61364" lon="4.99656">
        <ele>278.44</ele>
        <time>2019-07-09T07:05:10Z</time>
      </trkpt>
      <trkpt lat="49.61362" lon="4.99679">
        <ele>274.59</ele>
        <time>2019-07-09T07:05:23Z</time>
      </trkpt>
      <trkpt lat="49.61361" lon="4.99709">
        <ele>271.71</ele>
        <time>2019-07-09T07:05:38Z</time>
      </trkpt>
      <trkpt lat="49.61359" lon="4.99737">
        <ele>272.67</ele>
        <time>2019-07-09T07:05:54Z</time>
      </trkpt>
      <trkpt lat="49.61357" lon="4.99765">
        <ele>274.59</ele>
        <time>2019-07-09T07:06:10Z</time>
      </trkpt>
      <trkpt lat="49.61357" lon="4.99768">
        <ele>274.59</ele>
        <time>2019-07-09T07:06:12Z</time>
      </trkpt>
      <trkpt lat="49.61354" lon="4.99793">
        <ele>277.96</ele>
        <time>2019-07-09T07:06:28Z</time>
      </trkpt>
      <trkpt lat="49.61351" lon="4.99819">
        <ele>276.04</ele>
        <time>2019-07-09T07:06:43Z</time>
      </trkpt>
      <trkpt lat="49.61351" lon="4.99843">
        <ele>275.07</ele>
        <time>2019-07-09T07:06:59Z</time>
      </trkpt>
      <trkpt lat="49.61352" lon="4.99845">
        <ele>275.07</ele>
        <time>2019-07-09T07:07:00Z</time>
      </trkpt>
      <trkpt lat="49.61348" lon="4.99866">
        <ele>273.63</ele>
        <time>2019-07-09T07:07:11Z</time>
      </trkpt>
      <trkpt lat="49.61343" lon="4.99892">
        <ele>271.71</ele>
        <time>2019-07-09T07:07:27Z</time>
      </trkpt>
      <trkpt lat="49.61343" lon="4.99917">
        <ele>273.63</ele>
        <time>2019-07-09T07:07:44Z</time>
      </trkpt>
      <trkpt lat="49.61341" lon="4.99944">
        <ele>272.67</ele>
        <time>2019-07-09T07:07:59Z</time>
      </trkpt>
      <trkpt lat="49.61341" lon="4.99977">
        <ele>272.67</ele>
        <time>2019-07-09T07:08:16Z</time>
      </trkpt>
      <trkpt lat="49.61342" lon="5.00005">
        <ele>273.63</ele>
        <time>2019-07-09T07:08:30Z</time>
      </trkpt>
      <trkpt lat="49.61344" lon="5.00028">
        <ele>275.07</ele>
        <time>2019-07-09T07:08:46Z</time>
      </trkpt>
      <trkpt lat="49.61346" lon="5.00049">
        <ele>276.52</ele>
        <time>2019-07-09T07:09:01Z</time>
      </trkpt>
      <trkpt lat="49.61348" lon="5.00079">
        <ele>274.59</ele>
        <time>2019-07-09T07:09:15Z</time>
      </trkpt>
      <trkpt lat="49.61352" lon="5.00106">
        <ele>274.59</ele>
        <time>2019-07-09T07:09:30Z</time>
      </trkpt>
      <trkpt lat="49.61356" lon="5.00127">
        <ele>276.52</ele>
        <time>2019-07-09T07:09:45Z</time>
      </trkpt>
      <trkpt lat="49.6135" lon="5.00127">
        <ele>283.73</ele>
        <time>2019-07-09T07:10:00Z</time>
      </trkpt>
      <trkpt lat="49.61348" lon="5.00126">
        <ele>284.21</ele>
        <time>2019-07-09T07:10:02Z</time>
      </trkpt>
      <trkpt lat="49.61335" lon="5.0011">
        <ele>285.65</ele>
        <time>2019-07-09T07:10:18Z</time>
      </trkpt>
      <trkpt lat="49.61323" lon="5.00101">
        <ele>284.69</ele>
        <time>2019-07-09T07:10:33Z</time>
      </trkpt>
      <trkpt lat="49.61313" lon="5.00089">
        <ele>286.13</ele>
        <time>2019-07-09T07:10:47Z</time>
      </trkpt>
      <trkpt lat="49.61303" lon="5.00075">
        <ele>286.13</ele>
        <time>2019-07-09T07:11:02Z</time>
      </trkpt>
      <trkpt lat="49.61295" lon="5.00067">
        <ele>285.17</ele>
        <time>2019-07-09T07:11:12Z</time>
      </trkpt>
      <trkpt lat="49.61282" lon="5.00053">
        <ele>285.17</ele>
        <time>2019-07-09T07:11:31Z</time>
      </trkpt>
      <trkpt lat="49.61272" lon="5.00037">
        <ele>287.09</ele>
        <time>2019-07-09T07:11:47Z</time>
      </trkpt>
      <trkpt lat="49.61259" lon="5.00021">
        <ele>289.97</ele>
        <time>2019-07-09T07:12:06Z</time>
      </trkpt>
      <trkpt lat="49.61249" lon="5.00002">
        <ele>285.17</ele>
        <time>2019-07-09T07:12:23Z</time>
      </trkpt>
      <trkpt lat="49.61236" lon="4.99983">
        <ele>278.92</ele>
        <time>2019-07-09T07:12:38Z</time>
      </trkpt>
      <trkpt lat="49.61223" lon="4.99964">
        <ele>278.44</ele>
        <time>2019-07-09T07:12:55Z</time>
      </trkpt>
      <trkpt lat="49.61213" lon="4.99947">
        <ele>281.32</ele>
        <time>2019-07-09T07:13:12Z</time>
      </trkpt>
      <trkpt lat="49.61207" lon="4.99933">
        <ele>281.32</ele>
        <time>2019-07-09T07:13:26Z</time>
      </trkpt>
      <trkpt lat="49.61195" lon="4.99915">
        <ele>280.36</ele>
        <time>2019-07-09T07:13:40Z</time>
      </trkpt>
      <trkpt lat="49.61184" lon="4.99899">
        <ele>280.84</ele>
        <time>2019-07-09T07:13:55Z</time>
      </trkpt>
      <trkpt lat="49.61173" lon="4.99915">
        <ele>278.92</ele>
        <time>2019-07-09T07:14:11Z</time>
      </trkpt>
      <trkpt lat="49.61163" lon="4.99941">
        <ele>276.04</ele>
        <time>2019-07-09T07:14:28Z</time>
      </trkpt>
      <trkpt lat="49.61154" lon="4.99958">
        <ele>278.44</ele>
        <time>2019-07-09T07:14:44Z</time>
      </trkpt>
      <trkpt lat="49.61148" lon="4.9999">
        <ele>277</ele>
        <time>2019-07-09T07:15:02Z</time>
      </trkpt>
      <trkpt lat="49.61143" lon="5.00016">
        <ele>277.96</ele>
        <time>2019-07-09T07:15:17Z</time>
      </trkpt>
      <trkpt lat="49.61142" lon="5.00042">
        <ele>277.48</ele>
        <time>2019-07-09T07:15:33Z</time>
      </trkpt>
      <trkpt lat="49.6114" lon="5.00065">
        <ele>278.92</ele>
        <time>2019-07-09T07:15:51Z</time>
      </trkpt>
      <trkpt lat="49.6113" lon="5.00093">
        <ele>277</ele>
        <time>2019-07-09T07:16:06Z</time>
      </trkpt>
      <trkpt lat="49.6113" lon="5.00125">
        <ele>277.48</ele>
        <time>2019-07-09T07:16:24Z</time>
      </trkpt>
      <trkpt lat="49.61126" lon="5.00153">
        <ele>281.32</ele>
        <time>2019-07-09T07:16:40Z</time>
      </trkpt>
      <trkpt lat="49.61122" lon="5.00174">
        <ele>282.28</ele>
        <time>2019-07-09T07:16:55Z</time>
      </trkpt>
      <trkpt lat="49.61119" lon="5.00201">
        <ele>282.77</ele>
        <time>2019-07-09T07:17:10Z</time>
      </trkpt>
      <trkpt lat="49.61114" lon="5.00231">
        <ele>281.32</ele>
        <time>2019-07-09T07:17:28Z</time>
      </trkpt>
      <trkpt lat="49.61108" lon="5.00261">
        <ele>281.8</ele>
        <time>2019-07-09T07:17:46Z</time>
      </trkpt>
      <trkpt lat="49.61099" lon="5.00294">
        <ele>275.56</ele>
        <time>2019-07-09T07:18:05Z</time>
      </trkpt>
      <trkpt lat="49.61096" lon="5.00322">
        <ele>277.96</ele>
        <time>2019-07-09T07:18:23Z</time>
      </trkpt>
      <trkpt lat="49.61086" lon="5.00347">
        <ele>276.52</ele>
        <time>2019-07-09T07:18:41Z</time>
      </trkpt>
      <trkpt lat="49.61081" lon="5.00369">
        <ele>274.11</ele>
        <time>2019-07-09T07:18:53Z</time>
      </trkpt>
      <trkpt lat="49.61077" lon="5.004">
        <ele>280.36</ele>
        <time>2019-07-09T07:19:12Z</time>
      </trkpt>
      <trkpt lat="49.61069" lon="5.00421">
        <ele>284.69</ele>
        <time>2019-07-09T07:19:28Z</time>
      </trkpt>
      <trkpt lat="49.6105" lon="5.00431">
        <ele>285.65</ele>
        <time>2019-07-09T07:19:46Z</time>
      </trkpt>
      <trkpt lat="49.61036" lon="5.00446">
        <ele>286.61</ele>
        <time>2019-07-09T07:20:01Z</time>
      </trkpt>
      <trkpt lat="49.61019" lon="5.00462">
        <ele>289.97</ele>
        <time>2019-07-09T07:20:19Z</time>
      </trkpt>
      <trkpt lat="49.61015" lon="5.00469">
        <ele>288.05</ele>
        <time>2019-07-09T07:20:23Z</time>
      </trkpt>
      <trkpt lat="49.61006" lon="5.00496">
        <ele>282.28</ele>
        <time>2019-07-09T07:20:39Z</time>
      </trkpt>
      <trkpt lat="49.60995" lon="5.00516">
        <ele>275.07</ele>
        <time>2019-07-09T07:20:56Z</time>
      </trkpt>
      <trkpt lat="49.60991" lon="5.00525">
        <ele>274.11</ele>
        <time>2019-07-09T07:21:03Z</time>
      </trkpt>
      <trkpt lat="49.60987" lon="5.00549">
        <ele>277</ele>
        <time>2019-07-09T07:21:22Z</time>
      </trkpt>
      <trkpt lat="49.60986" lon="5.0057">
        <ele>280.36</ele>
        <time>2019-07-09T07:21:35Z</time>
      </trkpt>
      <trkpt lat="49.60981" lon="5.00601">
        <ele>283.73</ele>
        <time>2019-07-09T07:21:52Z</time>
      </trkpt>
      <trkpt lat="49.60974" lon="5.00631">
        <ele>277</ele>
        <time>2019-07-09T07:22:09Z</time>
      </trkpt>
      <trkpt lat="49.60975" lon="5.00658">
        <ele>271.71</ele>
        <time>2019-07-09T07:22:26Z</time>
      </trkpt>
      <trkpt lat="49.60974" lon="5.00693">
        <ele>270.27</ele>
        <time>2019-07-09T07:22:46Z</time>
      </trkpt>
      <trkpt lat="49.60973" lon="5.00708">
        <ele>269.31</ele>
        <time>2019-07-09T07:23:00Z</time>
      </trkpt>
      <trkpt lat="49.60974" lon="5.00729">
        <ele>268.35</ele>
        <time>2019-07-09T07:23:16Z</time>
      </trkpt>
      <trkpt lat="49.60978" lon="5.00752">
        <ele>268.83</ele>
        <time>2019-07-09T07:23:31Z</time>
      </trkpt>
      <trkpt lat="49.6097" lon="5.00769">
        <ele>268.35</ele>
        <time>2019-07-09T07:23:48Z</time>
      </trkpt>
      <trkpt lat="49.60969" lon="5.00797">
        <ele>267.86</ele>
        <time>2019-07-09T07:24:07Z</time>
      </trkpt>
      <trkpt lat="49.60965" lon="5.00821">
        <ele>263.06</ele>
        <time>2019-07-09T07:24:23Z</time>
      </trkpt>
      <trkpt lat="49.60959" lon="5.00845">
        <ele>260.17</ele>
        <time>2019-07-09T07:24:41Z</time>
      </trkpt>
      <trkpt lat="49.60951" lon="5.00865">
        <ele>257.77</ele>
        <time>2019-07-09T07:24:58Z</time>
      </trkpt>
      <trkpt lat="49.6094" lon="5.00893">
        <ele>251.04</ele>
        <time>2019-07-09T07:25:17Z</time>
      </trkpt>
      <trkpt lat="49.60941" lon="5.00916">
        <ele>252.96</ele>
        <time>2019-07-09T07:25:33Z</time>
      </trkpt>
      <trkpt lat="49.6094" lon="5.0093">
        <ele>252</ele>
        <time>2019-07-09T07:25:48Z</time>
      </trkpt>
      <trkpt lat="49.60927" lon="5.00936">
        <ele>253.44</ele>
        <time>2019-07-09T07:26:07Z</time>
      </trkpt>
      <trkpt lat="49.60916" lon="5.00934">
        <ele>255.85</ele>
        <time>2019-07-09T07:26:24Z</time>
      </trkpt>
      <trkpt lat="49.60917" lon="5.0094">
        <ele>256.33</ele>
        <time>2019-07-09T07:26:36Z</time>
      </trkpt>
      <trkpt lat="49.60918" lon="5.00948">
        <ele>257.29</ele>
        <time>2019-07-09T07:26:40Z</time>
      </trkpt>
      <trkpt lat="49.60911" lon="5.00998">
        <ele>247.68</ele>
        <time>2019-07-09T07:26:59Z</time>
      </trkpt>
      <trkpt lat="49.60915" lon="5.01028">
        <ele>240.47</ele>
        <time>2019-07-09T07:27:18Z</time>
      </trkpt>
      <trkpt lat="49.60926" lon="5.01064">
        <ele>234.22</ele>
        <time>2019-07-09T07:27:37Z</time>
      </trkpt>
      <trkpt lat="49.60927" lon="5.01087">
        <ele>230.37</ele>
        <time>2019-07-09T07:27:54Z</time>
      </trkpt>
      <trkpt lat="49.60927" lon="5.01088">
        <ele>229.89</ele>
        <time>2019-07-09T07:27:55Z</time>
      </trkpt>
      <trkpt lat="49.60932" lon="5.01108">
        <ele>227.49</ele>
        <time>2019-07-09T07:28:11Z</time>
      </trkpt>
      <trkpt lat="49.60942" lon="5.01142">
        <ele>228.93</ele>
        <time>2019-07-09T07:28:27Z</time>
      </trkpt>
      <trkpt lat="49.60946" lon="5.01167">
        <ele>227.49</ele>
        <time>2019-07-09T07:28:43Z</time>
      </trkpt>
      <trkpt lat="49.60957" lon="5.01201">
        <ele>228.93</ele>
        <time>2019-07-09T07:28:59Z</time>
      </trkpt>
      <trkpt lat="49.6096" lon="5.01224">
        <ele>228.45</ele>
        <time>2019-07-09T07:29:16Z</time>
      </trkpt>
      <trkpt lat="49.60976" lon="5.01258">
        <ele>229.89</ele>
        <time>2019-07-09T07:29:32Z</time>
      </trkpt>
      <trkpt lat="49.60986" lon="5.01278">
        <ele>227.49</ele>
        <time>2019-07-09T07:29:48Z</time>
      </trkpt>
      <trkpt lat="49.60986" lon="5.01299">
        <ele>227.97</ele>
        <time>2019-07-09T07:30:04Z</time>
      </trkpt>
      <trkpt lat="49.60992" lon="5.01321">
        <ele>229.89</ele>
        <time>2019-07-09T07:30:21Z</time>
      </trkpt>
      <trkpt lat="49.61003" lon="5.01354">
        <ele>233.26</ele>
        <time>2019-07-09T07:30:39Z</time>
      </trkpt>
      <trkpt lat="49.61008" lon="5.01376">
        <ele>233.74</ele>
        <time>2019-07-09T07:30:56Z</time>
      </trkpt>
      <trkpt lat="49.6101" lon="5.01403">
        <ele>235.18</ele>
        <time>2019-07-09T07:31:14Z</time>
      </trkpt>
      <trkpt lat="49.61016" lon="5.01439">
        <ele>235.18</ele>
        <time>2019-07-09T07:31:31Z</time>
      </trkpt>
      <trkpt lat="49.61015" lon="5.0147">
        <ele>238.54</ele>
        <time>2019-07-09T07:31:48Z</time>
      </trkpt>
      <trkpt lat="49.6101" lon="5.01487">
        <ele>241.43</ele>
        <time>2019-07-09T07:32:01Z</time>
      </trkpt>
      <trkpt lat="49.61016" lon="5.01522">
        <ele>241.91</ele>
        <time>2019-07-09T07:32:18Z</time>
      </trkpt>
      <trkpt lat="49.61013" lon="5.0153">
        <ele>240.95</ele>
        <time>2019-07-09T07:32:25Z</time>
      </trkpt>
      <trkpt lat="49.61009" lon="5.01558">
        <ele>239.51</ele>
        <time>2019-07-09T07:32:43Z</time>
      </trkpt>
      <trkpt lat="49.61007" lon="5.01578">
        <ele>238.06</ele>
        <time>2019-07-09T07:32:56Z</time>
      </trkpt>
      <trkpt lat="49.61009" lon="5.01603">
        <ele>239.02</ele>
        <time>2019-07-09T07:33:12Z</time>
      </trkpt>
      <trkpt lat="49.61004" lon="5.01633">
        <ele>239.99</ele>
        <time>2019-07-09T07:33:28Z</time>
      </trkpt>
      <trkpt lat="49.61003" lon="5.01651">
        <ele>239.51</ele>
        <time>2019-07-09T07:33:43Z</time>
      </trkpt>
      <trkpt lat="49.61002" lon="5.01671">
        <ele>236.14</ele>
        <time>2019-07-09T07:33:59Z</time>
      </trkpt>
      <trkpt lat="49.61002" lon="5.0169">
        <ele>233.74</ele>
        <time>2019-07-09T07:34:10Z</time>
      </trkpt>
      <trkpt lat="49.61008" lon="5.01724">
        <ele>230.37</ele>
        <time>2019-07-09T07:34:27Z</time>
      </trkpt>
      <trkpt lat="49.61015" lon="5.0175">
        <ele>232.78</ele>
        <time>2019-07-09T07:34:43Z</time>
      </trkpt>
      <trkpt lat="49.6102" lon="5.01782">
        <ele>235.18</ele>
        <time>2019-07-09T07:35:01Z</time>
      </trkpt>
      <trkpt lat="49.61025" lon="5.01809">
        <ele>234.7</ele>
        <time>2019-07-09T07:35:18Z</time>
      </trkpt>
      <trkpt lat="49.61025" lon="5.01815">
        <ele>234.22</ele>
        <time>2019-07-09T07:35:23Z</time>
      </trkpt>
      <trkpt lat="49.61028" lon="5.01843">
        <ele>232.78</ele>
        <time>2019-07-09T07:35:40Z</time>
      </trkpt>
      <trkpt lat="49.61033" lon="5.01865">
        <ele>234.22</ele>
        <time>2019-07-09T07:35:57Z</time>
      </trkpt>
      <trkpt lat="49.61033" lon="5.01898">
        <ele>234.22</ele>
        <time>2019-07-09T07:36:14Z</time>
      </trkpt>
      <trkpt lat="49.61035" lon="5.01939">
        <ele>234.7</ele>
        <time>2019-07-09T07:36:34Z</time>
      </trkpt>
      <trkpt lat="49.61043" lon="5.0197">
        <ele>236.62</ele>
        <time>2019-07-09T07:36:50Z</time>
      </trkpt>
      <trkpt lat="49.61051" lon="5.01999">
        <ele>235.18</ele>
        <time>2019-07-09T07:37:09Z</time>
      </trkpt>
      <trkpt lat="49.6106" lon="5.02031">
        <ele>232.78</ele>
        <time>2019-07-09T07:37:29Z</time>
      </trkpt>
      <trkpt lat="49.61068" lon="5.02054">
        <ele>230.85</ele>
        <time>2019-07-09T07:37:45Z</time>
      </trkpt>
      <trkpt lat="49.61075" lon="5.0207">
        <ele>227.97</ele>
        <time>2019-07-09T07:37:57Z</time>
      </trkpt>
      <trkpt lat="49.61081" lon="5.02099">
        <ele>225.09</ele>
        <time>2019-07-09T07:38:13Z</time>
      </trkpt>
      <trkpt lat="49.61086" lon="5.0212">
        <ele>222.68</ele>
        <time>2019-07-09T07:38:30Z</time>
      </trkpt>
      <trkpt lat="49.61092" lon="5.02153">
        <ele>223.16</ele>
        <time>2019-07-09T07:38:47Z</time>
      </trkpt>
      <trkpt lat="49.61099" lon="5.02175">
        <ele>221.24</ele>
        <time>2019-07-09T07:39:04Z</time>
      </trkpt>
      <trkpt lat="49.61102" lon="5.02188">
        <ele>218.84</ele>
        <time>2019-07-09T07:39:22Z</time>
      </trkpt>
      <trkpt lat="49.61106" lon="5.02212">
        <ele>216.91</ele>
        <time>2019-07-09T07:39:38Z</time>
      </trkpt>
      <trkpt lat="49.61108" lon="5.02222">
        <ele>215.47</ele>
        <time>2019-07-09T07:39:54Z</time>
      </trkpt>
      <trkpt lat="49.61113" lon="5.02238">
        <ele>214.51</ele>
        <time>2019-07-09T07:40:07Z</time>
      </trkpt>
      <trkpt lat="49.6112" lon="5.02264">
        <ele>211.63</ele>
        <time>2019-07-09T07:40:24Z</time>
      </trkpt>
      <trkpt lat="49.61126" lon="5.02282">
        <ele>210.19</ele>
        <time>2019-07-09T07:40:39Z</time>
      </trkpt>
      <trkpt lat="49.61133" lon="5.02304">
        <ele>207.3</ele>
        <time>2019-07-09T07:40:56Z</time>
      </trkpt>
      <trkpt lat="49.61133" lon="5.02318">
        <ele>204.9</ele>
        <time>2019-07-09T07:41:06Z</time>
      </trkpt>
      <trkpt lat="49.6113" lon="5.02337">
        <ele>204.42</ele>
        <time>2019-07-09T07:41:22Z</time>
      </trkpt>
      <trkpt lat="49.61129" lon="5.02346">
        <ele>203.46</ele>
        <time>2019-07-09T07:41:34Z</time>
      </trkpt>
      <trkpt lat="49.61126" lon="5.02365">
        <ele>202.49</ele>
        <time>2019-07-09T07:41:46Z</time>
      </trkpt>
      <trkpt lat="49.61119" lon="5.02389">
        <ele>200.09</ele>
        <time>2019-07-09T07:42:04Z</time>
      </trkpt>
      <trkpt lat="49.61112" lon="5.02408">
        <ele>197.21</ele>
        <time>2019-07-09T07:42:19Z</time>
      </trkpt>
      <trkpt lat="49.61106" lon="5.02432">
        <ele>197.21</ele>
        <time>2019-07-09T07:42:38Z</time>
      </trkpt>
      <trkpt lat="49.61105" lon="5.02438">
        <ele>197.69</ele>
        <time>2019-07-09T07:42:42Z</time>
      </trkpt>
      <trkpt lat="49.61105" lon="5.02446">
        <ele>196.73</ele>
        <time>2019-07-09T07:42:49Z</time>
      </trkpt>
      <trkpt lat="49.61107" lon="5.02453">
        <ele>195.77</ele>
        <time>2019-07-09T07:42:54Z</time>
      </trkpt>
      <trkpt lat="49.61111" lon="5.02474">
        <ele>192.88</ele>
        <time>2019-07-09T07:43:11Z</time>
      </trkpt>
      <trkpt lat="49.61114" lon="5.02495">
        <ele>189.04</ele>
        <time>2019-07-09T07:43:28Z</time>
      </trkpt>
      <trkpt lat="49.61119" lon="5.02513">
        <ele>183.75</ele>
        <time>2019-07-09T07:43:43Z</time>
      </trkpt>
      <trkpt lat="49.6112" lon="5.02523">
        <ele>181.83</ele>
        <time>2019-07-09T07:43:51Z</time>
      </trkpt>
      <trkpt lat="49.61119" lon="5.02531">
        <ele>180.87</ele>
        <time>2019-07-09T07:43:57Z</time>
      </trkpt>
      <trkpt lat="49.61125" lon="5.02549">
        <ele>184.23</ele>
        <time>2019-07-09T07:44:12Z</time>
      </trkpt>
      <trkpt lat="49.61127" lon="5.02549">
        <ele>184.23</ele>
        <time>2019-07-09T07:44:14Z</time>
      </trkpt>
      <trkpt lat="49.61133" lon="5.02549">
        <ele>184.23</ele>
        <time>2019-07-09T07:44:19Z</time>
      </trkpt>
      <trkpt lat="49.6115" lon="5.0255">
        <ele>183.75</ele>
        <time>2019-07-09T07:44:36Z</time>
      </trkpt>
      <trkpt lat="49.61152" lon="5.0255">
        <ele>183.75</ele>
        <time>2019-07-09T07:44:38Z</time>
      </trkpt>
      <trkpt lat="49.61158" lon="5.02552">
        <ele>183.75</ele>
        <time>2019-07-09T07:44:42Z</time>
      </trkpt>
      <trkpt lat="49.61163" lon="5.02553">
        <ele>184.23</ele>
        <time>2019-07-09T07:44:46Z</time>
      </trkpt>
      <trkpt lat="49.61165" lon="5.02554">
        <ele>184.23</ele>
        <time>2019-07-09T07:44:48Z</time>
      </trkpt>
      <trkpt lat="49.61182" lon="5.02564">
        <ele>188.56</ele>
        <time>2019-07-09T07:45:04Z</time>
      </trkpt>
      <trkpt lat="49.61191" lon="5.02575">
        <ele>190.48</ele>
        <time>2019-07-09T07:45:19Z</time>
      </trkpt>
      <trkpt lat="49.61196" lon="5.02587">
        <ele>190.96</ele>
        <time>2019-07-09T07:45:29Z</time>
      </trkpt>
      <trkpt lat="49.61218" lon="5.0261">
        <ele>185.67</ele>
        <time>2019-07-09T07:45:46Z</time>
      </trkpt>
      <trkpt lat="49.61236" lon="5.02626">
        <ele>180.87</ele>
        <time>2019-07-09T07:46:02Z</time>
      </trkpt>
      <trkpt lat="49.61247" lon="5.02643">
        <ele>177.98</ele>
        <time>2019-07-09T07:46:17Z</time>
      </trkpt>
      <trkpt lat="49.6126" lon="5.0266">
        <ele>179.42</ele>
        <time>2019-07-09T07:46:33Z</time>
      </trkpt>
      <trkpt lat="49.61273" lon="5.02685">
        <ele>172.69</ele>
        <time>2019-07-09T07:46:53Z</time>
      </trkpt>
      <trkpt lat="49.61283" lon="5.02713">
        <ele>171.73</ele>
        <time>2019-07-09T07:47:11Z</time>
      </trkpt>
      <trkpt lat="49.61294" lon="5.02738">
        <ele>174.62</ele>
        <time>2019-07-09T07:47:27Z</time>
      </trkpt>
      <trkpt lat="49.61302" lon="5.02757">
        <ele>173.17</ele>
        <time>2019-07-09T07:47:42Z</time>
      </trkpt>
      <trkpt lat="49.61303" lon="5.02763">
        <ele>172.21</ele>
        <time>2019-07-09T07:47:46Z</time>
      </trkpt>
      <trkpt lat="49.61308" lon="5.02794">
        <ele>170.77</ele>
        <time>2019-07-09T07:48:04Z</time>
      </trkpt>
      <trkpt lat="49.61316" lon="5.02818">
        <ele>167.89</ele>
        <time>2019-07-09T07:48:22Z</time>
      </trkpt>
      <trkpt lat="49.61324" lon="5.02849">
        <ele>167.41</ele>
        <time>2019-07-09T07:48:39Z</time>
      </trkpt>
      <trkpt lat="49.61328" lon="5.02867">
        <ele>168.85</ele>
        <time>2019-07-09T07:48:49Z</time>
      </trkpt>
      <trkpt lat="49.61336" lon="5.02892">
        <ele>169.33</ele>
        <time>2019-07-09T07:49:07Z</time>
      </trkpt>
      <trkpt lat="49.61343" lon="5.02925">
        <ele>170.29</ele>
        <time>2019-07-09T07:49:24Z</time>
      </trkpt>
      <trkpt lat="49.61354" lon="5.02951">
        <ele>168.85</ele>
        <time>2019-07-09T07:49:44Z</time>
      </trkpt>
      <trkpt lat="49.61355" lon="5.02956">
        <ele>167.89</ele>
        <time>2019-07-09T07:49:47Z</time>
      </trkpt>
      <trkpt lat="49.6136" lon="5.02986">
        <ele>168.37</ele>
        <time>2019-07-09T07:50:03Z</time>
      </trkpt>
      <trkpt lat="49.61372" lon="5.03013">
        <ele>166.45</ele>
        <time>2019-07-09T07:50:23Z</time>
      </trkpt>
      <trkpt lat="49.61386" lon="5.03039">
        <ele>164.52</ele>
        <time>2019-07-09T07:50:42Z</time>
      </trkpt>
      <trkpt lat="49.61387" lon="5.03041">
        <ele>164.52</ele>
        <time>2019-07-09T07:50:43Z</time>
      </trkpt>
      <trkpt lat="49.61401" lon="5.03066">
        <ele>166.45</ele>
        <time>2019-07-09T07:51:01Z</time>
      </trkpt>
      <trkpt lat="49.61407" lon="5.03074">
        <ele>165.96</ele>
        <time>2019-07-09T07:51:07Z</time>
      </trkpt>
      <trkpt lat="49.61424" lon="5.03093">
        <ele>164.52</ele>
        <time>2019-07-09T07:51:25Z</time>
      </trkpt>
      <trkpt lat="49.61443" lon="5.03121">
        <ele>158.75</ele>
        <time>2019-07-09T07:51:47Z</time>
      </trkpt>
      <trkpt lat="49.61455" lon="5.0314">
        <ele>160.68</ele>
        <time>2019-07-09T07:52:02Z</time>
      </trkpt>
      <trkpt lat="49.61467" lon="5.03159">
        <ele>161.16</ele>
        <time>2019-07-09T07:52:21Z</time>
      </trkpt>
      <trkpt lat="49.61474" lon="5.0317">
        <ele>161.16</ele>
        <time>2019-07-09T07:52:29Z</time>
      </trkpt>
      <trkpt lat="49.6149" lon="5.03197">
        <ele>160.2</ele>
        <time>2019-07-09T07:52:47Z</time>
      </trkpt>
      <trkpt lat="49.61502" lon="5.03221">
        <ele>161.16</ele>
        <time>2019-07-09T07:53:03Z</time>
      </trkpt>
      <trkpt lat="49.61515" lon="5.03242">
        <ele>161.16</ele>
        <time>2019-07-09T07:53:21Z</time>
      </trkpt>
      <trkpt lat="49.6152" lon="5.03253">
        <ele>161.16</ele>
        <time>2019-07-09T07:53:32Z</time>
      </trkpt>
      <trkpt lat="49.61517" lon="5.03273">
        <ele>160.2</ele>
        <time>2019-07-09T07:53:48Z</time>
      </trkpt>
      <trkpt lat="49.61517" lon="5.03272">
        <ele>159.72</ele>
        <time>2019-07-09T07:54:09Z</time>
      </trkpt>
      <trkpt lat="49.61517" lon="5.03273">
        <ele>158.75</ele>
        <time>2019-07-09T07:54:37Z</time>
      </trkpt>
      <trkpt lat="49.61515" lon="5.03274">
        <ele>158.75</ele>
        <time>2019-07-09T07:54:40Z</time>
      </trkpt>
      <trkpt lat="49.61514" lon="5.03279">
        <ele>157.79</ele>
        <time>2019-07-09T07:54:54Z</time>
      </trkpt>
      <trkpt lat="49.61513" lon="5.0328">
        <ele>157.79</ele>
        <time>2019-07-09T07:55:29Z</time>
      </trkpt>
      <trkpt lat="49.61514" lon="5.03279">
        <ele>158.75</ele>
        <time>2019-07-09T07:55:47Z</time>
      </trkpt>
      <trkpt lat="49.61516" lon="5.03274">
        <ele>159.24</ele>
        <time>2019-07-09T07:56:05Z</time>
      </trkpt>
      <trkpt lat="49.61516" lon="5.03273">
        <ele>158.27</ele>
        <time>2019-07-09T07:56:29Z</time>
      </trkpt>
      <trkpt lat="49.61516" lon="5.03274">
        <ele>157.79</ele>
        <time>2019-07-09T07:56:52Z</time>
      </trkpt>
      <trkpt lat="49.61516" lon="5.03273">
        <ele>157.79</ele>
        <time>2019-07-09T07:57:20Z</time>
      </trkpt>
      <trkpt lat="49.61516" lon="5.03272">
        <ele>157.79</ele>
        <time>2019-07-09T07:57:39Z</time>
      </trkpt>
      <trkpt lat="49.61516" lon="5.03271">
        <ele>157.79</ele>
        <time>2019-07-09T07:57:40Z</time>
      </trkpt>
      <trkpt lat="49.61522" lon="5.03262">
        <ele>157.31</ele>
        <time>2019-07-09T07:57:51Z</time>
      </trkpt>
      <trkpt lat="49.61525" lon="5.0326">
        <ele>157.31</ele>
        <time>2019-07-09T07:57:54Z</time>
      </trkpt>
      <trkpt lat="49.61528" lon="5.0326">
        <ele>157.31</ele>
        <time>2019-07-09T07:57:57Z</time>
      </trkpt>
      <trkpt lat="49.61542" lon="5.03278">
        <ele>155.87</ele>
        <time>2019-07-09T07:58:13Z</time>
      </trkpt>
      <trkpt lat="49.61555" lon="5.03291">
        <ele>156.35</ele>
        <time>2019-07-09T07:58:30Z</time>
      </trkpt>
      <trkpt lat="49.61566" lon="5.03271">
        <ele>156.83</ele>
        <time>2019-07-09T07:58:47Z</time>
      </trkpt>
      <trkpt lat="49.61583" lon="5.03245">
        <ele>154.91</ele>
        <time>2019-07-09T07:59:08Z</time>
      </trkpt>
      <trkpt lat="49.61596" lon="5.03226">
        <ele>153.95</ele>
        <time>2019-07-09T07:59:25Z</time>
      </trkpt>
      <trkpt lat="49.61603" lon="5.03216">
        <ele>152.99</ele>
        <time>2019-07-09T07:59:34Z</time>
      </trkpt>
      <trkpt lat="49.6162" lon="5.03193">
        <ele>155.39</ele>
        <time>2019-07-09T07:59:53Z</time>
      </trkpt>
      <trkpt lat="49.61639" lon="5.03167">
        <ele>155.39</ele>
        <time>2019-07-09T08:00:13Z</time>
      </trkpt>
      <trkpt lat="49.61658" lon="5.03145">
        <ele>156.35</ele>
        <time>2019-07-09T08:00:33Z</time>
      </trkpt>
      <trkpt lat="49.61676" lon="5.03129">
        <ele>155.39</ele>
        <time>2019-07-09T08:00:51Z</time>
      </trkpt>
      <trkpt lat="49.61695" lon="5.03119">
        <ele>155.39</ele>
        <time>2019-07-09T08:01:08Z</time>
      </trkpt>
      <trkpt lat="49.61709" lon="5.03107">
        <ele>156.83</ele>
        <time>2019-07-09T08:01:24Z</time>
      </trkpt>
      <trkpt lat="49.6173" lon="5.03093">
        <ele>156.35</ele>
        <time>2019-07-09T08:01:43Z</time>
      </trkpt>
      <trkpt lat="49.61747" lon="5.03081">
        <ele>156.83</ele>
        <time>2019-07-09T08:02:00Z</time>
      </trkpt>
      <trkpt lat="49.61764" lon="5.03071">
        <ele>157.31</ele>
        <time>2019-07-09T08:02:17Z</time>
      </trkpt>
      <trkpt lat="49.61783" lon="5.0306">
        <ele>158.27</ele>
        <time>2019-07-09T08:02:34Z</time>
      </trkpt>
      <trkpt lat="49.61798" lon="5.03053">
        <ele>158.27</ele>
        <time>2019-07-09T08:02:49Z</time>
      </trkpt>
      <trkpt lat="49.61815" lon="5.03047">
        <ele>159.24</ele>
        <time>2019-07-09T08:03:05Z</time>
      </trkpt>
      <trkpt lat="49.61833" lon="5.0304">
        <ele>159.72</ele>
        <time>2019-07-09T08:03:22Z</time>
      </trkpt>
      <trkpt lat="49.61851" lon="5.03032">
        <ele>158.75</ele>
        <time>2019-07-09T08:03:39Z</time>
      </trkpt>
      <trkpt lat="49.61868" lon="5.03028">
        <ele>156.35</ele>
        <time>2019-07-09T08:03:54Z</time>
      </trkpt>
      <trkpt lat="49.61885" lon="5.03024">
        <ele>153.95</ele>
        <time>2019-07-09T08:04:09Z</time>
      </trkpt>
      <trkpt lat="49.619" lon="5.03013">
        <ele>153.95</ele>
        <time>2019-07-09T08:04:23Z</time>
      </trkpt>
      <trkpt lat="49.61916" lon="5.02993">
        <ele>154.43</ele>
        <time>2019-07-09T08:04:41Z</time>
      </trkpt>
      <trkpt lat="49.61932" lon="5.0298">
        <ele>154.43</ele>
        <time>2019-07-09T08:04:57Z</time>
      </trkpt>
      <trkpt lat="49.61954" lon="5.0297">
        <ele>154.43</ele>
        <time>2019-07-09T08:05:15Z</time>
      </trkpt>
      <trkpt lat="49.61976" lon="5.02967">
        <ele>153.47</ele>
        <time>2019-07-09T08:05:34Z</time>
      </trkpt>
      <trkpt lat="49.61998" lon="5.02969">
        <ele>154.43</ele>
        <time>2019-07-09T08:05:52Z</time>
      </trkpt>
      <trkpt lat="49.62016" lon="5.02971">
        <ele>153.95</ele>
        <time>2019-07-09T08:06:09Z</time>
      </trkpt>
      <trkpt lat="49.62037" lon="5.02971">
        <ele>155.87</ele>
        <time>2019-07-09T08:06:27Z</time>
      </trkpt>
      <trkpt lat="49.62056" lon="5.02972">
        <ele>157.31</ele>
        <time>2019-07-09T08:06:44Z</time>
      </trkpt>
      <trkpt lat="49.62079" lon="5.02971">
        <ele>155.87</ele>
        <time>2019-07-09T08:07:03Z</time>
      </trkpt>
      <trkpt lat="49.62102" lon="5.02969">
        <ele>154.43</ele>
        <time>2019-07-09T08:07:21Z</time>
      </trkpt>
      <trkpt lat="49.6212" lon="5.02967">
        <ele>154.43</ele>
        <time>2019-07-09T08:07:40Z</time>
      </trkpt>
      <trkpt lat="49.62135" lon="5.02963">
        <ele>153.47</ele>
        <time>2019-07-09T08:07:55Z</time>
      </trkpt>
      <trkpt lat="49.62156" lon="5.02958">
        <ele>152.99</ele>
        <time>2019-07-09T08:08:11Z</time>
      </trkpt>
      <trkpt lat="49.62181" lon="5.02952">
        <ele>154.91</ele>
        <time>2019-07-09T08:08:32Z</time>
      </trkpt>
      <trkpt lat="49.62199" lon="5.02945">
        <ele>155.39</ele>
        <time>2019-07-09T08:08:49Z</time>
      </trkpt>
      <trkpt lat="49.62217" lon="5.02939">
        <ele>154.91</ele>
        <time>2019-07-09T08:09:06Z</time>
      </trkpt>
      <trkpt lat="49.6224" lon="5.02935">
        <ele>154.91</ele>
        <time>2019-07-09T08:09:22Z</time>
      </trkpt>
      <trkpt lat="49.62262" lon="5.02931">
        <ele>155.39</ele>
        <time>2019-07-09T08:09:41Z</time>
      </trkpt>
      <trkpt lat="49.62278" lon="5.02932">
        <ele>153.47</ele>
        <time>2019-07-09T08:09:57Z</time>
      </trkpt>
      <trkpt lat="49.62297" lon="5.02934">
        <ele>152.99</ele>
        <time>2019-07-09T08:10:13Z</time>
      </trkpt>
      <trkpt lat="49.62318" lon="5.02935">
        <ele>151.54</ele>
        <time>2019-07-09T08:10:29Z</time>
      </trkpt>
      <trkpt lat="49.62334" lon="5.02937">
        <ele>152.03</ele>
        <time>2019-07-09T08:10:45Z</time>
      </trkpt>
      <trkpt lat="49.62351" lon="5.02931">
        <ele>152.99</ele>
        <time>2019-07-09T08:11:01Z</time>
      </trkpt>
      <trkpt lat="49.6237" lon="5.02923">
        <ele>152.99</ele>
        <time>2019-07-09T08:11:19Z</time>
      </trkpt>
      <trkpt lat="49.62376" lon="5.02921">
        <ele>152.99</ele>
        <time>2019-07-09T08:11:24Z</time>
      </trkpt>
      <trkpt lat="49.62382" lon="5.02921">
        <ele>153.47</ele>
        <time>2019-07-09T08:11:28Z</time>
      </trkpt>
      <trkpt lat="49.62397" lon="5.02909">
        <ele>154.91</ele>
        <time>2019-07-09T08:11:46Z</time>
      </trkpt>
      <trkpt lat="49.62404" lon="5.02904">
        <ele>155.39</ele>
        <time>2019-07-09T08:11:57Z</time>
      </trkpt>
      <trkpt lat="49.62408" lon="5.02896">
        <ele>155.39</ele>
        <time>2019-07-09T08:12:04Z</time>
      </trkpt>
      <trkpt lat="49.62408" lon="5.02888">
        <ele>155.39</ele>
        <time>2019-07-09T08:12:09Z</time>
      </trkpt>
      <trkpt lat="49.62409" lon="5.0288">
        <ele>155.39</ele>
        <time>2019-07-09T08:12:13Z</time>
      </trkpt>
      <trkpt lat="49.62409" lon="5.0285">
        <ele>155.39</ele>
        <time>2019-07-09T08:12:29Z</time>
      </trkpt>
      <trkpt lat="49.62414" lon="5.02815">
        <ele>155.87</ele>
        <time>2019-07-09T08:12:49Z</time>
      </trkpt>
      <trkpt lat="49.62414" lon="5.0278">
        <ele>157.31</ele>
        <time>2019-07-09T08:13:09Z</time>
      </trkpt>
      <trkpt lat="49.62412" lon="5.02748">
        <ele>157.31</ele>
        <time>2019-07-09T08:13:27Z</time>
      </trkpt>
      <trkpt lat="49.62409" lon="5.02715">
        <ele>155.39</ele>
        <time>2019-07-09T08:13:47Z</time>
      </trkpt>
      <trkpt lat="49.62406" lon="5.02678">
        <ele>155.39</ele>
        <time>2019-07-09T08:14:06Z</time>
      </trkpt>
      <trkpt lat="49.62407" lon="5.02644">
        <ele>156.35</ele>
        <time>2019-07-09T08:14:27Z</time>
      </trkpt>
      <trkpt lat="49.62402" lon="5.0262">
        <ele>155.87</ele>
        <time>2019-07-09T08:14:42Z</time>
      </trkpt>
      <trkpt lat="49.62401" lon="5.02586">
        <ele>156.83</ele>
        <time>2019-07-09T08:14:59Z</time>
      </trkpt>
      <trkpt lat="49.62398" lon="5.02566">
        <ele>158.27</ele>
        <time>2019-07-09T08:15:13Z</time>
      </trkpt>
      <trkpt lat="49.62398" lon="5.02551">
        <ele>158.27</ele>
        <time>2019-07-09T08:15:20Z</time>
      </trkpt>
      <trkpt lat="49.62396" lon="5.02521">
        <ele>160.2</ele>
        <time>2019-07-09T08:15:38Z</time>
      </trkpt>
      <trkpt lat="49.62396" lon="5.02483">
        <ele>161.64</ele>
        <time>2019-07-09T08:15:57Z</time>
      </trkpt>
      <trkpt lat="49.62393" lon="5.02453">
        <ele>160.68</ele>
        <time>2019-07-09T08:16:16Z</time>
      </trkpt>
      <trkpt lat="49.62394" lon="5.02448">
        <ele>160.68</ele>
        <time>2019-07-09T08:16:19Z</time>
      </trkpt>
      <trkpt lat="49.62393" lon="5.0244">
        <ele>160.68</ele>
        <time>2019-07-09T08:16:23Z</time>
      </trkpt>
      <trkpt lat="49.62391" lon="5.02412">
        <ele>162.6</ele>
        <time>2019-07-09T08:16:41Z</time>
      </trkpt>
      <trkpt lat="49.62391" lon="5.02376">
        <ele>163.08</ele>
        <time>2019-07-09T08:17:00Z</time>
      </trkpt>
      <trkpt lat="49.62389" lon="5.02353">
        <ele>163.08</ele>
        <time>2019-07-09T08:17:16Z</time>
      </trkpt>
      <trkpt lat="49.6239" lon="5.02314">
        <ele>164.04</ele>
        <time>2019-07-09T08:17:36Z</time>
      </trkpt>
      <trkpt lat="49.6239" lon="5.02286">
        <ele>164.04</ele>
        <time>2019-07-09T08:17:54Z</time>
      </trkpt>
      <trkpt lat="49.62392" lon="5.02262">
        <ele>166.45</ele>
        <time>2019-07-09T08:18:09Z</time>
      </trkpt>
      <trkpt lat="49.62395" lon="5.02225">
        <ele>167.89</ele>
        <time>2019-07-09T08:18:29Z</time>
      </trkpt>
      <trkpt lat="49.62398" lon="5.02196">
        <ele>167.41</ele>
        <time>2019-07-09T08:18:47Z</time>
      </trkpt>
      <trkpt lat="49.62399" lon="5.02167">
        <ele>168.85</ele>
        <time>2019-07-09T08:19:03Z</time>
      </trkpt>
      <trkpt lat="49.62398" lon="5.02143">
        <ele>170.77</ele>
        <time>2019-07-09T08:19:19Z</time>
      </trkpt>
      <trkpt lat="49.62401" lon="5.02119">
        <ele>172.69</ele>
        <time>2019-07-09T08:19:34Z</time>
      </trkpt>
      <trkpt lat="49.62403" lon="5.02105">
        <ele>173.17</ele>
        <time>2019-07-09T08:19:48Z</time>
      </trkpt>
      <trkpt lat="49.62404" lon="5.02104">
        <ele>175.58</ele>
        <time>2019-07-09T08:20:03Z</time>
      </trkpt>
      <trkpt lat="49.62404" lon="5.02104">
        <ele>175.58</ele>
        <time>2019-07-09T08:20:06Z</time>
      </trkpt>
      <trkpt lat="49.62414" lon="5.02089">
        <ele>176.54</ele>
        <time>2019-07-09T08:20:20Z</time>
      </trkpt>
      <trkpt lat="49.6243" lon="5.02078">
        <ele>178.46</ele>
        <time>2019-07-09T08:20:35Z</time>
      </trkpt>
      <trkpt lat="49.62443" lon="5.02071">
        <ele>179.9</ele>
        <time>2019-07-09T08:20:49Z</time>
      </trkpt>
      <trkpt lat="49.62458" lon="5.02064">
        <ele>180.38</ele>
        <time>2019-07-09T08:21:03Z</time>
      </trkpt>
      <trkpt lat="49.62472" lon="5.02057">
        <ele>181.35</ele>
        <time>2019-07-09T08:21:17Z</time>
      </trkpt>
      <trkpt lat="49.62487" lon="5.02051">
        <ele>181.83</ele>
        <time>2019-07-09T08:21:31Z</time>
      </trkpt>
      <trkpt lat="49.62502" lon="5.02048">
        <ele>182.79</ele>
        <time>2019-07-09T08:21:46Z</time>
      </trkpt>
      <trkpt lat="49.62516" lon="5.02052">
        <ele>184.71</ele>
        <time>2019-07-09T08:22:00Z</time>
      </trkpt>
      <trkpt lat="49.62531" lon="5.02057">
        <ele>185.19</ele>
        <time>2019-07-09T08:22:14Z</time>
      </trkpt>
      <trkpt lat="49.62549" lon="5.02064">
        <ele>185.19</ele>
        <time>2019-07-09T08:22:30Z</time>
      </trkpt>
      <trkpt lat="49.62562" lon="5.0207">
        <ele>185.67</ele>
        <time>2019-07-09T08:22:44Z</time>
      </trkpt>
      <trkpt lat="49.62576" lon="5.02077">
        <ele>187.11</ele>
        <time>2019-07-09T08:22:57Z</time>
      </trkpt>
      <trkpt lat="49.6259" lon="5.02082">
        <ele>188.08</ele>
        <time>2019-07-09T08:23:11Z</time>
      </trkpt>
      <trkpt lat="49.62605" lon="5.02079">
        <ele>188.56</ele>
        <time>2019-07-09T08:23:26Z</time>
      </trkpt>
      <trkpt lat="49.62615" lon="5.02062">
        <ele>189.52</ele>
        <time>2019-07-09T08:23:40Z</time>
      </trkpt>
      <trkpt lat="49.6262" lon="5.0204">
        <ele>191.44</ele>
        <time>2019-07-09T08:23:54Z</time>
      </trkpt>
      <trkpt lat="49.62625" lon="5.02018">
        <ele>191.92</ele>
        <time>2019-07-09T08:24:07Z</time>
      </trkpt>
      <trkpt lat="49.6263" lon="5.01996">
        <ele>192.88</ele>
        <time>2019-07-09T08:24:22Z</time>
      </trkpt>
      <trkpt lat="49.62632" lon="5.01988">
        <ele>193.84</ele>
        <time>2019-07-09T08:24:28Z</time>
      </trkpt>
      <trkpt lat="49.62639" lon="5.01964">
        <ele>195.77</ele>
        <time>2019-07-09T08:24:44Z</time>
      </trkpt>
      <trkpt lat="49.62645" lon="5.01946">
        <ele>198.17</ele>
        <time>2019-07-09T08:24:58Z</time>
      </trkpt>
      <trkpt lat="49.62655" lon="5.01922">
        <ele>200.57</ele>
        <time>2019-07-09T08:25:14Z</time>
      </trkpt>
      <trkpt lat="49.6266" lon="5.01903">
        <ele>202.01</ele>
        <time>2019-07-09T08:25:28Z</time>
      </trkpt>
      <trkpt lat="49.62667" lon="5.01882">
        <ele>203.46</ele>
        <time>2019-07-09T08:25:42Z</time>
      </trkpt>
      <trkpt lat="49.62677" lon="5.01859">
        <ele>204.9</ele>
        <time>2019-07-09T08:25:57Z</time>
      </trkpt>
      <trkpt lat="49.62686" lon="5.01837">
        <ele>207.3</ele>
        <time>2019-07-09T08:26:12Z</time>
      </trkpt>
      <trkpt lat="49.62696" lon="5.01814">
        <ele>209.22</ele>
        <time>2019-07-09T08:26:28Z</time>
      </trkpt>
      <trkpt lat="49.62706" lon="5.01795">
        <ele>210.19</ele>
        <time>2019-07-09T08:26:43Z</time>
      </trkpt>
      <trkpt lat="49.62716" lon="5.01779">
        <ele>211.15</ele>
        <time>2019-07-09T08:26:58Z</time>
      </trkpt>
      <trkpt lat="49.62728" lon="5.01766">
        <ele>212.11</ele>
        <time>2019-07-09T08:27:12Z</time>
      </trkpt>
      <trkpt lat="49.6274" lon="5.01754">
        <ele>214.03</ele>
        <time>2019-07-09T08:27:26Z</time>
      </trkpt>
      <trkpt lat="49.62751" lon="5.01741">
        <ele>216.43</ele>
        <time>2019-07-09T08:27:40Z</time>
      </trkpt>
      <trkpt lat="49.62763" lon="5.01728">
        <ele>218.84</ele>
        <time>2019-07-09T08:27:55Z</time>
      </trkpt>
      <trkpt lat="49.62774" lon="5.01716">
        <ele>220.76</ele>
        <time>2019-07-09T08:28:09Z</time>
      </trkpt>
      <trkpt lat="49.62787" lon="5.01702">
        <ele>223.16</ele>
        <time>2019-07-09T08:28:24Z</time>
      </trkpt>
      <trkpt lat="49.62798" lon="5.01689">
        <ele>226.05</ele>
        <time>2019-07-09T08:28:39Z</time>
      </trkpt>
      <trkpt lat="49.62812" lon="5.01674">
        <ele>228.93</ele>
        <time>2019-07-09T08:28:55Z</time>
      </trkpt>
      <trkpt lat="49.62823" lon="5.0166">
        <ele>230.37</ele>
        <time>2019-07-09T08:29:09Z</time>
      </trkpt>
      <trkpt lat="49.62831" lon="5.01642">
        <ele>232.78</ele>
        <time>2019-07-09T08:29:24Z</time>
      </trkpt>
      <trkpt lat="49.6284" lon="5.01622">
        <ele>234.22</ele>
        <time>2019-07-09T08:29:38Z</time>
      </trkpt>
      <trkpt lat="49.62846" lon="5.01602">
        <ele>236.14</ele>
        <time>2019-07-09T08:29:51Z</time>
      </trkpt>
      <trkpt lat="49.62853" lon="5.01579">
        <ele>237.58</ele>
        <time>2019-07-09T08:30:06Z</time>
      </trkpt>
      <trkpt lat="49.62858" lon="5.0156">
        <ele>238.54</ele>
        <time>2019-07-09T08:30:19Z</time>
      </trkpt>
      <trkpt lat="49.62867" lon="5.01542">
        <ele>239.99</ele>
        <time>2019-07-09T08:30:33Z</time>
      </trkpt>
      <trkpt lat="49.62867" lon="5.01539">
        <ele>240.47</ele>
        <time>2019-07-09T08:30:36Z</time>
      </trkpt>
      <trkpt lat="49.62875" lon="5.01515">
        <ele>243.83</ele>
        <time>2019-07-09T08:30:51Z</time>
      </trkpt>
      <trkpt lat="49.62877" lon="5.01509">
        <ele>244.79</ele>
        <time>2019-07-09T08:30:56Z</time>
      </trkpt>
      <trkpt lat="49.62884" lon="5.01488">
        <ele>246.72</ele>
        <time>2019-07-09T08:31:10Z</time>
      </trkpt>
      <trkpt lat="49.62889" lon="5.01467">
        <ele>246.72</ele>
        <time>2019-07-09T08:31:24Z</time>
      </trkpt>
      <trkpt lat="49.62894" lon="5.01444">
        <ele>247.2</ele>
        <time>2019-07-09T08:31:38Z</time>
      </trkpt>
      <trkpt lat="49.62899" lon="5.01421">
        <ele>248.16</ele>
        <time>2019-07-09T08:31:52Z</time>
      </trkpt>
      <trkpt lat="49.62903" lon="5.01393">
        <ele>247.68</ele>
        <time>2019-07-09T08:32:09Z</time>
      </trkpt>
      <trkpt lat="49.62908" lon="5.01366">
        <ele>246.72</ele>
        <time>2019-07-09T08:32:24Z</time>
      </trkpt>
      <trkpt lat="49.62913" lon="5.0134">
        <ele>247.68</ele>
        <time>2019-07-09T08:32:40Z</time>
      </trkpt>
      <trkpt lat="49.62917" lon="5.01311">
        <ele>248.64</ele>
        <time>2019-07-09T08:32:58Z</time>
      </trkpt>
      <trkpt lat="49.62919" lon="5.01287">
        <ele>250.08</ele>
        <time>2019-07-09T08:33:13Z</time>
      </trkpt>
      <trkpt lat="49.6292" lon="5.0126">
        <ele>251.52</ele>
        <time>2019-07-09T08:33:28Z</time>
      </trkpt>
      <trkpt lat="49.62922" lon="5.01235">
        <ele>252.48</ele>
        <time>2019-07-09T08:33:42Z</time>
      </trkpt>
      <trkpt lat="49.62922" lon="5.01209">
        <ele>254.41</ele>
        <time>2019-07-09T08:33:57Z</time>
      </trkpt>
      <trkpt lat="49.62923" lon="5.01178">
        <ele>255.37</ele>
        <time>2019-07-09T08:34:15Z</time>
      </trkpt>
      <trkpt lat="49.62925" lon="5.0115">
        <ele>253.44</ele>
        <time>2019-07-09T08:34:32Z</time>
      </trkpt>
      <trkpt lat="49.62929" lon="5.01123">
        <ele>252.48</ele>
        <time>2019-07-09T08:34:48Z</time>
      </trkpt>
      <trkpt lat="49.62935" lon="5.01094">
        <ele>252.48</ele>
        <time>2019-07-09T08:35:06Z</time>
      </trkpt>
      <trkpt lat="49.62939" lon="5.0107">
        <ele>252.96</ele>
        <time>2019-07-09T08:35:21Z</time>
      </trkpt>
      <trkpt lat="49.62945" lon="5.01043">
        <ele>253.44</ele>
        <time>2019-07-09T08:35:38Z</time>
      </trkpt>
      <trkpt lat="49.6295" lon="5.01014">
        <ele>253.93</ele>
        <time>2019-07-09T08:35:54Z</time>
      </trkpt>
      <trkpt lat="49.62954" lon="5.00989">
        <ele>253.44</ele>
        <time>2019-07-09T08:36:10Z</time>
      </trkpt>
      <trkpt lat="49.62956" lon="5.00965">
        <ele>252.96</ele>
        <time>2019-07-09T08:36:25Z</time>
      </trkpt>
      <trkpt lat="49.62959" lon="5.0094">
        <ele>252.48</ele>
        <time>2019-07-09T08:36:40Z</time>
      </trkpt>
      <trkpt lat="49.62962" lon="5.00913">
        <ele>252.96</ele>
        <time>2019-07-09T08:36:57Z</time>
      </trkpt>
      <trkpt lat="49.62963" lon="5.00886">
        <ele>252.48</ele>
        <time>2019-07-09T08:37:13Z</time>
      </trkpt>
      <trkpt lat="49.62964" lon="5.00864">
        <ele>251.52</ele>
        <time>2019-07-09T08:37:27Z</time>
      </trkpt>
      <trkpt lat="49.62967" lon="5.00838">
        <ele>253.44</ele>
        <time>2019-07-09T08:37:44Z</time>
      </trkpt>
      <trkpt lat="49.62969" lon="5.00814">
        <ele>253.93</ele>
        <time>2019-07-09T08:37:59Z</time>
      </trkpt>
      <trkpt lat="49.62971" lon="5.0079">
        <ele>253.44</ele>
        <time>2019-07-09T08:38:13Z</time>
      </trkpt>
      <trkpt lat="49.62972" lon="5.00778">
        <ele>253.44</ele>
        <time>2019-07-09T08:38:21Z</time>
      </trkpt>
      <trkpt lat="49.62974" lon="5.00754">
        <ele>252.96</ele>
        <time>2019-07-09T08:38:36Z</time>
      </trkpt>
      <trkpt lat="49.62976" lon="5.00732">
        <ele>254.89</ele>
        <time>2019-07-09T08:38:51Z</time>
      </trkpt>
      <trkpt lat="49.62978" lon="5.00708">
        <ele>254.89</ele>
        <time>2019-07-09T08:39:07Z</time>
      </trkpt>
      <trkpt lat="49.62981" lon="5.00687">
        <ele>254.41</ele>
        <time>2019-07-09T08:39:20Z</time>
      </trkpt>
      <trkpt lat="49.62983" lon="5.00665">
        <ele>254.89</ele>
        <time>2019-07-09T08:39:34Z</time>
      </trkpt>
      <trkpt lat="49.62981" lon="5.00646">
        <ele>255.37</ele>
        <time>2019-07-09T08:39:48Z</time>
      </trkpt>
      <trkpt lat="49.62977" lon="5.00631">
        <ele>255.37</ele>
        <time>2019-07-09T08:40:00Z</time>
      </trkpt>
      <trkpt lat="49.62971" lon="5.00615">
        <ele>255.37</ele>
        <time>2019-07-09T08:40:13Z</time>
      </trkpt>
      <trkpt lat="49.62967" lon="5.00596">
        <ele>254.41</ele>
        <time>2019-07-09T08:40:28Z</time>
      </trkpt>
      <trkpt lat="49.62958" lon="5.00577">
        <ele>254.89</ele>
        <time>2019-07-09T08:40:42Z</time>
      </trkpt>
      <trkpt lat="49.62955" lon="5.00567">
        <ele>254.41</ele>
        <time>2019-07-09T08:40:54Z</time>
      </trkpt>
      <trkpt lat="49.62952" lon="5.00555">
        <ele>254.41</ele>
        <time>2019-07-09T08:41:06Z</time>
      </trkpt>
      <trkpt lat="49.62951" lon="5.00552">
        <ele>254.89</ele>
        <time>2019-07-09T08:41:11Z</time>
      </trkpt>
      <trkpt lat="49.62954" lon="5.00546">
        <ele>255.37</ele>
        <time>2019-07-09T08:41:23Z</time>
      </trkpt>
      <trkpt lat="49.62955" lon="5.00546">
        <ele>255.37</ele>
        <time>2019-07-09T08:41:28Z</time>
      </trkpt>
      <trkpt lat="49.62957" lon="5.0055">
        <ele>255.85</ele>
        <time>2019-07-09T08:41:33Z</time>
      </trkpt>
      <trkpt lat="49.62961" lon="5.0056">
        <ele>257.77</ele>
        <time>2019-07-09T08:41:41Z</time>
      </trkpt>
      <trkpt lat="49.62971" lon="5.00575">
        <ele>259.69</ele>
        <time>2019-07-09T08:41:55Z</time>
      </trkpt>
      <trkpt lat="49.62981" lon="5.00585">
        <ele>262.1</ele>
        <time>2019-07-09T08:42:08Z</time>
      </trkpt>
      <trkpt lat="49.62991" lon="5.00597">
        <ele>262.58</ele>
        <time>2019-07-09T08:42:22Z</time>
      </trkpt>
      <trkpt lat="49.62992" lon="5.00599">
        <ele>262.58</ele>
        <time>2019-07-09T08:42:24Z</time>
      </trkpt>
      <trkpt lat="49.63002" lon="5.00613">
        <ele>263.06</ele>
        <time>2019-07-09T08:42:37Z</time>
      </trkpt>
      <trkpt lat="49.63012" lon="5.00624">
        <ele>264.5</ele>
        <time>2019-07-09T08:42:52Z</time>
      </trkpt>
      <trkpt lat="49.63016" lon="5.00624">
        <ele>263.54</ele>
        <time>2019-07-09T08:42:57Z</time>
      </trkpt>
      <trkpt lat="49.63025" lon="5.00635">
        <ele>261.14</ele>
        <time>2019-07-09T08:43:10Z</time>
      </trkpt>
      <trkpt lat="49.6303" lon="5.00643">
        <ele>261.14</ele>
        <time>2019-07-09T08:43:18Z</time>
      </trkpt>
      <trkpt lat="49.6304" lon="5.00656">
        <ele>261.14</ele>
        <time>2019-07-09T08:43:32Z</time>
      </trkpt>
      <trkpt lat="49.63045" lon="5.00673">
        <ele>260.17</ele>
        <time>2019-07-09T08:43:46Z</time>
      </trkpt>
      <trkpt lat="49.6305" lon="5.0069">
        <ele>260.65</ele>
        <time>2019-07-09T08:44:00Z</time>
      </trkpt>
      <trkpt lat="49.63056" lon="5.00708">
        <ele>261.14</ele>
        <time>2019-07-09T08:44:15Z</time>
      </trkpt>
      <trkpt lat="49.63062" lon="5.00727">
        <ele>262.58</ele>
        <time>2019-07-09T08:44:31Z</time>
      </trkpt>
      <trkpt lat="49.63067" lon="5.00737">
        <ele>261.62</ele>
        <time>2019-07-09T08:44:44Z</time>
      </trkpt>
      <trkpt lat="49.63069" lon="5.00745">
        <ele>261.62</ele>
        <time>2019-07-09T08:44:57Z</time>
      </trkpt>
      <trkpt lat="49.63077" lon="5.0076">
        <ele>261.14</ele>
        <time>2019-07-09T08:45:17Z</time>
      </trkpt>
      <trkpt lat="49.63088" lon="5.00789">
        <ele>260.17</ele>
        <time>2019-07-09T08:45:37Z</time>
      </trkpt>
      <trkpt lat="49.63094" lon="5.00807">
        <ele>259.21</ele>
        <time>2019-07-09T08:45:50Z</time>
      </trkpt>
      <trkpt lat="49.63097" lon="5.00825">
        <ele>260.65</ele>
        <time>2019-07-09T08:46:06Z</time>
      </trkpt>
      <trkpt lat="49.63104" lon="5.00847">
        <ele>261.14</ele>
        <time>2019-07-09T08:46:23Z</time>
      </trkpt>
      <trkpt lat="49.63115" lon="5.00869">
        <ele>258.25</ele>
        <time>2019-07-09T08:46:40Z</time>
      </trkpt>
      <trkpt lat="49.63125" lon="5.00881">
        <ele>253.44</ele>
        <time>2019-07-09T08:46:56Z</time>
      </trkpt>
      <trkpt lat="49.63125" lon="5.00891">
        <ele>251.52</ele>
        <time>2019-07-09T08:47:05Z</time>
      </trkpt>
      <trkpt lat="49.63126" lon="5.00902">
        <ele>251.52</ele>
        <time>2019-07-09T08:47:19Z</time>
      </trkpt>
      <trkpt lat="49.63127" lon="5.00902">
        <ele>251.52</ele>
        <time>2019-07-09T08:47:20Z</time>
      </trkpt>
      <trkpt lat="49.63129" lon="5.00906">
        <ele>251.52</ele>
        <time>2019-07-09T08:47:23Z</time>
      </trkpt>
      <trkpt lat="49.63143" lon="5.00924">
        <ele>247.2</ele>
        <time>2019-07-09T08:47:42Z</time>
      </trkpt>
      <trkpt lat="49.63148" lon="5.00929">
        <ele>243.83</ele>
        <time>2019-07-09T08:47:49Z</time>
      </trkpt>
      <trkpt lat="49.63157" lon="5.00943">
        <ele>242.39</ele>
        <time>2019-07-09T08:48:04Z</time>
      </trkpt>
      <trkpt lat="49.63165" lon="5.00955">
        <ele>240.47</ele>
        <time>2019-07-09T08:48:19Z</time>
      </trkpt>
      <trkpt lat="49.63168" lon="5.00958">
        <ele>239.51</ele>
        <time>2019-07-09T08:48:22Z</time>
      </trkpt>
      <trkpt lat="49.63182" lon="5.00975">
        <ele>237.58</ele>
        <time>2019-07-09T08:48:39Z</time>
      </trkpt>
      <trkpt lat="49.6319" lon="5.00983">
        <ele>235.18</ele>
        <time>2019-07-09T08:48:53Z</time>
      </trkpt>
      <trkpt lat="49.63195" lon="5.00986">
        <ele>232.78</ele>
        <time>2019-07-09T08:49:06Z</time>
      </trkpt>
      <trkpt lat="49.63211" lon="5.01">
        <ele>231.81</ele>
        <time>2019-07-09T08:49:25Z</time>
      </trkpt>
      <trkpt lat="49.63223" lon="5.01007">
        <ele>228.45</ele>
        <time>2019-07-09T08:49:39Z</time>
      </trkpt>
      <trkpt lat="49.63228" lon="5.01009">
        <ele>227.01</ele>
        <time>2019-07-09T08:49:44Z</time>
      </trkpt>
      <trkpt lat="49.63236" lon="5.01011">
        <ele>226.05</ele>
        <time>2019-07-09T08:49:53Z</time>
      </trkpt>
      <trkpt lat="49.63248" lon="5.01014">
        <ele>224.12</ele>
        <time>2019-07-09T08:50:07Z</time>
      </trkpt>
      <trkpt lat="49.63249" lon="5.01015">
        <ele>223.64</ele>
        <time>2019-07-09T08:50:09Z</time>
      </trkpt>
      <trkpt lat="49.63267" lon="5.01025">
        <ele>221.72</ele>
        <time>2019-07-09T08:50:28Z</time>
      </trkpt>
      <trkpt lat="49.6328" lon="5.01031">
        <ele>219.32</ele>
        <time>2019-07-09T08:50:45Z</time>
      </trkpt>
      <trkpt lat="49.63294" lon="5.01039">
        <ele>219.32</ele>
        <time>2019-07-09T08:51:02Z</time>
      </trkpt>
      <trkpt lat="49.63304" lon="5.01045">
        <ele>218.36</ele>
        <time>2019-07-09T08:51:15Z</time>
      </trkpt>
      <trkpt lat="49.63317" lon="5.01049">
        <ele>218.36</ele>
        <time>2019-07-09T08:51:31Z</time>
      </trkpt>
      <trkpt lat="49.63318" lon="5.0105">
        <ele>217.88</ele>
        <time>2019-07-09T08:51:33Z</time>
      </trkpt>
      <trkpt lat="49.63337" lon="5.01061">
        <ele>214.99</ele>
        <time>2019-07-09T08:51:50Z</time>
      </trkpt>
      <trkpt lat="49.6335" lon="5.01067">
        <ele>213.07</ele>
        <time>2019-07-09T08:52:06Z</time>
      </trkpt>
      <trkpt lat="49.63363" lon="5.01075">
        <ele>210.67</ele>
        <time>2019-07-09T08:52:21Z</time>
      </trkpt>
      <trkpt lat="49.63378" lon="5.01084">
        <ele>210.19</ele>
        <time>2019-07-09T08:52:36Z</time>
      </trkpt>
      <trkpt lat="49.63392" lon="5.01092">
        <ele>207.78</ele>
        <time>2019-07-09T08:52:52Z</time>
      </trkpt>
      <trkpt lat="49.63405" lon="5.01098">
        <ele>206.34</ele>
        <time>2019-07-09T08:53:06Z</time>
      </trkpt>
      <trkpt lat="49.63419" lon="5.01103">
        <ele>204.42</ele>
        <time>2019-07-09T08:53:21Z</time>
      </trkpt>
      <trkpt lat="49.63422" lon="5.01103">
        <ele>203.94</ele>
        <time>2019-07-09T08:53:24Z</time>
      </trkpt>
      <trkpt lat="49.63429" lon="5.01108">
        <ele>204.42</ele>
        <time>2019-07-09T08:53:30Z</time>
      </trkpt>
      <trkpt lat="49.63434" lon="5.0111">
        <ele>204.42</ele>
        <time>2019-07-09T08:53:34Z</time>
      </trkpt>
      <trkpt lat="49.63449" lon="5.01117">
        <ele>202.98</ele>
        <time>2019-07-09T08:53:50Z</time>
      </trkpt>
      <trkpt lat="49.63465" lon="5.01126">
        <ele>202.49</ele>
        <time>2019-07-09T08:54:06Z</time>
      </trkpt>
      <trkpt lat="49.63482" lon="5.01137">
        <ele>201.05</ele>
        <time>2019-07-09T08:54:21Z</time>
      </trkpt>
      <trkpt lat="49.63499" lon="5.0115">
        <ele>199.61</ele>
        <time>2019-07-09T08:54:40Z</time>
      </trkpt>
      <trkpt lat="49.63517" lon="5.01162">
        <ele>199.61</ele>
        <time>2019-07-09T08:54:57Z</time>
      </trkpt>
      <trkpt lat="49.63534" lon="5.01174">
        <ele>198.17</ele>
        <time>2019-07-09T08:55:15Z</time>
      </trkpt>
      <trkpt lat="49.6355" lon="5.01186">
        <ele>197.21</ele>
        <time>2019-07-09T08:55:31Z</time>
      </trkpt>
      <trkpt lat="49.63566" lon="5.01199">
        <ele>196.73</ele>
        <time>2019-07-09T08:55:49Z</time>
      </trkpt>
      <trkpt lat="49.63566" lon="5.01199">
        <ele>196.25</ele>
        <time>2019-07-09T08:55:50Z</time>
      </trkpt>
      <trkpt lat="49.63584" lon="5.01216">
        <ele>195.28</ele>
        <time>2019-07-09T08:56:10Z</time>
      </trkpt>
      <trkpt lat="49.63601" lon="5.01226">
        <ele>194.8</ele>
        <time>2019-07-09T08:56:28Z</time>
      </trkpt>
      <trkpt lat="49.63618" lon="5.01239">
        <ele>193.84</ele>
        <time>2019-07-09T08:56:45Z</time>
      </trkpt>
      <trkpt lat="49.63634" lon="5.01251">
        <ele>193.36</ele>
        <time>2019-07-09T08:57:02Z</time>
      </trkpt>
      <trkpt lat="49.63649" lon="5.01263">
        <ele>193.36</ele>
        <time>2019-07-09T08:57:18Z</time>
      </trkpt>
      <trkpt lat="49.63664" lon="5.01277">
        <ele>192.88</ele>
        <time>2019-07-09T08:57:35Z</time>
      </trkpt>
      <trkpt lat="49.63676" lon="5.0129">
        <ele>191.92</ele>
        <time>2019-07-09T08:57:49Z</time>
      </trkpt>
      <trkpt lat="49.63689" lon="5.01309">
        <ele>189.52</ele>
        <time>2019-07-09T08:58:07Z</time>
      </trkpt>
      <trkpt lat="49.63707" lon="5.01327">
        <ele>188.08</ele>
        <time>2019-07-09T08:58:27Z</time>
      </trkpt>
      <trkpt lat="49.63724" lon="5.01345">
        <ele>186.15</ele>
        <time>2019-07-09T08:58:45Z</time>
      </trkpt>
      <trkpt lat="49.6373" lon="5.01353">
        <ele>186.15</ele>
        <time>2019-07-09T08:58:53Z</time>
      </trkpt>
      <trkpt lat="49.63745" lon="5.01369">
        <ele>183.75</ele>
        <time>2019-07-09T08:59:10Z</time>
      </trkpt>
      <trkpt lat="49.63765" lon="5.01382">
        <ele>183.27</ele>
        <time>2019-07-09T08:59:28Z</time>
      </trkpt>
      <trkpt lat="49.6378" lon="5.01387">
        <ele>182.31</ele>
        <time>2019-07-09T08:59:43Z</time>
      </trkpt>
      <trkpt lat="49.63798" lon="5.01386">
        <ele>182.31</ele>
        <time>2019-07-09T08:59:59Z</time>
      </trkpt>
      <trkpt lat="49.63815" lon="5.0138">
        <ele>181.83</ele>
        <time>2019-07-09T09:00:15Z</time>
      </trkpt>
      <trkpt lat="49.63832" lon="5.01374">
        <ele>181.83</ele>
        <time>2019-07-09T09:00:31Z</time>
      </trkpt>
      <trkpt lat="49.63848" lon="5.01369">
        <ele>180.38</ele>
        <time>2019-07-09T09:00:48Z</time>
      </trkpt>
      <trkpt lat="49.63852" lon="5.01366">
        <ele>179.9</ele>
        <time>2019-07-09T09:00:54Z</time>
      </trkpt>
      <trkpt lat="49.63868" lon="5.01363">
        <ele>177.98</ele>
        <time>2019-07-09T09:01:09Z</time>
      </trkpt>
      <trkpt lat="49.63884" lon="5.01363">
        <ele>177.5</ele>
        <time>2019-07-09T09:01:24Z</time>
      </trkpt>
      <trkpt lat="49.63897" lon="5.01362">
        <ele>178.94</ele>
        <time>2019-07-09T09:01:38Z</time>
      </trkpt>
      <trkpt lat="49.63906" lon="5.01363">
        <ele>179.42</ele>
        <time>2019-07-09T09:01:50Z</time>
      </trkpt>
      <trkpt lat="49.63923" lon="5.01364">
        <ele>177.02</ele>
        <time>2019-07-09T09:02:06Z</time>
      </trkpt>
      <trkpt lat="49.63939" lon="5.0136">
        <ele>172.69</ele>
        <time>2019-07-09T09:02:20Z</time>
      </trkpt>
      <trkpt lat="49.63956" lon="5.01355">
        <ele>169.33</ele>
        <time>2019-07-09T09:02:36Z</time>
      </trkpt>
      <trkpt lat="49.63958" lon="5.01354">
        <ele>168.37</ele>
        <time>2019-07-09T09:02:38Z</time>
      </trkpt>
      <trkpt lat="49.63974" lon="5.01356">
        <ele>167.41</ele>
        <time>2019-07-09T09:02:54Z</time>
      </trkpt>
      <trkpt lat="49.63986" lon="5.01367">
        <ele>169.33</ele>
        <time>2019-07-09T09:03:08Z</time>
      </trkpt>
      <trkpt lat="49.63999" lon="5.01383">
        <ele>167.89</ele>
        <time>2019-07-09T09:03:25Z</time>
      </trkpt>
      <trkpt lat="49.64005" lon="5.01392">
        <ele>167.89</ele>
        <time>2019-07-09T09:03:34Z</time>
      </trkpt>
      <trkpt lat="49.64018" lon="5.01414">
        <ele>167.41</ele>
        <time>2019-07-09T09:03:50Z</time>
      </trkpt>
      <trkpt lat="49.6403" lon="5.01433">
        <ele>166.45</ele>
        <time>2019-07-09T09:04:06Z</time>
      </trkpt>
      <trkpt lat="49.64036" lon="5.0144">
        <ele>166.93</ele>
        <time>2019-07-09T09:04:18Z</time>
      </trkpt>
      <trkpt lat="49.64043" lon="5.01455">
        <ele>165.96</ele>
        <time>2019-07-09T09:04:31Z</time>
      </trkpt>
      <trkpt lat="49.64052" lon="5.01475">
        <ele>165.48</ele>
        <time>2019-07-09T09:04:45Z</time>
      </trkpt>
      <trkpt lat="49.64062" lon="5.01502">
        <ele>164.04</ele>
        <time>2019-07-09T09:05:02Z</time>
      </trkpt>
      <trkpt lat="49.6408" lon="5.0152">
        <ele>166.93</ele>
        <time>2019-07-09T09:05:20Z</time>
      </trkpt>
      <trkpt lat="49.64089" lon="5.01516">
        <ele>165.96</ele>
        <time>2019-07-09T09:05:29Z</time>
      </trkpt>
      <trkpt lat="49.64107" lon="5.01505">
        <ele>163.08</ele>
        <time>2019-07-09T09:05:47Z</time>
      </trkpt>
      <trkpt lat="49.64122" lon="5.015">
        <ele>164.52</ele>
        <time>2019-07-09T09:06:02Z</time>
      </trkpt>
      <trkpt lat="49.64139" lon="5.01495">
        <ele>165.96</ele>
        <time>2019-07-09T09:06:16Z</time>
      </trkpt>
      <trkpt lat="49.64156" lon="5.0149">
        <ele>166.93</ele>
        <time>2019-07-09T09:06:31Z</time>
      </trkpt>
      <trkpt lat="49.64175" lon="5.01484">
        <ele>164.52</ele>
        <time>2019-07-09T09:06:47Z</time>
      </trkpt>
      <trkpt lat="49.64181" lon="5.01481">
        <ele>164.04</ele>
        <time>2019-07-09T09:06:54Z</time>
      </trkpt>
      <trkpt lat="49.64186" lon="5.0148">
        <ele>163.56</ele>
        <time>2019-07-09T09:06:58Z</time>
      </trkpt>
      <trkpt lat="49.64204" lon="5.01471">
        <ele>165.48</ele>
        <time>2019-07-09T09:07:16Z</time>
      </trkpt>
      <trkpt lat="49.6422" lon="5.01458">
        <ele>164.52</ele>
        <time>2019-07-09T09:07:31Z</time>
      </trkpt>
      <trkpt lat="49.64233" lon="5.01442">
        <ele>164.52</ele>
        <time>2019-07-09T09:07:46Z</time>
      </trkpt>
      <trkpt lat="49.64248" lon="5.01426">
        <ele>163.08</ele>
        <time>2019-07-09T09:08:02Z</time>
      </trkpt>
      <trkpt lat="49.64263" lon="5.0141">
        <ele>163.08</ele>
        <time>2019-07-09T09:08:19Z</time>
      </trkpt>
      <trkpt lat="49.64278" lon="5.01393">
        <ele>164.04</ele>
        <time>2019-07-09T09:08:35Z</time>
      </trkpt>
      <trkpt lat="49.6429" lon="5.01378">
        <ele>167.89</ele>
        <time>2019-07-09T09:08:51Z</time>
      </trkpt>
      <trkpt lat="49.64295" lon="5.01372">
        <ele>167.89</ele>
        <time>2019-07-09T09:08:59Z</time>
      </trkpt>
      <trkpt lat="49.64312" lon="5.01367">
        <ele>166.93</ele>
        <time>2019-07-09T09:09:16Z</time>
      </trkpt>
      <trkpt lat="49.64326" lon="5.01377">
        <ele>167.41</ele>
        <time>2019-07-09T09:09:33Z</time>
      </trkpt>
      <trkpt lat="49.64339" lon="5.01391">
        <ele>169.33</ele>
        <time>2019-07-09T09:09:49Z</time>
      </trkpt>
      <trkpt lat="49.6435" lon="5.01401">
        <ele>172.69</ele>
        <time>2019-07-09T09:10:02Z</time>
      </trkpt>
      <trkpt lat="49.64354" lon="5.01407">
        <ele>172.69</ele>
        <time>2019-07-09T09:10:07Z</time>
      </trkpt>
      <trkpt lat="49.64363" lon="5.01418">
        <ele>172.21</ele>
        <time>2019-07-09T09:10:19Z</time>
      </trkpt>
      <trkpt lat="49.64367" lon="5.01422">
        <ele>171.73</ele>
        <time>2019-07-09T09:10:23Z</time>
      </trkpt>
      <trkpt lat="49.6438" lon="5.01432">
        <ele>168.37</ele>
        <time>2019-07-09T09:10:39Z</time>
      </trkpt>
      <trkpt lat="49.64383" lon="5.01436">
        <ele>166.93</ele>
        <time>2019-07-09T09:10:43Z</time>
      </trkpt>
      <trkpt lat="49.64392" lon="5.01443">
        <ele>163.56</ele>
        <time>2019-07-09T09:10:56Z</time>
      </trkpt>
      <trkpt lat="49.64394" lon="5.01443">
        <ele>163.56</ele>
        <time>2019-07-09T09:10:59Z</time>
      </trkpt>
      <trkpt lat="49.64407" lon="5.01454">
        <ele>162.12</ele>
        <time>2019-07-09T09:11:14Z</time>
      </trkpt>
      <trkpt lat="49.64423" lon="5.01468">
        <ele>161.16</ele>
        <time>2019-07-09T09:11:30Z</time>
      </trkpt>
      <trkpt lat="49.6443" lon="5.01474">
        <ele>161.16</ele>
        <time>2019-07-09T09:11:39Z</time>
      </trkpt>
      <trkpt lat="49.64434" lon="5.01479">
        <ele>160.2</ele>
        <time>2019-07-09T09:11:43Z</time>
      </trkpt>
      <trkpt lat="49.64451" lon="5.01494">
        <ele>161.64</ele>
        <time>2019-07-09T09:12:01Z</time>
      </trkpt>
      <trkpt lat="49.64453" lon="5.01501">
        <ele>160.68</ele>
        <time>2019-07-09T09:12:16Z</time>
      </trkpt>
      <trkpt lat="49.64452" lon="5.015">
        <ele>160.2</ele>
        <time>2019-07-09T09:12:35Z</time>
      </trkpt>
      <trkpt lat="49.64452" lon="5.01498">
        <ele>159.72</ele>
        <time>2019-07-09T09:13:02Z</time>
      </trkpt>
      <trkpt lat="49.64449" lon="5.01501">
        <ele>159.24</ele>
        <time>2019-07-09T09:13:29Z</time>
      </trkpt>
      <trkpt lat="49.6445" lon="5.01499">
        <ele>158.75</ele>
        <time>2019-07-09T09:13:58Z</time>
      </trkpt>
      <trkpt lat="49.64446" lon="5.01494">
        <ele>157.79</ele>
        <time>2019-07-09T09:14:15Z</time>
      </trkpt>
      <trkpt lat="49.64453" lon="5.01497">
        <ele>157.31</ele>
        <time>2019-07-09T09:14:27Z</time>
      </trkpt>
      <trkpt lat="49.64454" lon="5.01508">
        <ele>160.2</ele>
        <time>2019-07-09T09:14:49Z</time>
      </trkpt>
      <trkpt lat="49.6445" lon="5.01507">
        <ele>160.68</ele>
        <time>2019-07-09T09:15:21Z</time>
      </trkpt>
      <trkpt lat="49.64451" lon="5.01507">
        <ele>161.16</ele>
        <time>2019-07-09T09:15:48Z</time>
      </trkpt>
      <trkpt lat="49.64452" lon="5.01505">
        <ele>161.16</ele>
        <time>2019-07-09T09:16:15Z</time>
      </trkpt>
      <trkpt lat="49.6445" lon="5.01501">
        <ele>158.75</ele>
        <time>2019-07-09T09:16:42Z</time>
      </trkpt>
      <trkpt lat="49.64444" lon="5.01504">
        <ele>159.24</ele>
        <time>2019-07-09T09:17:09Z</time>
      </trkpt>
      <trkpt lat="49.64445" lon="5.01504">
        <ele>163.56</ele>
        <time>2019-07-09T09:17:33Z</time>
      </trkpt>
      <trkpt lat="49.64449" lon="5.01511">
        <ele>165.48</ele>
        <time>2019-07-09T09:17:58Z</time>
      </trkpt>
      <trkpt lat="49.64446" lon="5.01503">
        <ele>165.48</ele>
        <time>2019-07-09T09:18:20Z</time>
      </trkpt>
      <trkpt lat="49.64439" lon="5.01506">
        <ele>163.56</ele>
        <time>2019-07-09T09:18:50Z</time>
      </trkpt>
      <trkpt lat="49.64449" lon="5.01508">
        <ele>166.93</ele>
        <time>2019-07-09T09:19:17Z</time>
      </trkpt>
      <trkpt lat="49.64447" lon="5.01502">
        <ele>168.37</ele>
        <time>2019-07-09T09:19:42Z</time>
      </trkpt>
      <trkpt lat="49.6445" lon="5.01502">
        <ele>168.37</ele>
        <time>2019-07-09T09:20:11Z</time>
      </trkpt>
      <trkpt lat="49.6445" lon="5.01502">
        <ele>168.37</ele>
        <time>2019-07-09T09:20:39Z</time>
      </trkpt>
      <trkpt lat="49.64451" lon="5.01503">
        <ele>167.89</ele>
        <time>2019-07-09T09:21:11Z</time>
      </trkpt>
      <trkpt lat="49.6445" lon="5.01503">
        <ele>169.81</ele>
        <time>2019-07-09T09:21:44Z</time>
      </trkpt>
      <trkpt lat="49.6445" lon="5.01502">
        <ele>169.33</ele>
        <time>2019-07-09T09:22:21Z</time>
      </trkpt>
      <trkpt lat="49.6445" lon="5.015">
        <ele>168.37</ele>
        <time>2019-07-09T09:22:53Z</time>
      </trkpt>
      <trkpt lat="49.6445" lon="5.015">
        <ele>168.37</ele>
        <time>2019-07-09T09:23:20Z</time>
      </trkpt>
      <trkpt lat="49.6445" lon="5.01501">
        <ele>167.89</ele>
        <time>2019-07-09T09:23:42Z</time>
      </trkpt>
      <trkpt lat="49.6445" lon="5.01501">
        <ele>167.41</ele>
        <time>2019-07-09T09:24:11Z</time>
      </trkpt>
      <trkpt lat="49.64448" lon="5.01503">
        <ele>165.96</ele>
        <time>2019-07-09T09:24:34Z</time>
      </trkpt>
      <trkpt lat="49.64449" lon="5.01504">
        <ele>165.48</ele>
        <time>2019-07-09T09:24:54Z</time>
      </trkpt>
      <trkpt lat="49.6445" lon="5.01504">
        <ele>164.04</ele>
        <time>2019-07-09T09:25:19Z</time>
      </trkpt>
      <trkpt lat="49.64454" lon="5.015">
        <ele>163.56</ele>
        <time>2019-07-09T09:25:37Z</time>
      </trkpt>
      <trkpt lat="49.64458" lon="5.01499">
        <ele>163.56</ele>
        <time>2019-07-09T09:25:43Z</time>
      </trkpt>
      <trkpt lat="49.64473" lon="5.01508">
        <ele>166.93</ele>
        <time>2019-07-09T09:25:59Z</time>
      </trkpt>
      <trkpt lat="49.64476" lon="5.01511">
        <ele>167.89</ele>
        <time>2019-07-09T09:26:03Z</time>
      </trkpt>
      <trkpt lat="49.64488" lon="5.01519">
        <ele>169.33</ele>
        <time>2019-07-09T09:26:16Z</time>
      </trkpt>
      <trkpt lat="49.64493" lon="5.01523">
        <ele>168.85</ele>
        <time>2019-07-09T09:26:20Z</time>
      </trkpt>
      <trkpt lat="49.64497" lon="5.01526">
        <ele>168.85</ele>
        <time>2019-07-09T09:26:25Z</time>
      </trkpt>
      <trkpt lat="49.64502" lon="5.01523">
        <ele>168.37</ele>
        <time>2019-07-09T09:26:29Z</time>
      </trkpt>
      <trkpt lat="49.64509" lon="5.015">
        <ele>166.45</ele>
        <time>2019-07-09T09:26:44Z</time>
      </trkpt>
      <trkpt lat="49.6451" lon="5.01499">
        <ele>166.45</ele>
        <time>2019-07-09T09:26:45Z</time>
      </trkpt>
      <trkpt lat="49.64518" lon="5.01475">
        <ele>165.96</ele>
        <time>2019-07-09T09:27:03Z</time>
      </trkpt>
      <trkpt lat="49.64529" lon="5.01449">
        <ele>166.45</ele>
        <time>2019-07-09T09:27:21Z</time>
      </trkpt>
      <trkpt lat="49.64535" lon="5.01445">
        <ele>167.89</ele>
        <time>2019-07-09T09:27:31Z</time>
      </trkpt>
      <trkpt lat="49.6455" lon="5.0146">
        <ele>172.21</ele>
        <time>2019-07-09T09:27:48Z</time>
      </trkpt>
      <trkpt lat="49.64564" lon="5.01474">
        <ele>172.69</ele>
        <time>2019-07-09T09:28:02Z</time>
      </trkpt>
      <trkpt lat="49.64579" lon="5.01488">
        <ele>174.62</ele>
        <time>2019-07-09T09:28:19Z</time>
      </trkpt>
      <trkpt lat="49.64601" lon="5.01503">
        <ele>177.5</ele>
        <time>2019-07-09T09:28:38Z</time>
      </trkpt>
      <trkpt lat="49.64621" lon="5.01514">
        <ele>181.35</ele>
        <time>2019-07-09T09:28:58Z</time>
      </trkpt>
      <trkpt lat="49.64638" lon="5.01524">
        <ele>183.75</ele>
        <time>2019-07-09T09:29:16Z</time>
      </trkpt>
      <trkpt lat="49.64652" lon="5.01532">
        <ele>183.75</ele>
        <time>2019-07-09T09:29:30Z</time>
      </trkpt>
      <trkpt lat="49.64669" lon="5.01542">
        <ele>184.23</ele>
        <time>2019-07-09T09:29:45Z</time>
      </trkpt>
      <trkpt lat="49.64674" lon="5.01545">
        <ele>183.27</ele>
        <time>2019-07-09T09:29:50Z</time>
      </trkpt>
      <trkpt lat="49.64695" lon="5.01552">
        <ele>179.9</ele>
        <time>2019-07-09T09:30:09Z</time>
      </trkpt>
      <trkpt lat="49.64713" lon="5.01559">
        <ele>182.79</ele>
        <time>2019-07-09T09:30:26Z</time>
      </trkpt>
      <trkpt lat="49.64732" lon="5.01572">
        <ele>179.42</ele>
        <time>2019-07-09T09:30:44Z</time>
      </trkpt>
      <trkpt lat="49.64732" lon="5.01572">
        <ele>177.98</ele>
        <time>2019-07-09T09:30:45Z</time>
      </trkpt>
      <trkpt lat="49.64733" lon="5.01578">
        <ele>174.14</ele>
        <time>2019-07-09T09:30:50Z</time>
      </trkpt>
      <trkpt lat="49.64734" lon="5.01604">
        <ele>169.33</ele>
        <time>2019-07-09T09:31:07Z</time>
      </trkpt>
      <trkpt lat="49.64734" lon="5.01626">
        <ele>166.93</ele>
        <time>2019-07-09T09:31:21Z</time>
      </trkpt>
      <trkpt lat="49.64736" lon="5.01642">
        <ele>165</ele>
        <time>2019-07-09T09:31:31Z</time>
      </trkpt>
      <trkpt lat="49.64746" lon="5.01657">
        <ele>163.56</ele>
        <time>2019-07-09T09:31:45Z</time>
      </trkpt>
      <trkpt lat="49.64751" lon="5.01654">
        <ele>162.6</ele>
        <time>2019-07-09T09:31:59Z</time>
      </trkpt>
      <trkpt lat="49.64755" lon="5.01645">
        <ele>161.16</ele>
        <time>2019-07-09T09:32:16Z</time>
      </trkpt>
      <trkpt lat="49.64762" lon="5.01629">
        <ele>160.68</ele>
        <time>2019-07-09T09:32:31Z</time>
      </trkpt>
      <trkpt lat="49.6477" lon="5.01613">
        <ele>163.56</ele>
        <time>2019-07-09T09:32:46Z</time>
      </trkpt>
      <trkpt lat="49.64773" lon="5.01601">
        <ele>164.04</ele>
        <time>2019-07-09T09:32:55Z</time>
      </trkpt>
      <trkpt lat="49.64776" lon="5.01594">
        <ele>164.04</ele>
        <time>2019-07-09T09:32:59Z</time>
      </trkpt>
      <trkpt lat="49.64784" lon="5.01567">
        <ele>163.56</ele>
        <time>2019-07-09T09:33:15Z</time>
      </trkpt>
      <trkpt lat="49.6479" lon="5.01544">
        <ele>162.6</ele>
        <time>2019-07-09T09:33:29Z</time>
      </trkpt>
      <trkpt lat="49.64796" lon="5.01524">
        <ele>161.64</ele>
        <time>2019-07-09T09:33:44Z</time>
      </trkpt>
      <trkpt lat="49.64805" lon="5.01502">
        <ele>161.64</ele>
        <time>2019-07-09T09:33:58Z</time>
      </trkpt>
      <trkpt lat="49.64811" lon="5.01481">
        <ele>161.16</ele>
        <time>2019-07-09T09:34:11Z</time>
      </trkpt>
      <trkpt lat="49.64819" lon="5.01459">
        <ele>161.16</ele>
        <time>2019-07-09T09:34:25Z</time>
      </trkpt>
      <trkpt lat="49.64826" lon="5.0144">
        <ele>160.2</ele>
        <time>2019-07-09T09:34:39Z</time>
      </trkpt>
      <trkpt lat="49.64832" lon="5.01418">
        <ele>161.16</ele>
        <time>2019-07-09T09:34:54Z</time>
      </trkpt>
      <trkpt lat="49.64839" lon="5.01396">
        <ele>160.68</ele>
        <time>2019-07-09T09:35:09Z</time>
      </trkpt>
      <trkpt lat="49.64846" lon="5.01375">
        <ele>159.72</ele>
        <time>2019-07-09T09:35:23Z</time>
      </trkpt>
      <trkpt lat="49.64855" lon="5.0135">
        <ele>160.2</ele>
        <time>2019-07-09T09:35:39Z</time>
      </trkpt>
      <trkpt lat="49.64862" lon="5.01329">
        <ele>160.2</ele>
        <time>2019-07-09T09:35:53Z</time>
      </trkpt>
      <trkpt lat="49.64868" lon="5.01309">
        <ele>159.72</ele>
        <time>2019-07-09T09:36:08Z</time>
      </trkpt>
      <trkpt lat="49.64874" lon="5.01286">
        <ele>159.72</ele>
        <time>2019-07-09T09:36:23Z</time>
      </trkpt>
      <trkpt lat="49.64881" lon="5.01266">
        <ele>160.2</ele>
        <time>2019-07-09T09:36:36Z</time>
      </trkpt>
      <trkpt lat="49.64886" lon="5.01242">
        <ele>159.72</ele>
        <time>2019-07-09T09:36:51Z</time>
      </trkpt>
      <trkpt lat="49.6489" lon="5.01219">
        <ele>159.24</ele>
        <time>2019-07-09T09:37:06Z</time>
      </trkpt>
      <trkpt lat="49.64894" lon="5.01199">
        <ele>159.24</ele>
        <time>2019-07-09T09:37:20Z</time>
      </trkpt>
      <trkpt lat="49.64897" lon="5.01174">
        <ele>159.72</ele>
        <time>2019-07-09T09:37:35Z</time>
      </trkpt>
      <trkpt lat="49.64899" lon="5.0115">
        <ele>159.24</ele>
        <time>2019-07-09T09:37:49Z</time>
      </trkpt>
      <trkpt lat="49.64901" lon="5.01127">
        <ele>158.75</ele>
        <time>2019-07-09T09:38:02Z</time>
      </trkpt>
      <trkpt lat="49.64902" lon="5.01121">
        <ele>158.27</ele>
        <time>2019-07-09T09:38:07Z</time>
      </trkpt>
      <trkpt lat="49.64903" lon="5.011">
        <ele>157.31</ele>
        <time>2019-07-09T09:38:20Z</time>
      </trkpt>
      <trkpt lat="49.64904" lon="5.01079">
        <ele>156.83</ele>
        <time>2019-07-09T09:38:33Z</time>
      </trkpt>
      <trkpt lat="49.64903" lon="5.01059">
        <ele>156.83</ele>
        <time>2019-07-09T09:38:45Z</time>
      </trkpt>
      <trkpt lat="49.64903" lon="5.01037">
        <ele>157.79</ele>
        <time>2019-07-09T09:38:58Z</time>
      </trkpt>
      <trkpt lat="49.64902" lon="5.01014">
        <ele>157.79</ele>
        <time>2019-07-09T09:39:12Z</time>
      </trkpt>
      <trkpt lat="49.649" lon="5.00995">
        <ele>156.83</ele>
        <time>2019-07-09T09:39:25Z</time>
      </trkpt>
      <trkpt lat="49.649" lon="5.00975">
        <ele>156.83</ele>
        <time>2019-07-09T09:39:38Z</time>
      </trkpt>
      <trkpt lat="49.649" lon="5.00961">
        <ele>157.31</ele>
        <time>2019-07-09T09:39:45Z</time>
      </trkpt>
      <trkpt lat="49.64899" lon="5.00948">
        <ele>158.27</ele>
        <time>2019-07-09T09:39:57Z</time>
      </trkpt>
      <trkpt lat="49.64896" lon="5.00926">
        <ele>155.87</ele>
        <time>2019-07-09T09:40:11Z</time>
      </trkpt>
      <trkpt lat="49.64896" lon="5.00898">
        <ele>155.87</ele>
        <time>2019-07-09T09:40:28Z</time>
      </trkpt>
      <trkpt lat="49.64896" lon="5.00872">
        <ele>155.39</ele>
        <time>2019-07-09T09:40:43Z</time>
      </trkpt>
      <trkpt lat="49.64896" lon="5.00851">
        <ele>154.91</ele>
        <time>2019-07-09T09:40:58Z</time>
      </trkpt>
      <trkpt lat="49.64896" lon="5.00834">
        <ele>155.39</ele>
        <time>2019-07-09T09:41:09Z</time>
      </trkpt>
      <trkpt lat="49.64897" lon="5.00811">
        <ele>155.87</ele>
        <time>2019-07-09T09:41:24Z</time>
      </trkpt>
      <trkpt lat="49.64898" lon="5.00789">
        <ele>154.91</ele>
        <time>2019-07-09T09:41:38Z</time>
      </trkpt>
      <trkpt lat="49.64899" lon="5.00777">
        <ele>154.43</ele>
        <time>2019-07-09T09:41:47Z</time>
      </trkpt>
      <trkpt lat="49.64901" lon="5.00757">
        <ele>153.95</ele>
        <time>2019-07-09T09:41:59Z</time>
      </trkpt>
      <trkpt lat="49.64902" lon="5.00749">
        <ele>153.95</ele>
        <time>2019-07-09T09:42:05Z</time>
      </trkpt>
      <trkpt lat="49.64905" lon="5.00724">
        <ele>153.95</ele>
        <time>2019-07-09T09:42:20Z</time>
      </trkpt>
      <trkpt lat="49.64906" lon="5.00714">
        <ele>154.43</ele>
        <time>2019-07-09T09:42:32Z</time>
      </trkpt>
      <trkpt lat="49.64908" lon="5.00693">
        <ele>153.47</ele>
        <time>2019-07-09T09:42:45Z</time>
      </trkpt>
      <trkpt lat="49.64912" lon="5.00666">
        <ele>153.47</ele>
        <time>2019-07-09T09:43:00Z</time>
      </trkpt>
      <trkpt lat="49.64913" lon="5.00643">
        <ele>153.95</ele>
        <time>2019-07-09T09:43:14Z</time>
      </trkpt>
      <trkpt lat="49.64914" lon="5.0064">
        <ele>153.95</ele>
        <time>2019-07-09T09:43:17Z</time>
      </trkpt>
      <trkpt lat="49.64916" lon="5.00632">
        <ele>154.91</ele>
        <time>2019-07-09T09:43:21Z</time>
      </trkpt>
      <trkpt lat="49.6492" lon="5.00609">
        <ele>155.87</ele>
        <time>2019-07-09T09:43:35Z</time>
      </trkpt>
      <trkpt lat="49.64921" lon="5.00603">
        <ele>155.87</ele>
        <time>2019-07-09T09:43:40Z</time>
      </trkpt>
      <trkpt lat="49.64926" lon="5.00577">
        <ele>155.87</ele>
        <time>2019-07-09T09:43:56Z</time>
      </trkpt>
      <trkpt lat="49.64927" lon="5.00575">
        <ele>156.35</ele>
        <time>2019-07-09T09:43:57Z</time>
      </trkpt>
      <trkpt lat="49.64932" lon="5.00551">
        <ele>155.87</ele>
        <time>2019-07-09T09:44:13Z</time>
      </trkpt>
      <trkpt lat="49.64936" lon="5.00527">
        <ele>153.95</ele>
        <time>2019-07-09T09:44:29Z</time>
      </trkpt>
      <trkpt lat="49.64941" lon="5.00507">
        <ele>152.99</ele>
        <time>2019-07-09T09:44:42Z</time>
      </trkpt>
      <trkpt lat="49.64948" lon="5.00484">
        <ele>153.95</ele>
        <time>2019-07-09T09:44:56Z</time>
      </trkpt>
      <trkpt lat="49.64953" lon="5.00464">
        <ele>153.95</ele>
        <time>2019-07-09T09:45:10Z</time>
      </trkpt>
      <trkpt lat="49.64959" lon="5.00445">
        <ele>153.95</ele>
        <time>2019-07-09T09:45:23Z</time>
      </trkpt>
      <trkpt lat="49.64966" lon="5.00423">
        <ele>154.43</ele>
        <time>2019-07-09T09:45:38Z</time>
      </trkpt>
      <trkpt lat="49.64974" lon="5.00402">
        <ele>153.95</ele>
        <time>2019-07-09T09:45:53Z</time>
      </trkpt>
      <trkpt lat="49.64982" lon="5.00381">
        <ele>153.95</ele>
        <time>2019-07-09T09:46:08Z</time>
      </trkpt>
      <trkpt lat="49.6499" lon="5.00364">
        <ele>154.43</ele>
        <time>2019-07-09T09:46:20Z</time>
      </trkpt>
      <trkpt lat="49.64997" lon="5.00345">
        <ele>152.99</ele>
        <time>2019-07-09T09:46:34Z</time>
      </trkpt>
      <trkpt lat="49.65005" lon="5.00325">
        <ele>152.51</ele>
        <time>2019-07-09T09:46:48Z</time>
      </trkpt>
      <trkpt lat="49.65015" lon="5.00305">
        <ele>152.51</ele>
        <time>2019-07-09T09:47:03Z</time>
      </trkpt>
      <trkpt lat="49.65025" lon="5.00285">
        <ele>153.95</ele>
        <time>2019-07-09T09:47:18Z</time>
      </trkpt>
      <trkpt lat="49.65028" lon="5.00276">
        <ele>153.47</ele>
        <time>2019-07-09T09:47:33Z</time>
      </trkpt>
      <trkpt lat="49.65029" lon="5.00275">
        <ele>154.43</ele>
        <time>2019-07-09T09:47:47Z</time>
      </trkpt>
      <trkpt lat="49.65032" lon="5.0027">
        <ele>154.91</ele>
        <time>2019-07-09T09:47:51Z</time>
      </trkpt>
      <trkpt lat="49.65038" lon="5.00256">
        <ele>154.91</ele>
        <time>2019-07-09T09:48:02Z</time>
      </trkpt>
      <trkpt lat="49.65049" lon="5.00234">
        <ele>154.91</ele>
        <time>2019-07-09T09:48:19Z</time>
      </trkpt>
      <trkpt lat="49.65058" lon="5.00214">
        <ele>153.95</ele>
        <time>2019-07-09T09:48:34Z</time>
      </trkpt>
      <trkpt lat="49.65067" lon="5.00195">
        <ele>153.95</ele>
        <time>2019-07-09T09:48:49Z</time>
      </trkpt>
      <trkpt lat="49.65077" lon="5.00175">
        <ele>153.47</ele>
        <time>2019-07-09T09:49:04Z</time>
      </trkpt>
      <trkpt lat="49.65087" lon="5.00155">
        <ele>152.99</ele>
        <time>2019-07-09T09:49:19Z</time>
      </trkpt>
      <trkpt lat="49.65096" lon="5.00137">
        <ele>152.51</ele>
        <time>2019-07-09T09:49:33Z</time>
      </trkpt>
      <trkpt lat="49.65097" lon="5.00135">
        <ele>152.03</ele>
        <time>2019-07-09T09:49:34Z</time>
      </trkpt>
      <trkpt lat="49.65107" lon="5.00115">
        <ele>152.03</ele>
        <time>2019-07-09T09:49:48Z</time>
      </trkpt>
      <trkpt lat="49.65118" lon="5.00092">
        <ele>153.47</ele>
        <time>2019-07-09T09:50:04Z</time>
      </trkpt>
      <trkpt lat="49.65128" lon="5.00072">
        <ele>152.99</ele>
        <time>2019-07-09T09:50:19Z</time>
      </trkpt>
      <trkpt lat="49.65137" lon="5.00054">
        <ele>152.03</ele>
        <time>2019-07-09T09:50:33Z</time>
      </trkpt>
      <trkpt lat="49.65146" lon="5.00036">
        <ele>152.51</ele>
        <time>2019-07-09T09:50:46Z</time>
      </trkpt>
      <trkpt lat="49.65155" lon="5.00017">
        <ele>152.51</ele>
        <time>2019-07-09T09:51:02Z</time>
      </trkpt>
      <trkpt lat="49.65163" lon="4.99997">
        <ele>153.95</ele>
        <time>2019-07-09T09:51:16Z</time>
      </trkpt>
      <trkpt lat="49.65165" lon="4.99993">
        <ele>153.95</ele>
        <time>2019-07-09T09:51:19Z</time>
      </trkpt>
      <trkpt lat="49.65175" lon="4.99972">
        <ele>155.39</ele>
        <time>2019-07-09T09:51:35Z</time>
      </trkpt>
      <trkpt lat="49.65181" lon="4.9995">
        <ele>158.27</ele>
        <time>2019-07-09T09:51:50Z</time>
      </trkpt>
      <trkpt lat="49.65183" lon="4.99939">
        <ele>158.75</ele>
        <time>2019-07-09T09:51:58Z</time>
      </trkpt>
      <trkpt lat="49.65193" lon="4.99919">
        <ele>161.64</ele>
        <time>2019-07-09T09:52:13Z</time>
      </trkpt>
      <trkpt lat="49.65204" lon="4.999">
        <ele>165</ele>
        <time>2019-07-09T09:52:28Z</time>
      </trkpt>
      <trkpt lat="49.65215" lon="4.99898">
        <ele>165.48</ele>
        <time>2019-07-09T09:52:42Z</time>
      </trkpt>
      <trkpt lat="49.65218" lon="4.99895">
        <ele>164.52</ele>
        <time>2019-07-09T09:52:55Z</time>
      </trkpt>
      <trkpt lat="49.6522" lon="4.99887">
        <ele>165</ele>
        <time>2019-07-09T09:53:09Z</time>
      </trkpt>
      <trkpt lat="49.65221" lon="4.99885">
        <ele>164.52</ele>
        <time>2019-07-09T09:53:11Z</time>
      </trkpt>
      <trkpt lat="49.65229" lon="4.99873">
        <ele>164.04</ele>
        <time>2019-07-09T09:53:26Z</time>
      </trkpt>
      <trkpt lat="49.65239" lon="4.99857">
        <ele>163.08</ele>
        <time>2019-07-09T09:53:43Z</time>
      </trkpt>
      <trkpt lat="49.65252" lon="4.99839">
        <ele>160.68</ele>
        <time>2019-07-09T09:53:58Z</time>
      </trkpt>
      <trkpt lat="49.65263" lon="4.99823">
        <ele>160.68</ele>
        <time>2019-07-09T09:54:12Z</time>
      </trkpt>
      <trkpt lat="49.65276" lon="4.99798">
        <ele>158.75</ele>
        <time>2019-07-09T09:54:27Z</time>
      </trkpt>
      <trkpt lat="49.6529" lon="4.99775">
        <ele>155.39</ele>
        <time>2019-07-09T09:54:44Z</time>
      </trkpt>
      <trkpt lat="49.65299" lon="4.99751">
        <ele>155.39</ele>
        <time>2019-07-09T09:55:00Z</time>
      </trkpt>
      <trkpt lat="49.653" lon="4.9975">
        <ele>155.39</ele>
        <time>2019-07-09T09:55:01Z</time>
      </trkpt>
      <trkpt lat="49.65307" lon="4.99725">
        <ele>156.83</ele>
        <time>2019-07-09T09:55:17Z</time>
      </trkpt>
      <trkpt lat="49.65308" lon="4.99722">
        <ele>156.83</ele>
        <time>2019-07-09T09:55:19Z</time>
      </trkpt>
      <trkpt lat="49.65319" lon="4.99695">
        <ele>159.72</ele>
        <time>2019-07-09T09:55:37Z</time>
      </trkpt>
      <trkpt lat="49.65326" lon="4.99675">
        <ele>161.16</ele>
        <time>2019-07-09T09:55:52Z</time>
      </trkpt>
      <trkpt lat="49.65336" lon="4.9965">
        <ele>162.12</ele>
        <time>2019-07-09T09:56:10Z</time>
      </trkpt>
      <trkpt lat="49.65343" lon="4.99632">
        <ele>165.96</ele>
        <time>2019-07-09T09:56:22Z</time>
      </trkpt>
      <trkpt lat="49.65355" lon="4.99609">
        <ele>165.48</ele>
        <time>2019-07-09T09:56:40Z</time>
      </trkpt>
      <trkpt lat="49.65366" lon="4.99587">
        <ele>165</ele>
        <time>2019-07-09T09:56:58Z</time>
      </trkpt>
      <trkpt lat="49.65379" lon="4.99563">
        <ele>164.52</ele>
        <time>2019-07-09T09:57:16Z</time>
      </trkpt>
      <trkpt lat="49.65393" lon="4.99542">
        <ele>165</ele>
        <time>2019-07-09T09:57:34Z</time>
      </trkpt>
      <trkpt lat="49.65402" lon="4.99524">
        <ele>165.48</ele>
        <time>2019-07-09T09:57:48Z</time>
      </trkpt>
      <trkpt lat="49.65413" lon="4.99507">
        <ele>165.48</ele>
        <time>2019-07-09T09:58:03Z</time>
      </trkpt>
      <trkpt lat="49.65426" lon="4.99484">
        <ele>166.45</ele>
        <time>2019-07-09T09:58:21Z</time>
      </trkpt>
      <trkpt lat="49.65439" lon="4.99461">
        <ele>166.45</ele>
        <time>2019-07-09T09:58:39Z</time>
      </trkpt>
      <trkpt lat="49.65451" lon="4.9944">
        <ele>165.96</ele>
        <time>2019-07-09T09:58:56Z</time>
      </trkpt>
      <trkpt lat="49.65463" lon="4.99418">
        <ele>165</ele>
        <time>2019-07-09T09:59:12Z</time>
      </trkpt>
      <trkpt lat="49.65476" lon="4.99397">
        <ele>164.52</ele>
        <time>2019-07-09T09:59:29Z</time>
      </trkpt>
      <trkpt lat="49.6549" lon="4.99375">
        <ele>164.52</ele>
        <time>2019-07-09T09:59:47Z</time>
      </trkpt>
      <trkpt lat="49.65503" lon="4.99356">
        <ele>164.52</ele>
        <time>2019-07-09T10:00:04Z</time>
      </trkpt>
      <trkpt lat="49.65516" lon="4.99335">
        <ele>164.04</ele>
        <time>2019-07-09T10:00:20Z</time>
      </trkpt>
      <trkpt lat="49.65529" lon="4.99312">
        <ele>163.08</ele>
        <time>2019-07-09T10:00:37Z</time>
      </trkpt>
      <trkpt lat="49.65541" lon="4.99294">
        <ele>164.04</ele>
        <time>2019-07-09T10:00:53Z</time>
      </trkpt>
      <trkpt lat="49.65553" lon="4.99275">
        <ele>163.56</ele>
        <time>2019-07-09T10:01:10Z</time>
      </trkpt>
      <trkpt lat="49.65565" lon="4.99257">
        <ele>163.56</ele>
        <time>2019-07-09T10:01:26Z</time>
      </trkpt>
      <trkpt lat="49.65566" lon="4.9925">
        <ele>163.56</ele>
        <time>2019-07-09T10:01:30Z</time>
      </trkpt>
      <trkpt lat="49.65562" lon="4.99241">
        <ele>163.56</ele>
        <time>2019-07-09T10:01:35Z</time>
      </trkpt>
      <trkpt lat="49.65554" lon="4.99231">
        <ele>162.12</ele>
        <time>2019-07-09T10:01:45Z</time>
      </trkpt>
      <trkpt lat="49.65538" lon="4.99218">
        <ele>157.31</ele>
        <time>2019-07-09T10:02:02Z</time>
      </trkpt>
      <trkpt lat="49.65523" lon="4.99205">
        <ele>156.35</ele>
        <time>2019-07-09T10:02:18Z</time>
      </trkpt>
      <trkpt lat="49.65504" lon="4.99194">
        <ele>158.75</ele>
        <time>2019-07-09T10:02:35Z</time>
      </trkpt>
      <trkpt lat="49.65498" lon="4.99192">
        <ele>159.24</ele>
        <time>2019-07-09T10:02:41Z</time>
      </trkpt>
      <trkpt lat="49.65485" lon="4.99211">
        <ele>164.04</ele>
        <time>2019-07-09T10:02:56Z</time>
      </trkpt>
      <trkpt lat="49.65477" lon="4.99237">
        <ele>167.41</ele>
        <time>2019-07-09T10:03:12Z</time>
      </trkpt>
      <trkpt lat="49.65467" lon="4.99268">
        <ele>169.81</ele>
        <time>2019-07-09T10:03:32Z</time>
      </trkpt>
      <trkpt lat="49.65453" lon="4.99277">
        <ele>167.41</ele>
        <time>2019-07-09T10:03:48Z</time>
      </trkpt>
      <trkpt lat="49.65441" lon="4.99263">
        <ele>165.48</ele>
        <time>2019-07-09T10:04:05Z</time>
      </trkpt>
      <trkpt lat="49.6543" lon="4.99246">
        <ele>163.08</ele>
        <time>2019-07-09T10:04:21Z</time>
      </trkpt>
      <trkpt lat="49.65418" lon="4.99226">
        <ele>158.75</ele>
        <time>2019-07-09T10:04:37Z</time>
      </trkpt>
      <trkpt lat="49.65402" lon="4.99203">
        <ele>156.35</ele>
        <time>2019-07-09T10:04:56Z</time>
      </trkpt>
      <trkpt lat="49.65401" lon="4.992">
        <ele>156.35</ele>
        <time>2019-07-09T10:04:58Z</time>
      </trkpt>
      <trkpt lat="49.65394" lon="4.99191">
        <ele>154.91</ele>
        <time>2019-07-09T10:05:06Z</time>
      </trkpt>
      <trkpt lat="49.65393" lon="4.99187">
        <ele>154.43</ele>
        <time>2019-07-09T10:05:08Z</time>
      </trkpt>
      <trkpt lat="49.65383" lon="4.99186">
        <ele>153.95</ele>
        <time>2019-07-09T10:05:18Z</time>
      </trkpt>
      <trkpt lat="49.65377" lon="4.99191">
        <ele>154.43</ele>
        <time>2019-07-09T10:05:24Z</time>
      </trkpt>
      <trkpt lat="49.65373" lon="4.99187">
        <ele>154.43</ele>
        <time>2019-07-09T10:05:28Z</time>
      </trkpt>
      <trkpt lat="49.6537" lon="4.99184">
        <ele>154.91</ele>
        <time>2019-07-09T10:05:31Z</time>
      </trkpt>
      <trkpt lat="49.65373" lon="4.99172">
        <ele>154.43</ele>
        <time>2019-07-09T10:05:42Z</time>
      </trkpt>
      <trkpt lat="49.65362" lon="4.99147">
        <ele>158.27</ele>
        <time>2019-07-09T10:06:00Z</time>
      </trkpt>
      <trkpt lat="49.65358" lon="4.99138">
        <ele>158.27</ele>
        <time>2019-07-09T10:06:08Z</time>
      </trkpt>
      <trkpt lat="49.65353" lon="4.99131">
        <ele>158.27</ele>
        <time>2019-07-09T10:06:13Z</time>
      </trkpt>
      <trkpt lat="49.65341" lon="4.99108">
        <ele>154.43</ele>
        <time>2019-07-09T10:06:31Z</time>
      </trkpt>
      <trkpt lat="49.6533" lon="4.99079">
        <ele>151.54</ele>
        <time>2019-07-09T10:06:47Z</time>
      </trkpt>
      <trkpt lat="49.65323" lon="4.99056">
        <ele>149.14</ele>
        <time>2019-07-09T10:07:03Z</time>
      </trkpt>
      <trkpt lat="49.65313" lon="4.99032">
        <ele>147.7</ele>
        <time>2019-07-09T10:07:18Z</time>
      </trkpt>
      <trkpt lat="49.65293" lon="4.99012">
        <ele>150.1</ele>
        <time>2019-07-09T10:07:38Z</time>
      </trkpt>
      <trkpt lat="49.65288" lon="4.99006">
        <ele>150.58</ele>
        <time>2019-07-09T10:07:46Z</time>
      </trkpt>
      <trkpt lat="49.65273" lon="4.98993">
        <ele>151.54</ele>
        <time>2019-07-09T10:08:00Z</time>
      </trkpt>
      <trkpt lat="49.65258" lon="4.98983">
        <ele>153.47</ele>
        <time>2019-07-09T10:08:15Z</time>
      </trkpt>
      <trkpt lat="49.65249" lon="4.98975">
        <ele>154.91</ele>
        <time>2019-07-09T10:08:23Z</time>
      </trkpt>
      <trkpt lat="49.65245" lon="4.9897">
        <ele>155.39</ele>
        <time>2019-07-09T10:08:27Z</time>
      </trkpt>
      <trkpt lat="49.65228" lon="4.98955">
        <ele>156.83</ele>
        <time>2019-07-09T10:08:45Z</time>
      </trkpt>
      <trkpt lat="49.65212" lon="4.98942">
        <ele>157.79</ele>
        <time>2019-07-09T10:09:01Z</time>
      </trkpt>
      <trkpt lat="49.65199" lon="4.98931">
        <ele>158.75</ele>
        <time>2019-07-09T10:09:16Z</time>
      </trkpt>
      <trkpt lat="49.65183" lon="4.98916">
        <ele>158.27</ele>
        <time>2019-07-09T10:09:32Z</time>
      </trkpt>
      <trkpt lat="49.65172" lon="4.98905">
        <ele>157.31</ele>
        <time>2019-07-09T10:09:43Z</time>
      </trkpt>
      <trkpt lat="49.65156" lon="4.9889">
        <ele>157.31</ele>
        <time>2019-07-09T10:10:01Z</time>
      </trkpt>
      <trkpt lat="49.65137" lon="4.98873">
        <ele>155.39</ele>
        <time>2019-07-09T10:10:20Z</time>
      </trkpt>
      <trkpt lat="49.65129" lon="4.98866">
        <ele>154.91</ele>
        <time>2019-07-09T10:10:28Z</time>
      </trkpt>
      <trkpt lat="49.65116" lon="4.98854">
        <ele>154.91</ele>
        <time>2019-07-09T10:10:42Z</time>
      </trkpt>
      <trkpt lat="49.65103" lon="4.9884">
        <ele>155.87</ele>
        <time>2019-07-09T10:10:57Z</time>
      </trkpt>
      <trkpt lat="49.65102" lon="4.98839">
        <ele>156.35</ele>
        <time>2019-07-09T10:10:58Z</time>
      </trkpt>
      <trkpt lat="49.65098" lon="4.98834">
        <ele>156.83</ele>
        <time>2019-07-09T10:11:02Z</time>
      </trkpt>
      <trkpt lat="49.65081" lon="4.98818">
        <ele>158.27</ele>
        <time>2019-07-09T10:11:22Z</time>
      </trkpt>
      <trkpt lat="49.65066" lon="4.98803">
        <ele>159.72</ele>
        <time>2019-07-09T10:11:40Z</time>
      </trkpt>
      <trkpt lat="49.6505" lon="4.98787">
        <ele>160.2</ele>
        <time>2019-07-09T10:11:57Z</time>
      </trkpt>
      <trkpt lat="49.65036" lon="4.98773">
        <ele>160.68</ele>
        <time>2019-07-09T10:12:12Z</time>
      </trkpt>
      <trkpt lat="49.65022" lon="4.98759">
        <ele>161.16</ele>
        <time>2019-07-09T10:12:29Z</time>
      </trkpt>
      <trkpt lat="49.65008" lon="4.98747">
        <ele>162.12</ele>
        <time>2019-07-09T10:12:44Z</time>
      </trkpt>
      <trkpt lat="49.6499" lon="4.98732">
        <ele>162.12</ele>
        <time>2019-07-09T10:13:02Z</time>
      </trkpt>
      <trkpt lat="49.64972" lon="4.98715">
        <ele>162.12</ele>
        <time>2019-07-09T10:13:20Z</time>
      </trkpt>
      <trkpt lat="49.64954" lon="4.98699">
        <ele>164.52</ele>
        <time>2019-07-09T10:13:38Z</time>
      </trkpt>
      <trkpt lat="49.64937" lon="4.98686">
        <ele>164.52</ele>
        <time>2019-07-09T10:13:56Z</time>
      </trkpt>
      <trkpt lat="49.64923" lon="4.98677">
        <ele>162.12</ele>
        <time>2019-07-09T10:14:12Z</time>
      </trkpt>
      <trkpt lat="49.64908" lon="4.98669">
        <ele>162.12</ele>
        <time>2019-07-09T10:14:28Z</time>
      </trkpt>
      <trkpt lat="49.6489" lon="4.98658">
        <ele>162.6</ele>
        <time>2019-07-09T10:14:44Z</time>
      </trkpt>
      <trkpt lat="49.64874" lon="4.98647">
        <ele>164.52</ele>
        <time>2019-07-09T10:15:00Z</time>
      </trkpt>
      <trkpt lat="49.64856" lon="4.98635">
        <ele>165.48</ele>
        <time>2019-07-09T10:15:18Z</time>
      </trkpt>
      <trkpt lat="49.6484" lon="4.98626">
        <ele>165</ele>
        <time>2019-07-09T10:15:34Z</time>
      </trkpt>
      <trkpt lat="49.64833" lon="4.98622">
        <ele>164.04</ele>
        <time>2019-07-09T10:15:47Z</time>
      </trkpt>
      <trkpt lat="49.6483" lon="4.98619">
        <ele>162.12</ele>
        <time>2019-07-09T10:16:05Z</time>
      </trkpt>
      <trkpt lat="49.64828" lon="4.98617">
        <ele>160.2</ele>
        <time>2019-07-09T10:16:32Z</time>
      </trkpt>
      <trkpt lat="49.64827" lon="4.98616">
        <ele>160.2</ele>
        <time>2019-07-09T10:17:06Z</time>
      </trkpt>
      <trkpt lat="49.6482" lon="4.98612">
        <ele>161.16</ele>
        <time>2019-07-09T10:17:19Z</time>
      </trkpt>
      <trkpt lat="49.64807" lon="4.98605">
        <ele>162.12</ele>
        <time>2019-07-09T10:17:31Z</time>
      </trkpt>
      <trkpt lat="49.64799" lon="4.986">
        <ele>162.12</ele>
        <time>2019-07-09T10:17:56Z</time>
      </trkpt>
      <trkpt lat="49.64784" lon="4.9859">
        <ele>164.04</ele>
        <time>2019-07-09T10:18:13Z</time>
      </trkpt>
      <trkpt lat="49.64769" lon="4.98582">
        <ele>167.89</ele>
        <time>2019-07-09T10:18:30Z</time>
      </trkpt>
      <trkpt lat="49.64751" lon="4.98573">
        <ele>171.25</ele>
        <time>2019-07-09T10:18:48Z</time>
      </trkpt>
      <trkpt lat="49.64733" lon="4.98564">
        <ele>171.25</ele>
        <time>2019-07-09T10:19:05Z</time>
      </trkpt>
      <trkpt lat="49.64717" lon="4.98554">
        <ele>169.33</ele>
        <time>2019-07-09T10:19:21Z</time>
      </trkpt>
      <trkpt lat="49.6471" lon="4.9855">
        <ele>169.33</ele>
        <time>2019-07-09T10:19:26Z</time>
      </trkpt>
      <trkpt lat="49.64693" lon="4.98541">
        <ele>167.41</ele>
        <time>2019-07-09T10:19:42Z</time>
      </trkpt>
      <trkpt lat="49.64677" lon="4.98533">
        <ele>167.89</ele>
        <time>2019-07-09T10:19:57Z</time>
      </trkpt>
      <trkpt lat="49.6466" lon="4.98524">
        <ele>169.81</ele>
        <time>2019-07-09T10:20:13Z</time>
      </trkpt>
      <trkpt lat="49.64639" lon="4.98512">
        <ele>169.33</ele>
        <time>2019-07-09T10:20:32Z</time>
      </trkpt>
      <trkpt lat="49.64622" lon="4.98501">
        <ele>168.85</ele>
        <time>2019-07-09T10:20:49Z</time>
      </trkpt>
      <trkpt lat="49.64603" lon="4.9849">
        <ele>169.33</ele>
        <time>2019-07-09T10:21:07Z</time>
      </trkpt>
      <trkpt lat="49.64598" lon="4.98488">
        <ele>169.81</ele>
        <time>2019-07-09T10:21:12Z</time>
      </trkpt>
      <trkpt lat="49.64593" lon="4.98485">
        <ele>169.33</ele>
        <time>2019-07-09T10:21:17Z</time>
      </trkpt>
      <trkpt lat="49.64575" lon="4.98477">
        <ele>169.81</ele>
        <time>2019-07-09T10:21:36Z</time>
      </trkpt>
      <trkpt lat="49.64557" lon="4.98468">
        <ele>172.69</ele>
        <time>2019-07-09T10:21:55Z</time>
      </trkpt>
      <trkpt lat="49.64537" lon="4.98459">
        <ele>172.21</ele>
        <time>2019-07-09T10:22:13Z</time>
      </trkpt>
      <trkpt lat="49.64519" lon="4.98449">
        <ele>171.25</ele>
        <time>2019-07-09T10:22:31Z</time>
      </trkpt>
      <trkpt lat="49.64508" lon="4.98442">
        <ele>171.25</ele>
        <time>2019-07-09T10:22:46Z</time>
      </trkpt>
      <trkpt lat="49.64493" lon="4.98431">
        <ele>173.17</ele>
        <time>2019-07-09T10:23:00Z</time>
      </trkpt>
      <trkpt lat="49.64478" lon="4.98423">
        <ele>173.17</ele>
        <time>2019-07-09T10:23:16Z</time>
      </trkpt>
      <trkpt lat="49.64466" lon="4.98411">
        <ele>172.21</ele>
        <time>2019-07-09T10:23:29Z</time>
      </trkpt>
      <trkpt lat="49.64447" lon="4.98402">
        <ele>168.85</ele>
        <time>2019-07-09T10:23:47Z</time>
      </trkpt>
      <trkpt lat="49.64431" lon="4.98389">
        <ele>166.93</ele>
        <time>2019-07-09T10:24:03Z</time>
      </trkpt>
      <trkpt lat="49.64416" lon="4.98378">
        <ele>164.52</ele>
        <time>2019-07-09T10:24:18Z</time>
      </trkpt>
      <trkpt lat="49.64412" lon="4.98375">
        <ele>165</ele>
        <time>2019-07-09T10:24:22Z</time>
      </trkpt>
      <trkpt lat="49.64408" lon="4.9837">
        <ele>165.96</ele>
        <time>2019-07-09T10:24:27Z</time>
      </trkpt>
      <trkpt lat="49.64395" lon="4.98365">
        <ele>167.89</ele>
        <time>2019-07-09T10:24:40Z</time>
      </trkpt>
      <trkpt lat="49.64377" lon="4.98355">
        <ele>168.37</ele>
        <time>2019-07-09T10:24:56Z</time>
      </trkpt>
      <trkpt lat="49.64372" lon="4.98348">
        <ele>169.33</ele>
        <time>2019-07-09T10:25:03Z</time>
      </trkpt>
      <trkpt lat="49.64357" lon="4.98337">
        <ele>170.77</ele>
        <time>2019-07-09T10:25:18Z</time>
      </trkpt>
      <trkpt lat="49.64343" lon="4.98324">
        <ele>169.81</ele>
        <time>2019-07-09T10:25:34Z</time>
      </trkpt>
      <trkpt lat="49.64328" lon="4.98312">
        <ele>169.81</ele>
        <time>2019-07-09T10:25:50Z</time>
      </trkpt>
      <trkpt lat="49.6431" lon="4.98296">
        <ele>168.85</ele>
        <time>2019-07-09T10:26:07Z</time>
      </trkpt>
      <trkpt lat="49.64297" lon="4.98286">
        <ele>168.37</ele>
        <time>2019-07-09T10:26:23Z</time>
      </trkpt>
      <trkpt lat="49.64281" lon="4.9827">
        <ele>167.41</ele>
        <time>2019-07-09T10:26:40Z</time>
      </trkpt>
      <trkpt lat="49.64267" lon="4.98257">
        <ele>166.45</ele>
        <time>2019-07-09T10:26:56Z</time>
      </trkpt>
      <trkpt lat="49.64265" lon="4.98256">
        <ele>166.45</ele>
        <time>2019-07-09T10:26:58Z</time>
      </trkpt>
      <trkpt lat="49.6425" lon="4.98241">
        <ele>164.52</ele>
        <time>2019-07-09T10:27:15Z</time>
      </trkpt>
      <trkpt lat="49.64235" lon="4.98229">
        <ele>167.41</ele>
        <time>2019-07-09T10:27:29Z</time>
      </trkpt>
      <trkpt lat="49.64228" lon="4.98222">
        <ele>166.45</ele>
        <time>2019-07-09T10:27:39Z</time>
      </trkpt>
      <trkpt lat="49.64211" lon="4.98205">
        <ele>166.93</ele>
        <time>2019-07-09T10:27:57Z</time>
      </trkpt>
      <trkpt lat="49.64208" lon="4.98202">
        <ele>166.93</ele>
        <time>2019-07-09T10:28:01Z</time>
      </trkpt>
      <trkpt lat="49.642" lon="4.98195">
        <ele>166.93</ele>
        <time>2019-07-09T10:28:08Z</time>
      </trkpt>
      <trkpt lat="49.64183" lon="4.98181">
        <ele>166.93</ele>
        <time>2019-07-09T10:28:27Z</time>
      </trkpt>
      <trkpt lat="49.64171" lon="4.98173">
        <ele>166.45</ele>
        <time>2019-07-09T10:28:39Z</time>
      </trkpt>
      <trkpt lat="49.64155" lon="4.98159">
        <ele>166.93</ele>
        <time>2019-07-09T10:28:57Z</time>
      </trkpt>
      <trkpt lat="49.64144" lon="4.98146">
        <ele>170.77</ele>
        <time>2019-07-09T10:29:13Z</time>
      </trkpt>
      <trkpt lat="49.64127" lon="4.9813">
        <ele>171.25</ele>
        <time>2019-07-09T10:29:31Z</time>
      </trkpt>
      <trkpt lat="49.6411" lon="4.98113">
        <ele>169.33</ele>
        <time>2019-07-09T10:29:50Z</time>
      </trkpt>
      <trkpt lat="49.64095" lon="4.98098">
        <ele>169.81</ele>
        <time>2019-07-09T10:30:08Z</time>
      </trkpt>
      <trkpt lat="49.6408" lon="4.98083">
        <ele>168.85</ele>
        <time>2019-07-09T10:30:25Z</time>
      </trkpt>
      <trkpt lat="49.64063" lon="4.98069">
        <ele>168.37</ele>
        <time>2019-07-09T10:30:40Z</time>
      </trkpt>
      <trkpt lat="49.64049" lon="4.98056">
        <ele>167.89</ele>
        <time>2019-07-09T10:30:55Z</time>
      </trkpt>
      <trkpt lat="49.64034" lon="4.98041">
        <ele>168.37</ele>
        <time>2019-07-09T10:31:13Z</time>
      </trkpt>
      <trkpt lat="49.64017" lon="4.98023">
        <ele>166.45</ele>
        <time>2019-07-09T10:31:32Z</time>
      </trkpt>
      <trkpt lat="49.64" lon="4.98007">
        <ele>167.89</ele>
        <time>2019-07-09T10:31:52Z</time>
      </trkpt>
      <trkpt lat="49.63984" lon="4.97996">
        <ele>166.93</ele>
        <time>2019-07-09T10:32:09Z</time>
      </trkpt>
      <trkpt lat="49.63977" lon="4.97986">
        <ele>166.93</ele>
        <time>2019-07-09T10:32:19Z</time>
      </trkpt>
      <trkpt lat="49.63958" lon="4.9797">
        <ele>164.04</ele>
        <time>2019-07-09T10:32:34Z</time>
      </trkpt>
      <trkpt lat="49.63946" lon="4.97958">
        <ele>163.08</ele>
        <time>2019-07-09T10:32:48Z</time>
      </trkpt>
      <trkpt lat="49.63933" lon="4.97943">
        <ele>169.33</ele>
        <time>2019-07-09T10:33:07Z</time>
      </trkpt>
      <trkpt lat="49.63917" lon="4.97931">
        <ele>170.29</ele>
        <time>2019-07-09T10:33:25Z</time>
      </trkpt>
      <trkpt lat="49.63901" lon="4.97918">
        <ele>169.81</ele>
        <time>2019-07-09T10:33:41Z</time>
      </trkpt>
      <trkpt lat="49.63887" lon="4.97904">
        <ele>170.29</ele>
        <time>2019-07-09T10:33:57Z</time>
      </trkpt>
      <trkpt lat="49.63874" lon="4.9789">
        <ele>170.29</ele>
        <time>2019-07-09T10:34:14Z</time>
      </trkpt>
      <trkpt lat="49.6386" lon="4.97873">
        <ele>171.73</ele>
        <time>2019-07-09T10:34:30Z</time>
      </trkpt>
      <trkpt lat="49.63847" lon="4.9786">
        <ele>173.17</ele>
        <time>2019-07-09T10:34:46Z</time>
      </trkpt>
      <trkpt lat="49.6383" lon="4.9785">
        <ele>175.1</ele>
        <time>2019-07-09T10:35:00Z</time>
      </trkpt>
      <trkpt lat="49.63825" lon="4.97847">
        <ele>175.58</ele>
        <time>2019-07-09T10:35:06Z</time>
      </trkpt>
      <trkpt lat="49.63811" lon="4.9783">
        <ele>176.54</ele>
        <time>2019-07-09T10:35:22Z</time>
      </trkpt>
      <trkpt lat="49.6381" lon="4.97829">
        <ele>177.02</ele>
        <time>2019-07-09T10:35:24Z</time>
      </trkpt>
      <trkpt lat="49.63792" lon="4.97815">
        <ele>176.54</ele>
        <time>2019-07-09T10:35:39Z</time>
      </trkpt>
      <trkpt lat="49.63782" lon="4.97802">
        <ele>174.14</ele>
        <time>2019-07-09T10:35:52Z</time>
      </trkpt>
      <trkpt lat="49.63769" lon="4.97788">
        <ele>175.58</ele>
        <time>2019-07-09T10:36:09Z</time>
      </trkpt>
      <trkpt lat="49.63762" lon="4.97782">
        <ele>177.02</ele>
        <time>2019-07-09T10:36:17Z</time>
      </trkpt>
      <trkpt lat="49.63742" lon="4.97768">
        <ele>178.46</ele>
        <time>2019-07-09T10:36:36Z</time>
      </trkpt>
      <trkpt lat="49.63727" lon="4.97756">
        <ele>178.94</ele>
        <time>2019-07-09T10:36:52Z</time>
      </trkpt>
      <trkpt lat="49.63718" lon="4.97749">
        <ele>177.98</ele>
        <time>2019-07-09T10:37:00Z</time>
      </trkpt>
      <trkpt lat="49.63703" lon="4.97734">
        <ele>175.1</ele>
        <time>2019-07-09T10:37:17Z</time>
      </trkpt>
      <trkpt lat="49.63688" lon="4.97723">
        <ele>176.54</ele>
        <time>2019-07-09T10:37:34Z</time>
      </trkpt>
      <trkpt lat="49.63686" lon="4.97722">
        <ele>177.02</ele>
        <time>2019-07-09T10:37:36Z</time>
      </trkpt>
      <trkpt lat="49.63684" lon="4.97721">
        <ele>177.5</ele>
        <time>2019-07-09T10:37:38Z</time>
      </trkpt>
      <trkpt lat="49.63672" lon="4.97712">
        <ele>177.5</ele>
        <time>2019-07-09T10:37:50Z</time>
      </trkpt>
      <trkpt lat="49.63657" lon="4.97701">
        <ele>177.98</ele>
        <time>2019-07-09T10:38:06Z</time>
      </trkpt>
      <trkpt lat="49.63643" lon="4.97689">
        <ele>178.94</ele>
        <time>2019-07-09T10:38:22Z</time>
      </trkpt>
      <trkpt lat="49.63629" lon="4.97676">
        <ele>179.42</ele>
        <time>2019-07-09T10:38:37Z</time>
      </trkpt>
      <trkpt lat="49.63613" lon="4.97666">
        <ele>178.46</ele>
        <time>2019-07-09T10:38:52Z</time>
      </trkpt>
      <trkpt lat="49.63612" lon="4.97666">
        <ele>178.46</ele>
        <time>2019-07-09T10:38:53Z</time>
      </trkpt>
      <trkpt lat="49.63594" lon="4.97676">
        <ele>177.5</ele>
        <time>2019-07-09T10:39:09Z</time>
      </trkpt>
      <trkpt lat="49.63577" lon="4.9769">
        <ele>173.66</ele>
        <time>2019-07-09T10:39:25Z</time>
      </trkpt>
      <trkpt lat="49.63566" lon="4.97701">
        <ele>174.62</ele>
        <time>2019-07-09T10:39:39Z</time>
      </trkpt>
      <trkpt lat="49.63553" lon="4.97716">
        <ele>176.54</ele>
        <time>2019-07-09T10:39:55Z</time>
      </trkpt>
      <trkpt lat="49.63544" lon="4.97732">
        <ele>176.54</ele>
        <time>2019-07-09T10:40:08Z</time>
      </trkpt>
      <trkpt lat="49.63537" lon="4.97752">
        <ele>174.62</ele>
        <time>2019-07-09T10:40:23Z</time>
      </trkpt>
      <trkpt lat="49.63528" lon="4.97773">
        <ele>173.17</ele>
        <time>2019-07-09T10:40:38Z</time>
      </trkpt>
      <trkpt lat="49.63516" lon="4.9779">
        <ele>173.66</ele>
        <time>2019-07-09T10:40:54Z</time>
      </trkpt>
      <trkpt lat="49.63502" lon="4.97809">
        <ele>177.98</ele>
        <time>2019-07-09T10:41:11Z</time>
      </trkpt>
      <trkpt lat="49.63488" lon="4.97827">
        <ele>179.9</ele>
        <time>2019-07-09T10:41:28Z</time>
      </trkpt>
      <trkpt lat="49.63479" lon="4.97835">
        <ele>180.87</ele>
        <time>2019-07-09T10:41:37Z</time>
      </trkpt>
      <trkpt lat="49.63468" lon="4.97854">
        <ele>181.35</ele>
        <time>2019-07-09T10:41:52Z</time>
      </trkpt>
      <trkpt lat="49.63457" lon="4.97871">
        <ele>185.67</ele>
        <time>2019-07-09T10:42:07Z</time>
      </trkpt>
      <trkpt lat="49.63444" lon="4.97883">
        <ele>188.56</ele>
        <time>2019-07-09T10:42:21Z</time>
      </trkpt>
      <trkpt lat="49.6343" lon="4.97898">
        <ele>191.92</ele>
        <time>2019-07-09T10:42:37Z</time>
      </trkpt>
      <trkpt lat="49.63416" lon="4.97905">
        <ele>191.92</ele>
        <time>2019-07-09T10:42:50Z</time>
      </trkpt>
      <trkpt lat="49.63402" lon="4.97914">
        <ele>189.52</ele>
        <time>2019-07-09T10:43:04Z</time>
      </trkpt>
      <trkpt lat="49.63393" lon="4.97922">
        <ele>187.11</ele>
        <time>2019-07-09T10:43:15Z</time>
      </trkpt>
      <trkpt lat="49.63382" lon="4.97933">
        <ele>188.08</ele>
        <time>2019-07-09T10:43:27Z</time>
      </trkpt>
      <trkpt lat="49.63388" lon="4.97956">
        <ele>185.19</ele>
        <time>2019-07-09T10:43:42Z</time>
      </trkpt>
      <trkpt lat="49.63394" lon="4.97969">
        <ele>184.71</ele>
        <time>2019-07-09T10:43:52Z</time>
      </trkpt>
      <trkpt lat="49.63398" lon="4.97975">
        <ele>184.23</ele>
        <time>2019-07-09T10:43:56Z</time>
      </trkpt>
      <trkpt lat="49.63405" lon="4.97999">
        <ele>185.19</ele>
        <time>2019-07-09T10:44:11Z</time>
      </trkpt>
      <trkpt lat="49.6341" lon="4.98013">
        <ele>185.19</ele>
        <time>2019-07-09T10:44:21Z</time>
      </trkpt>
      <trkpt lat="49.63425" lon="4.9803">
        <ele>184.71</ele>
        <time>2019-07-09T10:44:37Z</time>
      </trkpt>
      <trkpt lat="49.63435" lon="4.98045">
        <ele>184.71</ele>
        <time>2019-07-09T10:44:50Z</time>
      </trkpt>
      <trkpt lat="49.63442" lon="4.9805">
        <ele>184.71</ele>
        <time>2019-07-09T10:45:03Z</time>
      </trkpt>
      <trkpt lat="49.63446" lon="4.98049">
        <ele>184.71</ele>
        <time>2019-07-09T10:45:14Z</time>
      </trkpt>
    </trkseg>
  </trk>
  <trk>
    <name><![CDATA[Tracé actuel: 29 JUIL 2019 08:01]]></name>
    <trkseg>
      <trkpt lat="49.63465" lon="4.98033">
        <ele>181.83</ele>
        <time>2019-07-29T06:01:50Z</time>
      </trkpt>
      <trkpt lat="49.63462" lon="4.98035">
        <ele>175.1</ele>
        <time>2019-07-29T06:02:06Z</time>
      </trkpt>
    </trkseg>
  </trk>
  <trk>
    <name><![CDATA[Tracé actuel: 30 JUIL 2019 08:18]]></name>
    <trkseg>
      <trkpt lat="49.63435" lon="4.98034">
        <ele>184.23</ele>
        <time>2019-07-30T06:18:32Z</time>
      </trkpt>
      <trkpt lat="49.63443" lon="4.98034">
        <ele>177.98</ele>
        <time>2019-07-30T06:19:03Z</time>
      </trkpt>
      <trkpt lat="49.63447" lon="4.9804">
        <ele>177.5</ele>
        <time>2019-07-30T06:19:32Z</time>
      </trkpt>
      <trkpt lat="49.63457" lon="4.98039">
        <ele>183.27</ele>
        <time>2019-07-30T06:19:55Z</time>
      </trkpt>
      <trkpt lat="49.63446" lon="4.98054">
        <ele>187.11</ele>
        <time>2019-07-30T06:20:14Z</time>
      </trkpt>
      <trkpt lat="49.63443" lon="4.98043">
        <ele>188.08</ele>
        <time>2019-07-30T06:20:29Z</time>
      </trkpt>
      <trkpt lat="49.63432" lon="4.98027">
        <ele>188.08</ele>
        <time>2019-07-30T06:20:46Z</time>
      </trkpt>
      <trkpt lat="49.63428" lon="4.98023">
        <ele>187.59</ele>
        <time>2019-07-30T06:20:51Z</time>
      </trkpt>
      <trkpt lat="49.63414" lon="4.9801">
        <ele>183.27</ele>
        <time>2019-07-30T06:21:06Z</time>
      </trkpt>
      <trkpt lat="49.63401" lon="4.97991">
        <ele>180.87</ele>
        <time>2019-07-30T06:21:21Z</time>
      </trkpt>
      <trkpt lat="49.63395" lon="4.9798">
        <ele>179.9</ele>
        <time>2019-07-30T06:21:30Z</time>
      </trkpt>
      <trkpt lat="49.63391" lon="4.9796">
        <ele>178.94</ele>
        <time>2019-07-30T06:21:47Z</time>
      </trkpt>
      <trkpt lat="49.63387" lon="4.97942">
        <ele>174.14</ele>
        <time>2019-07-30T06:22:03Z</time>
      </trkpt>
      <trkpt lat="49.63392" lon="4.97935">
        <ele>171.73</ele>
        <time>2019-07-30T06:22:17Z</time>
      </trkpt>
      <trkpt lat="49.63406" lon="4.97925">
        <ele>169.33</ele>
        <time>2019-07-30T06:22:33Z</time>
      </trkpt>
      <trkpt lat="49.63423" lon="4.97914">
        <ele>167.41</ele>
        <time>2019-07-30T06:22:50Z</time>
      </trkpt>
      <trkpt lat="49.63433" lon="4.97907">
        <ele>166.93</ele>
        <time>2019-07-30T06:23:02Z</time>
      </trkpt>
      <trkpt lat="49.63454" lon="4.97897">
        <ele>166.45</ele>
        <time>2019-07-30T06:23:22Z</time>
      </trkpt>
      <trkpt lat="49.6347" lon="4.97882">
        <ele>162.12</ele>
        <time>2019-07-30T06:23:41Z</time>
      </trkpt>
      <trkpt lat="49.63475" lon="4.97874">
        <ele>161.16</ele>
        <time>2019-07-30T06:23:47Z</time>
      </trkpt>
      <trkpt lat="49.63482" lon="4.97862">
        <ele>161.64</ele>
        <time>2019-07-30T06:23:57Z</time>
      </trkpt>
      <trkpt lat="49.63491" lon="4.9784">
        <ele>163.08</ele>
        <time>2019-07-30T06:24:15Z</time>
      </trkpt>
      <trkpt lat="49.63499" lon="4.97826">
        <ele>163.08</ele>
        <time>2019-07-30T06:24:27Z</time>
      </trkpt>
      <trkpt lat="49.63516" lon="4.97815">
        <ele>165.96</ele>
        <time>2019-07-30T06:24:42Z</time>
      </trkpt>
      <trkpt lat="49.63526" lon="4.978">
        <ele>165.96</ele>
        <time>2019-07-30T06:24:57Z</time>
      </trkpt>
      <trkpt lat="49.63538" lon="4.97783">
        <ele>166.45</ele>
        <time>2019-07-30T06:25:14Z</time>
      </trkpt>
      <trkpt lat="49.63553" lon="4.97759">
        <ele>165.48</ele>
        <time>2019-07-30T06:25:31Z</time>
      </trkpt>
      <trkpt lat="49.63563" lon="4.97734">
        <ele>162.12</ele>
        <time>2019-07-30T06:25:48Z</time>
      </trkpt>
      <trkpt lat="49.6357" lon="4.97717">
        <ele>159.24</ele>
        <time>2019-07-30T06:26:02Z</time>
      </trkpt>
      <trkpt lat="49.63572" lon="4.97711">
        <ele>159.24</ele>
        <time>2019-07-30T06:26:05Z</time>
      </trkpt>
      <trkpt lat="49.63584" lon="4.97696">
        <ele>162.6</ele>
        <time>2019-07-30T06:26:20Z</time>
      </trkpt>
      <trkpt lat="49.63594" lon="4.9768">
        <ele>161.16</ele>
        <time>2019-07-30T06:26:35Z</time>
      </trkpt>
      <trkpt lat="49.63607" lon="4.97672">
        <ele>163.08</ele>
        <time>2019-07-30T06:26:48Z</time>
      </trkpt>
      <trkpt lat="49.63612" lon="4.97666">
        <ele>164.52</ele>
        <time>2019-07-30T06:27:06Z</time>
      </trkpt>
      <trkpt lat="49.63612" lon="4.97664">
        <ele>165</ele>
        <time>2019-07-30T06:27:16Z</time>
      </trkpt>
      <trkpt lat="49.63622" lon="4.97675">
        <ele>165.48</ele>
        <time>2019-07-30T06:27:31Z</time>
      </trkpt>
      <trkpt lat="49.63624" lon="4.97677">
        <ele>165.48</ele>
        <time>2019-07-30T06:27:33Z</time>
      </trkpt>
      <trkpt lat="49.6363" lon="4.97684">
        <ele>165</ele>
        <time>2019-07-30T06:27:48Z</time>
      </trkpt>
      <trkpt lat="49.63631" lon="4.97683">
        <ele>164.52</ele>
        <time>2019-07-30T06:28:08Z</time>
      </trkpt>
      <trkpt lat="49.63632" lon="4.97681">
        <ele>166.45</ele>
        <time>2019-07-30T06:28:36Z</time>
      </trkpt>
      <trkpt lat="49.63633" lon="4.97681">
        <ele>166.45</ele>
        <time>2019-07-30T06:28:57Z</time>
      </trkpt>
      <trkpt lat="49.63632" lon="4.9768">
        <ele>166.45</ele>
        <time>2019-07-30T06:29:17Z</time>
      </trkpt>
      <trkpt lat="49.63632" lon="4.97679">
        <ele>167.89</ele>
        <time>2019-07-30T06:29:45Z</time>
      </trkpt>
      <trkpt lat="49.63632" lon="4.97679">
        <ele>168.37</ele>
        <time>2019-07-30T06:30:03Z</time>
      </trkpt>
      <trkpt lat="49.63632" lon="4.97679">
        <ele>168.85</ele>
        <time>2019-07-30T06:30:18Z</time>
      </trkpt>
      <trkpt lat="49.63632" lon="4.97678">
        <ele>169.81</ele>
        <time>2019-07-30T06:30:46Z</time>
      </trkpt>
      <trkpt lat="49.63632" lon="4.97678">
        <ele>170.29</ele>
        <time>2019-07-30T06:31:14Z</time>
      </trkpt>
      <trkpt lat="49.63632" lon="4.97678">
        <ele>170.29</ele>
        <time>2019-07-30T06:31:33Z</time>
      </trkpt>
      <trkpt lat="49.63634" lon="4.97683">
        <ele>169.33</ele>
        <time>2019-07-30T06:31:50Z</time>
      </trkpt>
      <trkpt lat="49.6365" lon="4.97701">
        <ele>165.96</ele>
        <time>2019-07-30T06:32:07Z</time>
      </trkpt>
      <trkpt lat="49.63662" lon="4.97714">
        <ele>165.48</ele>
        <time>2019-07-30T06:32:22Z</time>
      </trkpt>
      <trkpt lat="49.63683" lon="4.9773">
        <ele>165</ele>
        <time>2019-07-30T06:32:41Z</time>
      </trkpt>
      <trkpt lat="49.63699" lon="4.97739">
        <ele>163.56</ele>
        <time>2019-07-30T06:32:57Z</time>
      </trkpt>
      <trkpt lat="49.63718" lon="4.97756">
        <ele>167.41</ele>
        <time>2019-07-30T06:33:17Z</time>
      </trkpt>
      <trkpt lat="49.63731" lon="4.9777">
        <ele>165</ele>
        <time>2019-07-30T06:33:32Z</time>
      </trkpt>
      <trkpt lat="49.63746" lon="4.97779">
        <ele>164.04</ele>
        <time>2019-07-30T06:33:46Z</time>
      </trkpt>
      <trkpt lat="49.63763" lon="4.97792">
        <ele>163.56</ele>
        <time>2019-07-30T06:34:02Z</time>
      </trkpt>
      <trkpt lat="49.6378" lon="4.97806">
        <ele>163.08</ele>
        <time>2019-07-30T06:34:18Z</time>
      </trkpt>
      <trkpt lat="49.63794" lon="4.97822">
        <ele>162.6</ele>
        <time>2019-07-30T06:34:35Z</time>
      </trkpt>
      <trkpt lat="49.63801" lon="4.97829">
        <ele>163.08</ele>
        <time>2019-07-30T06:34:42Z</time>
      </trkpt>
      <trkpt lat="49.63813" lon="4.97841">
        <ele>161.64</ele>
        <time>2019-07-30T06:34:54Z</time>
      </trkpt>
      <trkpt lat="49.63828" lon="4.97855">
        <ele>160.68</ele>
        <time>2019-07-30T06:35:09Z</time>
      </trkpt>
      <trkpt lat="49.63844" lon="4.97868">
        <ele>160.68</ele>
        <time>2019-07-30T06:35:25Z</time>
      </trkpt>
      <trkpt lat="49.63856" lon="4.97882">
        <ele>160.68</ele>
        <time>2019-07-30T06:35:38Z</time>
      </trkpt>
      <trkpt lat="49.63859" lon="4.97884">
        <ele>160.2</ele>
        <time>2019-07-30T06:35:41Z</time>
      </trkpt>
      <trkpt lat="49.63874" lon="4.97897">
        <ele>156.83</ele>
        <time>2019-07-30T06:35:56Z</time>
      </trkpt>
      <trkpt lat="49.63889" lon="4.97913">
        <ele>157.79</ele>
        <time>2019-07-30T06:36:15Z</time>
      </trkpt>
      <trkpt lat="49.63905" lon="4.97927">
        <ele>157.79</ele>
        <time>2019-07-30T06:36:31Z</time>
      </trkpt>
      <trkpt lat="49.63919" lon="4.97944">
        <ele>158.27</ele>
        <time>2019-07-30T06:36:46Z</time>
      </trkpt>
      <trkpt lat="49.63937" lon="4.97958">
        <ele>164.04</ele>
        <time>2019-07-30T06:37:05Z</time>
      </trkpt>
      <trkpt lat="49.63952" lon="4.97972">
        <ele>162.6</ele>
        <time>2019-07-30T06:37:20Z</time>
      </trkpt>
      <trkpt lat="49.6397" lon="4.97989">
        <ele>163.56</ele>
        <time>2019-07-30T06:37:39Z</time>
      </trkpt>
      <trkpt lat="49.63984" lon="4.98004">
        <ele>163.56</ele>
        <time>2019-07-30T06:37:55Z</time>
      </trkpt>
      <trkpt lat="49.63999" lon="4.98018">
        <ele>161.64</ele>
        <time>2019-07-30T06:38:10Z</time>
      </trkpt>
      <trkpt lat="49.64012" lon="4.9803">
        <ele>161.16</ele>
        <time>2019-07-30T06:38:22Z</time>
      </trkpt>
      <trkpt lat="49.64027" lon="4.98044">
        <ele>163.56</ele>
        <time>2019-07-30T06:38:38Z</time>
      </trkpt>
      <trkpt lat="49.64039" lon="4.98055">
        <ele>165.48</ele>
        <time>2019-07-30T06:38:51Z</time>
      </trkpt>
      <trkpt lat="49.64052" lon="4.98065">
        <ele>166.45</ele>
        <time>2019-07-30T06:39:05Z</time>
      </trkpt>
      <trkpt lat="49.64067" lon="4.98081">
        <ele>164.52</ele>
        <time>2019-07-30T06:39:20Z</time>
      </trkpt>
      <trkpt lat="49.64081" lon="4.98095">
        <ele>164.04</ele>
        <time>2019-07-30T06:39:36Z</time>
      </trkpt>
      <trkpt lat="49.64097" lon="4.98109">
        <ele>163.08</ele>
        <time>2019-07-30T06:39:52Z</time>
      </trkpt>
      <trkpt lat="49.64109" lon="4.98119">
        <ele>161.64</ele>
        <time>2019-07-30T06:40:05Z</time>
      </trkpt>
      <trkpt lat="49.64126" lon="4.98135">
        <ele>165.48</ele>
        <time>2019-07-30T06:40:22Z</time>
      </trkpt>
      <trkpt lat="49.64134" lon="4.98143">
        <ele>166.93</ele>
        <time>2019-07-30T06:40:32Z</time>
      </trkpt>
      <trkpt lat="49.64147" lon="4.98157">
        <ele>165.96</ele>
        <time>2019-07-30T06:40:45Z</time>
      </trkpt>
      <trkpt lat="49.64161" lon="4.98171">
        <ele>165.96</ele>
        <time>2019-07-30T06:41:00Z</time>
      </trkpt>
      <trkpt lat="49.6418" lon="4.98185">
        <ele>165</ele>
        <time>2019-07-30T06:41:19Z</time>
      </trkpt>
      <trkpt lat="49.64188" lon="4.98191">
        <ele>165.48</ele>
        <time>2019-07-30T06:41:30Z</time>
      </trkpt>
      <trkpt lat="49.64209" lon="4.98213">
        <ele>162.6</ele>
        <time>2019-07-30T06:41:50Z</time>
      </trkpt>
      <trkpt lat="49.64229" lon="4.98229">
        <ele>163.56</ele>
        <time>2019-07-30T06:42:08Z</time>
      </trkpt>
      <trkpt lat="49.64236" lon="4.98239">
        <ele>164.04</ele>
        <time>2019-07-30T06:42:19Z</time>
      </trkpt>
      <trkpt lat="49.64241" lon="4.98243">
        <ele>164.52</ele>
        <time>2019-07-30T06:42:23Z</time>
      </trkpt>
      <trkpt lat="49.64258" lon="4.98259">
        <ele>162.6</ele>
        <time>2019-07-30T06:42:42Z</time>
      </trkpt>
      <trkpt lat="49.64271" lon="4.98271">
        <ele>162.6</ele>
        <time>2019-07-30T06:42:57Z</time>
      </trkpt>
      <trkpt lat="49.64285" lon="4.98285">
        <ele>164.04</ele>
        <time>2019-07-30T06:43:13Z</time>
      </trkpt>
      <trkpt lat="49.64298" lon="4.98296">
        <ele>164.04</ele>
        <time>2019-07-30T06:43:27Z</time>
      </trkpt>
      <trkpt lat="49.64316" lon="4.98312">
        <ele>162.6</ele>
        <time>2019-07-30T06:43:45Z</time>
      </trkpt>
      <trkpt lat="49.64328" lon="4.98321">
        <ele>163.08</ele>
        <time>2019-07-30T06:43:57Z</time>
      </trkpt>
      <trkpt lat="49.64347" lon="4.98336">
        <ele>163.08</ele>
        <time>2019-07-30T06:44:14Z</time>
      </trkpt>
      <trkpt lat="49.64363" lon="4.98347">
        <ele>162.12</ele>
        <time>2019-07-30T06:44:31Z</time>
      </trkpt>
      <trkpt lat="49.6438" lon="4.98361">
        <ele>164.04</ele>
        <time>2019-07-30T06:44:47Z</time>
      </trkpt>
      <trkpt lat="49.64393" lon="4.98368">
        <ele>163.08</ele>
        <time>2019-07-30T06:45:02Z</time>
      </trkpt>
      <trkpt lat="49.64409" lon="4.98383">
        <ele>163.56</ele>
        <time>2019-07-30T06:45:17Z</time>
      </trkpt>
      <trkpt lat="49.64427" lon="4.98396">
        <ele>164.04</ele>
        <time>2019-07-30T06:45:36Z</time>
      </trkpt>
      <trkpt lat="49.64442" lon="4.98402">
        <ele>160.68</ele>
        <time>2019-07-30T06:45:51Z</time>
      </trkpt>
      <trkpt lat="49.64454" lon="4.98412">
        <ele>161.64</ele>
        <time>2019-07-30T06:46:02Z</time>
      </trkpt>
      <trkpt lat="49.64469" lon="4.98419">
        <ele>159.24</ele>
        <time>2019-07-30T06:46:18Z</time>
      </trkpt>
      <trkpt lat="49.64489" lon="4.98433">
        <ele>158.75</ele>
        <time>2019-07-30T06:46:36Z</time>
      </trkpt>
      <trkpt lat="49.64506" lon="4.98442">
        <ele>159.24</ele>
        <time>2019-07-30T06:46:54Z</time>
      </trkpt>
      <trkpt lat="49.64527" lon="4.98454">
        <ele>160.2</ele>
        <time>2019-07-30T06:47:12Z</time>
      </trkpt>
      <trkpt lat="49.64548" lon="4.98465">
        <ele>159.72</ele>
        <time>2019-07-30T06:47:30Z</time>
      </trkpt>
      <trkpt lat="49.64566" lon="4.98474">
        <ele>158.75</ele>
        <time>2019-07-30T06:47:47Z</time>
      </trkpt>
      <trkpt lat="49.64583" lon="4.98485">
        <ele>158.75</ele>
        <time>2019-07-30T06:48:03Z</time>
      </trkpt>
      <trkpt lat="49.64599" lon="4.98493">
        <ele>159.72</ele>
        <time>2019-07-30T06:48:20Z</time>
      </trkpt>
      <trkpt lat="49.64603" lon="4.98493">
        <ele>158.27</ele>
        <time>2019-07-30T06:48:28Z</time>
      </trkpt>
      <trkpt lat="49.64599" lon="4.98491">
        <ele>160.2</ele>
        <time>2019-07-30T06:48:43Z</time>
      </trkpt>
      <trkpt lat="49.64606" lon="4.98492">
        <ele>159.72</ele>
        <time>2019-07-30T06:48:57Z</time>
      </trkpt>
      <trkpt lat="49.64607" lon="4.98493">
        <ele>159.24</ele>
        <time>2019-07-30T06:48:58Z</time>
      </trkpt>
      <trkpt lat="49.64624" lon="4.98504">
        <ele>156.35</ele>
        <time>2019-07-30T06:49:16Z</time>
      </trkpt>
      <trkpt lat="49.64642" lon="4.98514">
        <ele>156.35</ele>
        <time>2019-07-30T06:49:31Z</time>
      </trkpt>
      <trkpt lat="49.64654" lon="4.98523">
        <ele>158.27</ele>
        <time>2019-07-30T06:49:43Z</time>
      </trkpt>
      <trkpt lat="49.64671" lon="4.98533">
        <ele>157.31</ele>
        <time>2019-07-30T06:49:59Z</time>
      </trkpt>
      <trkpt lat="49.64672" lon="4.98533">
        <ele>157.31</ele>
        <time>2019-07-30T06:50:00Z</time>
      </trkpt>
      <trkpt lat="49.64689" lon="4.9854">
        <ele>156.35</ele>
        <time>2019-07-30T06:50:17Z</time>
      </trkpt>
      <trkpt lat="49.64707" lon="4.98548">
        <ele>153.95</ele>
        <time>2019-07-30T06:50:33Z</time>
      </trkpt>
      <trkpt lat="49.6472" lon="4.98554">
        <ele>152.51</ele>
        <time>2019-07-30T06:50:47Z</time>
      </trkpt>
      <trkpt lat="49.64739" lon="4.98563">
        <ele>152.51</ele>
        <time>2019-07-30T06:51:05Z</time>
      </trkpt>
      <trkpt lat="49.64758" lon="4.98572">
        <ele>152.51</ele>
        <time>2019-07-30T06:51:23Z</time>
      </trkpt>
      <trkpt lat="49.64762" lon="4.98575">
        <ele>152.99</ele>
        <time>2019-07-30T06:51:27Z</time>
      </trkpt>
      <trkpt lat="49.64778" lon="4.98583">
        <ele>153.47</ele>
        <time>2019-07-30T06:51:42Z</time>
      </trkpt>
      <trkpt lat="49.64796" lon="4.98597">
        <ele>155.87</ele>
        <time>2019-07-30T06:52:00Z</time>
      </trkpt>
      <trkpt lat="49.64812" lon="4.98606">
        <ele>157.31</ele>
        <time>2019-07-30T06:52:16Z</time>
      </trkpt>
      <trkpt lat="49.64834" lon="4.9862">
        <ele>154.91</ele>
        <time>2019-07-30T06:52:35Z</time>
      </trkpt>
      <trkpt lat="49.64857" lon="4.98635">
        <ele>154.43</ele>
        <time>2019-07-30T06:52:57Z</time>
      </trkpt>
      <trkpt lat="49.64873" lon="4.98647">
        <ele>154.43</ele>
        <time>2019-07-30T06:53:15Z</time>
      </trkpt>
      <trkpt lat="49.6489" lon="4.98658">
        <ele>154.43</ele>
        <time>2019-07-30T06:53:32Z</time>
      </trkpt>
      <trkpt lat="49.6491" lon="4.98671">
        <ele>152.03</ele>
        <time>2019-07-30T06:53:52Z</time>
      </trkpt>
      <trkpt lat="49.6493" lon="4.9868">
        <ele>153.95</ele>
        <time>2019-07-30T06:54:10Z</time>
      </trkpt>
      <trkpt lat="49.64944" lon="4.98692">
        <ele>154.43</ele>
        <time>2019-07-30T06:54:26Z</time>
      </trkpt>
      <trkpt lat="49.64961" lon="4.98706">
        <ele>154.91</ele>
        <time>2019-07-30T06:54:43Z</time>
      </trkpt>
      <trkpt lat="49.6498" lon="4.98723">
        <ele>155.87</ele>
        <time>2019-07-30T06:55:02Z</time>
      </trkpt>
      <trkpt lat="49.64997" lon="4.98739">
        <ele>156.83</ele>
        <time>2019-07-30T06:55:21Z</time>
      </trkpt>
      <trkpt lat="49.65006" lon="4.98744">
        <ele>155.87</ele>
        <time>2019-07-30T06:55:29Z</time>
      </trkpt>
      <trkpt lat="49.65022" lon="4.9876">
        <ele>154.91</ele>
        <time>2019-07-30T06:55:46Z</time>
      </trkpt>
      <trkpt lat="49.65041" lon="4.98778">
        <ele>155.87</ele>
        <time>2019-07-30T06:56:05Z</time>
      </trkpt>
      <trkpt lat="49.65055" lon="4.98792">
        <ele>156.35</ele>
        <time>2019-07-30T06:56:21Z</time>
      </trkpt>
      <trkpt lat="49.65072" lon="4.98809">
        <ele>155.39</ele>
        <time>2019-07-30T06:56:40Z</time>
      </trkpt>
      <trkpt lat="49.65089" lon="4.98826">
        <ele>154.43</ele>
        <time>2019-07-30T06:56:59Z</time>
      </trkpt>
      <trkpt lat="49.65107" lon="4.9884">
        <ele>154.91</ele>
        <time>2019-07-30T06:57:16Z</time>
      </trkpt>
      <trkpt lat="49.65111" lon="4.98846">
        <ele>154.91</ele>
        <time>2019-07-30T06:57:23Z</time>
      </trkpt>
      <trkpt lat="49.65128" lon="4.98863">
        <ele>154.43</ele>
        <time>2019-07-30T06:57:41Z</time>
      </trkpt>
      <trkpt lat="49.65129" lon="4.98865">
        <ele>154.43</ele>
        <time>2019-07-30T06:57:43Z</time>
      </trkpt>
      <trkpt lat="49.65135" lon="4.98871">
        <ele>154.91</ele>
        <time>2019-07-30T06:57:49Z</time>
      </trkpt>
      <trkpt lat="49.65149" lon="4.98888">
        <ele>153.95</ele>
        <time>2019-07-30T06:58:06Z</time>
      </trkpt>
      <trkpt lat="49.65166" lon="4.98906">
        <ele>153.95</ele>
        <time>2019-07-30T06:58:25Z</time>
      </trkpt>
      <trkpt lat="49.65183" lon="4.98921">
        <ele>154.91</ele>
        <time>2019-07-30T06:58:43Z</time>
      </trkpt>
      <trkpt lat="49.65199" lon="4.98935">
        <ele>156.83</ele>
        <time>2019-07-30T06:59:00Z</time>
      </trkpt>
      <trkpt lat="49.65215" lon="4.98948">
        <ele>155.39</ele>
        <time>2019-07-30T06:59:15Z</time>
      </trkpt>
      <trkpt lat="49.65234" lon="4.98963">
        <ele>155.39</ele>
        <time>2019-07-30T06:59:34Z</time>
      </trkpt>
      <trkpt lat="49.65251" lon="4.98977">
        <ele>154.91</ele>
        <time>2019-07-30T06:59:52Z</time>
      </trkpt>
      <trkpt lat="49.65269" lon="4.98993">
        <ele>152.99</ele>
        <time>2019-07-30T07:00:11Z</time>
      </trkpt>
      <trkpt lat="49.65285" lon="4.99005">
        <ele>154.43</ele>
        <time>2019-07-30T07:00:27Z</time>
      </trkpt>
      <trkpt lat="49.65293" lon="4.99014">
        <ele>154.91</ele>
        <time>2019-07-30T07:00:34Z</time>
      </trkpt>
      <trkpt lat="49.65309" lon="4.99029">
        <ele>154.43</ele>
        <time>2019-07-30T07:00:51Z</time>
      </trkpt>
      <trkpt lat="49.6532" lon="4.99042">
        <ele>155.87</ele>
        <time>2019-07-30T07:01:07Z</time>
      </trkpt>
      <trkpt lat="49.65324" lon="4.99055">
        <ele>155.39</ele>
        <time>2019-07-30T07:01:18Z</time>
      </trkpt>
      <trkpt lat="49.65333" lon="4.99083">
        <ele>153.95</ele>
        <time>2019-07-30T07:01:37Z</time>
      </trkpt>
      <trkpt lat="49.65342" lon="4.9911">
        <ele>151.06</ele>
        <time>2019-07-30T07:01:55Z</time>
      </trkpt>
      <trkpt lat="49.65343" lon="4.99112">
        <ele>150.58</ele>
        <time>2019-07-30T07:01:57Z</time>
      </trkpt>
      <trkpt lat="49.65349" lon="4.99137">
        <ele>153.47</ele>
        <time>2019-07-30T07:02:14Z</time>
      </trkpt>
      <trkpt lat="49.65361" lon="4.99157">
        <ele>154.43</ele>
        <time>2019-07-30T07:02:31Z</time>
      </trkpt>
      <trkpt lat="49.65371" lon="4.99177">
        <ele>153.47</ele>
        <time>2019-07-30T07:02:47Z</time>
      </trkpt>
      <trkpt lat="49.65368" lon="4.99182">
        <ele>154.43</ele>
        <time>2019-07-30T07:02:52Z</time>
      </trkpt>
      <trkpt lat="49.65372" lon="4.99195">
        <ele>154.43</ele>
        <time>2019-07-30T07:03:01Z</time>
      </trkpt>
      <trkpt lat="49.65381" lon="4.99187">
        <ele>154.43</ele>
        <time>2019-07-30T07:03:10Z</time>
      </trkpt>
      <trkpt lat="49.65395" lon="4.99196">
        <ele>154.91</ele>
        <time>2019-07-30T07:03:25Z</time>
      </trkpt>
      <trkpt lat="49.65395" lon="4.99198">
        <ele>154.91</ele>
        <time>2019-07-30T07:03:26Z</time>
      </trkpt>
      <trkpt lat="49.65411" lon="4.99221">
        <ele>155.87</ele>
        <time>2019-07-30T07:03:45Z</time>
      </trkpt>
      <trkpt lat="49.65423" lon="4.99234">
        <ele>154.91</ele>
        <time>2019-07-30T07:03:59Z</time>
      </trkpt>
      <trkpt lat="49.65437" lon="4.99258">
        <ele>155.39</ele>
        <time>2019-07-30T07:04:16Z</time>
      </trkpt>
      <trkpt lat="49.65451" lon="4.99279">
        <ele>156.35</ele>
        <time>2019-07-30T07:04:35Z</time>
      </trkpt>
      <trkpt lat="49.65454" lon="4.99282">
        <ele>156.35</ele>
        <time>2019-07-30T07:04:38Z</time>
      </trkpt>
      <trkpt lat="49.65465" lon="4.99281">
        <ele>156.83</ele>
        <time>2019-07-30T07:04:47Z</time>
      </trkpt>
      <trkpt lat="49.6547" lon="4.99276">
        <ele>157.31</ele>
        <time>2019-07-30T07:04:51Z</time>
      </trkpt>
      <trkpt lat="49.65479" lon="4.99252">
        <ele>158.27</ele>
        <time>2019-07-30T07:05:07Z</time>
      </trkpt>
      <trkpt lat="49.65489" lon="4.99225">
        <ele>162.12</ele>
        <time>2019-07-30T07:05:26Z</time>
      </trkpt>
      <trkpt lat="49.65498" lon="4.99199">
        <ele>160.68</ele>
        <time>2019-07-30T07:05:46Z</time>
      </trkpt>
      <trkpt lat="49.65501" lon="4.99197">
        <ele>159.72</ele>
        <time>2019-07-30T07:05:50Z</time>
      </trkpt>
      <trkpt lat="49.6552" lon="4.99208">
        <ele>156.83</ele>
        <time>2019-07-30T07:06:08Z</time>
      </trkpt>
      <trkpt lat="49.65537" lon="4.99218">
        <ele>155.39</ele>
        <time>2019-07-30T07:06:26Z</time>
      </trkpt>
      <trkpt lat="49.65551" lon="4.99231">
        <ele>156.35</ele>
        <time>2019-07-30T07:06:41Z</time>
      </trkpt>
      <trkpt lat="49.65563" lon="4.99245">
        <ele>156.35</ele>
        <time>2019-07-30T07:06:56Z</time>
      </trkpt>
      <trkpt lat="49.65568" lon="4.99241">
        <ele>156.35</ele>
        <time>2019-07-30T07:07:09Z</time>
      </trkpt>
      <trkpt lat="49.65568" lon="4.99238">
        <ele>156.35</ele>
        <time>2019-07-30T07:07:25Z</time>
      </trkpt>
      <trkpt lat="49.65568" lon="4.99237">
        <ele>157.79</ele>
        <time>2019-07-30T07:07:42Z</time>
      </trkpt>
      <trkpt lat="49.65569" lon="4.99237">
        <ele>158.27</ele>
        <time>2019-07-30T07:08:11Z</time>
      </trkpt>
      <trkpt lat="49.65569" lon="4.99236">
        <ele>158.27</ele>
        <time>2019-07-30T07:08:37Z</time>
      </trkpt>
      <trkpt lat="49.65569" lon="4.99235">
        <ele>158.27</ele>
        <time>2019-07-30T07:08:56Z</time>
      </trkpt>
      <trkpt lat="49.65567" lon="4.99236">
        <ele>157.79</ele>
        <time>2019-07-30T07:09:13Z</time>
      </trkpt>
      <trkpt lat="49.65568" lon="4.99236">
        <ele>157.79</ele>
        <time>2019-07-30T07:09:31Z</time>
      </trkpt>
      <trkpt lat="49.65567" lon="4.99236">
        <ele>157.79</ele>
        <time>2019-07-30T07:09:52Z</time>
      </trkpt>
      <trkpt lat="49.65566" lon="4.99237">
        <ele>158.27</ele>
        <time>2019-07-30T07:10:07Z</time>
      </trkpt>
      <trkpt lat="49.65579" lon="4.99222">
        <ele>157.79</ele>
        <time>2019-07-30T07:10:24Z</time>
      </trkpt>
      <trkpt lat="49.65596" lon="4.99201">
        <ele>158.27</ele>
        <time>2019-07-30T07:10:43Z</time>
      </trkpt>
      <trkpt lat="49.65612" lon="4.99175">
        <ele>157.79</ele>
        <time>2019-07-30T07:11:01Z</time>
      </trkpt>
      <trkpt lat="49.65627" lon="4.99149">
        <ele>157.79</ele>
        <time>2019-07-30T07:11:23Z</time>
      </trkpt>
      <trkpt lat="49.6564" lon="4.99126">
        <ele>158.75</ele>
        <time>2019-07-30T07:11:41Z</time>
      </trkpt>
      <trkpt lat="49.65654" lon="4.99102">
        <ele>159.72</ele>
        <time>2019-07-30T07:11:59Z</time>
      </trkpt>
      <trkpt lat="49.65668" lon="4.99076">
        <ele>160.2</ele>
        <time>2019-07-30T07:12:19Z</time>
      </trkpt>
      <trkpt lat="49.65682" lon="4.99052">
        <ele>158.75</ele>
        <time>2019-07-30T07:12:39Z</time>
      </trkpt>
      <trkpt lat="49.65694" lon="4.99031">
        <ele>158.27</ele>
        <time>2019-07-30T07:12:56Z</time>
      </trkpt>
      <trkpt lat="49.65708" lon="4.99009">
        <ele>158.27</ele>
        <time>2019-07-30T07:13:14Z</time>
      </trkpt>
      <trkpt lat="49.65719" lon="4.98988">
        <ele>158.75</ele>
        <time>2019-07-30T07:13:31Z</time>
      </trkpt>
      <trkpt lat="49.65733" lon="4.98964">
        <ele>157.31</ele>
        <time>2019-07-30T07:13:50Z</time>
      </trkpt>
      <trkpt lat="49.65746" lon="4.9894">
        <ele>157.31</ele>
        <time>2019-07-30T07:14:09Z</time>
      </trkpt>
      <trkpt lat="49.65758" lon="4.98916">
        <ele>157.31</ele>
        <time>2019-07-30T07:14:28Z</time>
      </trkpt>
      <trkpt lat="49.6577" lon="4.98893">
        <ele>157.31</ele>
        <time>2019-07-30T07:14:45Z</time>
      </trkpt>
      <trkpt lat="49.65785" lon="4.98864">
        <ele>156.83</ele>
        <time>2019-07-30T07:15:05Z</time>
      </trkpt>
      <trkpt lat="49.65799" lon="4.98838">
        <ele>157.31</ele>
        <time>2019-07-30T07:15:25Z</time>
      </trkpt>
      <trkpt lat="49.65814" lon="4.98811">
        <ele>156.83</ele>
        <time>2019-07-30T07:15:47Z</time>
      </trkpt>
      <trkpt lat="49.65826" lon="4.98787">
        <ele>157.79</ele>
        <time>2019-07-30T07:16:06Z</time>
      </trkpt>
      <trkpt lat="49.65842" lon="4.9876">
        <ele>157.31</ele>
        <time>2019-07-30T07:16:27Z</time>
      </trkpt>
      <trkpt lat="49.65856" lon="4.98735">
        <ele>158.27</ele>
        <time>2019-07-30T07:16:46Z</time>
      </trkpt>
      <trkpt lat="49.65868" lon="4.98711">
        <ele>157.79</ele>
        <time>2019-07-30T07:17:05Z</time>
      </trkpt>
      <trkpt lat="49.6588" lon="4.98687">
        <ele>157.79</ele>
        <time>2019-07-30T07:17:24Z</time>
      </trkpt>
      <trkpt lat="49.65892" lon="4.98662">
        <ele>158.27</ele>
        <time>2019-07-30T07:17:42Z</time>
      </trkpt>
      <trkpt lat="49.65905" lon="4.98638">
        <ele>158.27</ele>
        <time>2019-07-30T07:18:01Z</time>
      </trkpt>
      <trkpt lat="49.65915" lon="4.98617">
        <ele>158.27</ele>
        <time>2019-07-30T07:18:18Z</time>
      </trkpt>
      <trkpt lat="49.65927" lon="4.98594">
        <ele>158.27</ele>
        <time>2019-07-30T07:18:35Z</time>
      </trkpt>
      <trkpt lat="49.65937" lon="4.9857">
        <ele>157.79</ele>
        <time>2019-07-30T07:18:52Z</time>
      </trkpt>
      <trkpt lat="49.65939" lon="4.98568">
        <ele>157.79</ele>
        <time>2019-07-30T07:18:54Z</time>
      </trkpt>
      <trkpt lat="49.65945" lon="4.98555">
        <ele>158.27</ele>
        <time>2019-07-30T07:19:02Z</time>
      </trkpt>
      <trkpt lat="49.65957" lon="4.98528">
        <ele>159.24</ele>
        <time>2019-07-30T07:19:21Z</time>
      </trkpt>
      <trkpt lat="49.65965" lon="4.98503">
        <ele>162.6</ele>
        <time>2019-07-30T07:19:39Z</time>
      </trkpt>
      <trkpt lat="49.65962" lon="4.98499">
        <ele>162.6</ele>
        <time>2019-07-30T07:19:42Z</time>
      </trkpt>
      <trkpt lat="49.65946" lon="4.98478">
        <ele>160.2</ele>
        <time>2019-07-30T07:20:00Z</time>
      </trkpt>
      <trkpt lat="49.6593" lon="4.98459">
        <ele>158.27</ele>
        <time>2019-07-30T07:20:18Z</time>
      </trkpt>
      <trkpt lat="49.65912" lon="4.98444">
        <ele>157.79</ele>
        <time>2019-07-30T07:20:37Z</time>
      </trkpt>
      <trkpt lat="49.6589" lon="4.98428">
        <ele>158.27</ele>
        <time>2019-07-30T07:20:58Z</time>
      </trkpt>
      <trkpt lat="49.65869" lon="4.98417">
        <ele>158.27</ele>
        <time>2019-07-30T07:21:18Z</time>
      </trkpt>
      <trkpt lat="49.65848" lon="4.98418">
        <ele>160.2</ele>
        <time>2019-07-30T07:21:36Z</time>
      </trkpt>
      <trkpt lat="49.65831" lon="4.98411">
        <ele>160.2</ele>
        <time>2019-07-30T07:21:53Z</time>
      </trkpt>
      <trkpt lat="49.65813" lon="4.98408">
        <ele>163.08</ele>
        <time>2019-07-30T07:22:10Z</time>
      </trkpt>
      <trkpt lat="49.65797" lon="4.98403">
        <ele>161.64</ele>
        <time>2019-07-30T07:22:26Z</time>
      </trkpt>
      <trkpt lat="49.65779" lon="4.98404">
        <ele>164.04</ele>
        <time>2019-07-30T07:22:43Z</time>
      </trkpt>
      <trkpt lat="49.65768" lon="4.98412">
        <ele>164.52</ele>
        <time>2019-07-30T07:22:51Z</time>
      </trkpt>
      <trkpt lat="49.65763" lon="4.98421">
        <ele>164.04</ele>
        <time>2019-07-30T07:22:56Z</time>
      </trkpt>
      <trkpt lat="49.65759" lon="4.98428">
        <ele>165.96</ele>
        <time>2019-07-30T07:23:04Z</time>
      </trkpt>
      <trkpt lat="49.65757" lon="4.9844">
        <ele>161.16</ele>
        <time>2019-07-30T07:23:18Z</time>
      </trkpt>
      <trkpt lat="49.65742" lon="4.98452">
        <ele>158.75</ele>
        <time>2019-07-30T07:23:33Z</time>
      </trkpt>
      <trkpt lat="49.6573" lon="4.98476">
        <ele>158.75</ele>
        <time>2019-07-30T07:23:51Z</time>
      </trkpt>
      <trkpt lat="49.65719" lon="4.98499">
        <ele>156.83</ele>
        <time>2019-07-30T07:24:07Z</time>
      </trkpt>
      <trkpt lat="49.65708" lon="4.9852">
        <ele>157.79</ele>
        <time>2019-07-30T07:24:22Z</time>
      </trkpt>
      <trkpt lat="49.65698" lon="4.98541">
        <ele>157.79</ele>
        <time>2019-07-30T07:24:37Z</time>
      </trkpt>
      <trkpt lat="49.65694" lon="4.98549">
        <ele>157.79</ele>
        <time>2019-07-30T07:24:42Z</time>
      </trkpt>
      <trkpt lat="49.6569" lon="4.98558">
        <ele>158.27</ele>
        <time>2019-07-30T07:24:47Z</time>
      </trkpt>
      <trkpt lat="49.65681" lon="4.98574">
        <ele>158.27</ele>
        <time>2019-07-30T07:25:01Z</time>
      </trkpt>
      <trkpt lat="49.65669" lon="4.98595">
        <ele>158.75</ele>
        <time>2019-07-30T07:25:16Z</time>
      </trkpt>
      <trkpt lat="49.65658" lon="4.98618">
        <ele>159.24</ele>
        <time>2019-07-30T07:25:34Z</time>
      </trkpt>
      <trkpt lat="49.65647" lon="4.98638">
        <ele>159.24</ele>
        <time>2019-07-30T07:25:49Z</time>
      </trkpt>
      <trkpt lat="49.65635" lon="4.98661">
        <ele>161.64</ele>
        <time>2019-07-30T07:26:05Z</time>
      </trkpt>
      <trkpt lat="49.65629" lon="4.98675">
        <ele>160.68</ele>
        <time>2019-07-30T07:26:17Z</time>
      </trkpt>
      <trkpt lat="49.65627" lon="4.98696">
        <ele>161.64</ele>
        <time>2019-07-30T07:26:29Z</time>
      </trkpt>
      <trkpt lat="49.65626" lon="4.98701">
        <ele>161.16</ele>
        <time>2019-07-30T07:26:33Z</time>
      </trkpt>
      <trkpt lat="49.65622" lon="4.98708">
        <ele>160.68</ele>
        <time>2019-07-30T07:26:38Z</time>
      </trkpt>
      <trkpt lat="49.65611" lon="4.9873">
        <ele>161.64</ele>
        <time>2019-07-30T07:26:56Z</time>
      </trkpt>
      <trkpt lat="49.65597" lon="4.98755">
        <ele>163.56</ele>
        <time>2019-07-30T07:27:14Z</time>
      </trkpt>
      <trkpt lat="49.6559" lon="4.98767">
        <ele>163.08</ele>
        <time>2019-07-30T07:27:25Z</time>
      </trkpt>
      <trkpt lat="49.65577" lon="4.98791">
        <ele>162.12</ele>
        <time>2019-07-30T07:27:40Z</time>
      </trkpt>
      <trkpt lat="49.6557" lon="4.98804">
        <ele>161.64</ele>
        <time>2019-07-30T07:27:53Z</time>
      </trkpt>
      <trkpt lat="49.65555" lon="4.98828">
        <ele>165</ele>
        <time>2019-07-30T07:28:11Z</time>
      </trkpt>
      <trkpt lat="49.65547" lon="4.9885">
        <ele>161.64</ele>
        <time>2019-07-30T07:28:29Z</time>
      </trkpt>
      <trkpt lat="49.65545" lon="4.98854">
        <ele>161.64</ele>
        <time>2019-07-30T07:28:31Z</time>
      </trkpt>
      <trkpt lat="49.65531" lon="4.98879">
        <ele>161.16</ele>
        <time>2019-07-30T07:28:47Z</time>
      </trkpt>
      <trkpt lat="49.65528" lon="4.98885">
        <ele>162.6</ele>
        <time>2019-07-30T07:28:52Z</time>
      </trkpt>
      <trkpt lat="49.65518" lon="4.98911">
        <ele>163.08</ele>
        <time>2019-07-30T07:29:09Z</time>
      </trkpt>
      <trkpt lat="49.655" lon="4.98936">
        <ele>163.08</ele>
        <time>2019-07-30T07:29:27Z</time>
      </trkpt>
      <trkpt lat="49.65492" lon="4.98953">
        <ele>163.08</ele>
        <time>2019-07-30T07:29:42Z</time>
      </trkpt>
      <trkpt lat="49.65479" lon="4.98973">
        <ele>163.56</ele>
        <time>2019-07-30T07:29:58Z</time>
      </trkpt>
      <trkpt lat="49.65467" lon="4.98993">
        <ele>161.64</ele>
        <time>2019-07-30T07:30:15Z</time>
      </trkpt>
      <trkpt lat="49.65457" lon="4.99015">
        <ele>161.64</ele>
        <time>2019-07-30T07:30:32Z</time>
      </trkpt>
      <trkpt lat="49.65452" lon="4.99027">
        <ele>162.12</ele>
        <time>2019-07-30T07:30:45Z</time>
      </trkpt>
      <trkpt lat="49.65449" lon="4.99018">
        <ele>161.16</ele>
        <time>2019-07-30T07:30:51Z</time>
      </trkpt>
      <trkpt lat="49.65445" lon="4.99018">
        <ele>160.2</ele>
        <time>2019-07-30T07:30:55Z</time>
      </trkpt>
      <trkpt lat="49.65434" lon="4.99025">
        <ele>159.24</ele>
        <time>2019-07-30T07:31:08Z</time>
      </trkpt>
      <trkpt lat="49.65424" lon="4.99023">
        <ele>160.68</ele>
        <time>2019-07-30T07:31:15Z</time>
      </trkpt>
      <trkpt lat="49.65403" lon="4.99023">
        <ele>163.56</ele>
        <time>2019-07-30T07:31:34Z</time>
      </trkpt>
      <trkpt lat="49.65387" lon="4.99029">
        <ele>162.6</ele>
        <time>2019-07-30T07:31:49Z</time>
      </trkpt>
      <trkpt lat="49.65369" lon="4.99031">
        <ele>163.08</ele>
        <time>2019-07-30T07:32:05Z</time>
      </trkpt>
      <trkpt lat="49.65364" lon="4.99032">
        <ele>162.12</ele>
        <time>2019-07-30T07:32:11Z</time>
      </trkpt>
      <trkpt lat="49.65359" lon="4.99031">
        <ele>161.64</ele>
        <time>2019-07-30T07:32:15Z</time>
      </trkpt>
      <trkpt lat="49.65339" lon="4.9903">
        <ele>160.68</ele>
        <time>2019-07-30T07:32:33Z</time>
      </trkpt>
      <trkpt lat="49.65319" lon="4.9902">
        <ele>159.24</ele>
        <time>2019-07-30T07:32:50Z</time>
      </trkpt>
      <trkpt lat="49.653" lon="4.9902">
        <ele>160.2</ele>
        <time>2019-07-30T07:33:07Z</time>
      </trkpt>
      <trkpt lat="49.65296" lon="4.99013">
        <ele>161.16</ele>
        <time>2019-07-30T07:33:13Z</time>
      </trkpt>
      <trkpt lat="49.65291" lon="4.99004">
        <ele>161.16</ele>
        <time>2019-07-30T07:33:20Z</time>
      </trkpt>
      <trkpt lat="49.65273" lon="4.98994">
        <ele>160.2</ele>
        <time>2019-07-30T07:33:37Z</time>
      </trkpt>
      <trkpt lat="49.65258" lon="4.98984">
        <ele>157.79</ele>
        <time>2019-07-30T07:33:54Z</time>
      </trkpt>
      <trkpt lat="49.65241" lon="4.98972">
        <ele>157.31</ele>
        <time>2019-07-30T07:34:10Z</time>
      </trkpt>
      <trkpt lat="49.65223" lon="4.98955">
        <ele>157.31</ele>
        <time>2019-07-30T07:34:29Z</time>
      </trkpt>
      <trkpt lat="49.65206" lon="4.98939">
        <ele>156.35</ele>
        <time>2019-07-30T07:34:46Z</time>
      </trkpt>
      <trkpt lat="49.65188" lon="4.98921">
        <ele>157.31</ele>
        <time>2019-07-30T07:35:05Z</time>
      </trkpt>
      <trkpt lat="49.65169" lon="4.98902">
        <ele>157.31</ele>
        <time>2019-07-30T07:35:24Z</time>
      </trkpt>
      <trkpt lat="49.65151" lon="4.98886">
        <ele>156.83</ele>
        <time>2019-07-30T07:35:44Z</time>
      </trkpt>
      <trkpt lat="49.65132" lon="4.98868">
        <ele>157.79</ele>
        <time>2019-07-30T07:36:04Z</time>
      </trkpt>
      <trkpt lat="49.65115" lon="4.98851">
        <ele>158.27</ele>
        <time>2019-07-30T07:36:22Z</time>
      </trkpt>
      <trkpt lat="49.651" lon="4.98835">
        <ele>159.24</ele>
        <time>2019-07-30T07:36:39Z</time>
      </trkpt>
      <trkpt lat="49.65088" lon="4.98825">
        <ele>159.24</ele>
        <time>2019-07-30T07:36:52Z</time>
      </trkpt>
      <trkpt lat="49.65073" lon="4.9881">
        <ele>160.2</ele>
        <time>2019-07-30T07:37:09Z</time>
      </trkpt>
      <trkpt lat="49.65055" lon="4.98793">
        <ele>160.2</ele>
        <time>2019-07-30T07:37:27Z</time>
      </trkpt>
      <trkpt lat="49.65038" lon="4.98777">
        <ele>160.68</ele>
        <time>2019-07-30T07:37:45Z</time>
      </trkpt>
      <trkpt lat="49.65021" lon="4.9876">
        <ele>161.16</ele>
        <time>2019-07-30T07:38:03Z</time>
      </trkpt>
      <trkpt lat="49.65" lon="4.98745">
        <ele>160.68</ele>
        <time>2019-07-30T07:38:24Z</time>
      </trkpt>
      <trkpt lat="49.64996" lon="4.98748">
        <ele>161.16</ele>
        <time>2019-07-30T07:38:29Z</time>
      </trkpt>
      <trkpt lat="49.64989" lon="4.98761">
        <ele>161.16</ele>
        <time>2019-07-30T07:38:44Z</time>
      </trkpt>
      <trkpt lat="49.64988" lon="4.98765">
        <ele>161.16</ele>
        <time>2019-07-30T07:38:47Z</time>
      </trkpt>
      <trkpt lat="49.64985" lon="4.98774">
        <ele>160.68</ele>
        <time>2019-07-30T07:38:53Z</time>
      </trkpt>
      <trkpt lat="49.6498" lon="4.98785">
        <ele>160.2</ele>
        <time>2019-07-30T07:39:10Z</time>
      </trkpt>
      <trkpt lat="49.64976" lon="4.98794">
        <ele>160.2</ele>
        <time>2019-07-30T07:39:25Z</time>
      </trkpt>
      <trkpt lat="49.64967" lon="4.98826">
        <ele>161.16</ele>
        <time>2019-07-30T07:39:44Z</time>
      </trkpt>
      <trkpt lat="49.64963" lon="4.98853">
        <ele>162.12</ele>
        <time>2019-07-30T07:40:00Z</time>
      </trkpt>
      <trkpt lat="49.64959" lon="4.9888">
        <ele>167.41</ele>
        <time>2019-07-30T07:40:16Z</time>
      </trkpt>
      <trkpt lat="49.64957" lon="4.98905">
        <ele>173.17</ele>
        <time>2019-07-30T07:40:31Z</time>
      </trkpt>
      <trkpt lat="49.64954" lon="4.98919">
        <ele>173.17</ele>
        <time>2019-07-30T07:40:43Z</time>
      </trkpt>
      <trkpt lat="49.64939" lon="4.98905">
        <ele>171.73</ele>
        <time>2019-07-30T07:41:01Z</time>
      </trkpt>
      <trkpt lat="49.64937" lon="4.98903">
        <ele>171.73</ele>
        <time>2019-07-30T07:41:03Z</time>
      </trkpt>
      <trkpt lat="49.64917" lon="4.98891">
        <ele>170.77</ele>
        <time>2019-07-30T07:41:22Z</time>
      </trkpt>
      <trkpt lat="49.64898" lon="4.98882">
        <ele>169.33</ele>
        <time>2019-07-30T07:41:38Z</time>
      </trkpt>
      <trkpt lat="49.64882" lon="4.98876">
        <ele>167.41</ele>
        <time>2019-07-30T07:41:53Z</time>
      </trkpt>
      <trkpt lat="49.64862" lon="4.98866">
        <ele>165</ele>
        <time>2019-07-30T07:42:12Z</time>
      </trkpt>
      <trkpt lat="49.64853" lon="4.98862">
        <ele>164.04</ele>
        <time>2019-07-30T07:42:20Z</time>
      </trkpt>
      <trkpt lat="49.64834" lon="4.98851">
        <ele>162.6</ele>
        <time>2019-07-30T07:42:38Z</time>
      </trkpt>
      <trkpt lat="49.64816" lon="4.98842">
        <ele>161.64</ele>
        <time>2019-07-30T07:42:56Z</time>
      </trkpt>
      <trkpt lat="49.64796" lon="4.9883">
        <ele>161.64</ele>
        <time>2019-07-30T07:43:14Z</time>
      </trkpt>
      <trkpt lat="49.64779" lon="4.98819">
        <ele>162.12</ele>
        <time>2019-07-30T07:43:32Z</time>
      </trkpt>
      <trkpt lat="49.64771" lon="4.98813">
        <ele>163.08</ele>
        <time>2019-07-30T07:43:40Z</time>
      </trkpt>
      <trkpt lat="49.6477" lon="4.98811">
        <ele>163.56</ele>
        <time>2019-07-30T07:43:42Z</time>
      </trkpt>
      <trkpt lat="49.64763" lon="4.98793">
        <ele>164.04</ele>
        <time>2019-07-30T07:44:00Z</time>
      </trkpt>
      <trkpt lat="49.64764" lon="4.98785">
        <ele>165</ele>
        <time>2019-07-30T07:44:17Z</time>
      </trkpt>
      <trkpt lat="49.64768" lon="4.98766">
        <ele>164.52</ele>
        <time>2019-07-30T07:44:31Z</time>
      </trkpt>
      <trkpt lat="49.64774" lon="4.98739">
        <ele>164.52</ele>
        <time>2019-07-30T07:44:46Z</time>
      </trkpt>
      <trkpt lat="49.64777" lon="4.98707">
        <ele>166.45</ele>
        <time>2019-07-30T07:45:04Z</time>
      </trkpt>
      <trkpt lat="49.64778" lon="4.98703">
        <ele>166.45</ele>
        <time>2019-07-30T07:45:06Z</time>
      </trkpt>
      <trkpt lat="49.64775" lon="4.9869">
        <ele>168.85</ele>
        <time>2019-07-30T07:45:18Z</time>
      </trkpt>
      <trkpt lat="49.64775" lon="4.98681">
        <ele>169.81</ele>
        <time>2019-07-30T07:45:36Z</time>
      </trkpt>
      <trkpt lat="49.64777" lon="4.98673">
        <ele>171.25</ele>
        <time>2019-07-30T07:45:40Z</time>
      </trkpt>
      <trkpt lat="49.64782" lon="4.98648">
        <ele>172.21</ele>
        <time>2019-07-30T07:45:56Z</time>
      </trkpt>
      <trkpt lat="49.64781" lon="4.98644">
        <ele>171.25</ele>
        <time>2019-07-30T07:45:59Z</time>
      </trkpt>
      <trkpt lat="49.64768" lon="4.98615">
        <ele>168.37</ele>
        <time>2019-07-30T07:46:16Z</time>
      </trkpt>
      <trkpt lat="49.64754" lon="4.98598">
        <ele>167.41</ele>
        <time>2019-07-30T07:46:32Z</time>
      </trkpt>
      <trkpt lat="49.64742" lon="4.9859">
        <ele>166.93</ele>
        <time>2019-07-30T07:46:43Z</time>
      </trkpt>
      <trkpt lat="49.64735" lon="4.98584">
        <ele>166.45</ele>
        <time>2019-07-30T07:46:49Z</time>
      </trkpt>
      <trkpt lat="49.64716" lon="4.98572">
        <ele>165.48</ele>
        <time>2019-07-30T07:47:06Z</time>
      </trkpt>
      <trkpt lat="49.647" lon="4.98562">
        <ele>165.96</ele>
        <time>2019-07-30T07:47:21Z</time>
      </trkpt>
      <trkpt lat="49.6468" lon="4.98546">
        <ele>166.45</ele>
        <time>2019-07-30T07:47:40Z</time>
      </trkpt>
      <trkpt lat="49.64665" lon="4.98534">
        <ele>168.37</ele>
        <time>2019-07-30T07:47:57Z</time>
      </trkpt>
      <trkpt lat="49.6465" lon="4.98523">
        <ele>169.33</ele>
        <time>2019-07-30T07:48:13Z</time>
      </trkpt>
      <trkpt lat="49.64634" lon="4.98515">
        <ele>167.89</ele>
        <time>2019-07-30T07:48:28Z</time>
      </trkpt>
      <trkpt lat="49.64621" lon="4.98501">
        <ele>168.37</ele>
        <time>2019-07-30T07:48:43Z</time>
      </trkpt>
      <trkpt lat="49.64612" lon="4.98492">
        <ele>168.85</ele>
        <time>2019-07-30T07:48:55Z</time>
      </trkpt>
      <trkpt lat="49.64599" lon="4.98488">
        <ele>168.85</ele>
        <time>2019-07-30T07:49:09Z</time>
      </trkpt>
      <trkpt lat="49.64597" lon="4.98488">
        <ele>167.89</ele>
        <time>2019-07-30T07:49:26Z</time>
      </trkpt>
      <trkpt lat="49.64598" lon="4.98489">
        <ele>168.37</ele>
        <time>2019-07-30T07:50:00Z</time>
      </trkpt>
      <trkpt lat="49.64598" lon="4.98491">
        <ele>168.85</ele>
        <time>2019-07-30T07:50:31Z</time>
      </trkpt>
      <trkpt lat="49.64598" lon="4.98489">
        <ele>167.89</ele>
        <time>2019-07-30T07:50:45Z</time>
      </trkpt>
      <trkpt lat="49.64587" lon="4.98486">
        <ele>167.41</ele>
        <time>2019-07-30T07:50:57Z</time>
      </trkpt>
      <trkpt lat="49.64586" lon="4.98485">
        <ele>167.89</ele>
        <time>2019-07-30T07:50:59Z</time>
      </trkpt>
      <trkpt lat="49.64573" lon="4.98477">
        <ele>166.45</ele>
        <time>2019-07-30T07:51:14Z</time>
      </trkpt>
      <trkpt lat="49.64552" lon="4.98462">
        <ele>164.52</ele>
        <time>2019-07-30T07:51:33Z</time>
      </trkpt>
      <trkpt lat="49.6453" lon="4.9845">
        <ele>161.16</ele>
        <time>2019-07-30T07:51:55Z</time>
      </trkpt>
      <trkpt lat="49.64511" lon="4.98439">
        <ele>158.75</ele>
        <time>2019-07-30T07:52:14Z</time>
      </trkpt>
      <trkpt lat="49.64492" lon="4.98429">
        <ele>156.35</ele>
        <time>2019-07-30T07:52:33Z</time>
      </trkpt>
      <trkpt lat="49.6448" lon="4.9842">
        <ele>156.35</ele>
        <time>2019-07-30T07:52:44Z</time>
      </trkpt>
      <trkpt lat="49.64461" lon="4.98406">
        <ele>157.31</ele>
        <time>2019-07-30T07:53:04Z</time>
      </trkpt>
      <trkpt lat="49.64442" lon="4.98395">
        <ele>157.31</ele>
        <time>2019-07-30T07:53:23Z</time>
      </trkpt>
      <trkpt lat="49.64434" lon="4.9839">
        <ele>158.27</ele>
        <time>2019-07-30T07:53:32Z</time>
      </trkpt>
      <trkpt lat="49.64418" lon="4.9838">
        <ele>158.27</ele>
        <time>2019-07-30T07:53:46Z</time>
      </trkpt>
      <trkpt lat="49.644" lon="4.98368">
        <ele>158.75</ele>
        <time>2019-07-30T07:54:05Z</time>
      </trkpt>
      <trkpt lat="49.64384" lon="4.98357">
        <ele>159.72</ele>
        <time>2019-07-30T07:54:22Z</time>
      </trkpt>
      <trkpt lat="49.64365" lon="4.98345">
        <ele>157.79</ele>
        <time>2019-07-30T07:54:42Z</time>
      </trkpt>
      <trkpt lat="49.64345" lon="4.98328">
        <ele>157.31</ele>
        <time>2019-07-30T07:55:02Z</time>
      </trkpt>
      <trkpt lat="49.64328" lon="4.98313">
        <ele>158.75</ele>
        <time>2019-07-30T07:55:22Z</time>
      </trkpt>
      <trkpt lat="49.64305" lon="4.98297">
        <ele>161.16</ele>
        <time>2019-07-30T07:55:43Z</time>
      </trkpt>
      <trkpt lat="49.64282" lon="4.98274">
        <ele>161.64</ele>
        <time>2019-07-30T07:56:06Z</time>
      </trkpt>
      <trkpt lat="49.64263" lon="4.98259">
        <ele>160.2</ele>
        <time>2019-07-30T07:56:25Z</time>
      </trkpt>
      <trkpt lat="49.64243" lon="4.98241">
        <ele>162.6</ele>
        <time>2019-07-30T07:56:46Z</time>
      </trkpt>
      <trkpt lat="49.64224" lon="4.98222">
        <ele>165.96</ele>
        <time>2019-07-30T07:57:07Z</time>
      </trkpt>
      <trkpt lat="49.64204" lon="4.98202">
        <ele>165.96</ele>
        <time>2019-07-30T07:57:27Z</time>
      </trkpt>
      <trkpt lat="49.64186" lon="4.98182">
        <ele>166.93</ele>
        <time>2019-07-30T07:57:47Z</time>
      </trkpt>
      <trkpt lat="49.6417" lon="4.9817">
        <ele>166.93</ele>
        <time>2019-07-30T07:58:04Z</time>
      </trkpt>
      <trkpt lat="49.6415" lon="4.98151">
        <ele>165</ele>
        <time>2019-07-30T07:58:25Z</time>
      </trkpt>
      <trkpt lat="49.6413" lon="4.98134">
        <ele>165.96</ele>
        <time>2019-07-30T07:58:48Z</time>
      </trkpt>
      <trkpt lat="49.64106" lon="4.98107">
        <ele>164.52</ele>
        <time>2019-07-30T07:59:12Z</time>
      </trkpt>
      <trkpt lat="49.64089" lon="4.98094">
        <ele>165.48</ele>
        <time>2019-07-30T07:59:32Z</time>
      </trkpt>
      <trkpt lat="49.64066" lon="4.98073">
        <ele>165.48</ele>
        <time>2019-07-30T07:59:51Z</time>
      </trkpt>
      <trkpt lat="49.64052" lon="4.98057">
        <ele>163.56</ele>
        <time>2019-07-30T08:00:10Z</time>
      </trkpt>
      <trkpt lat="49.64036" lon="4.9804">
        <ele>163.56</ele>
        <time>2019-07-30T08:00:27Z</time>
      </trkpt>
      <trkpt lat="49.64026" lon="4.98031">
        <ele>164.52</ele>
        <time>2019-07-30T08:00:46Z</time>
      </trkpt>
      <trkpt lat="49.64024" lon="4.98031">
        <ele>163.08</ele>
        <time>2019-07-30T08:01:11Z</time>
      </trkpt>
      <trkpt lat="49.64024" lon="4.9803">
        <ele>163.56</ele>
        <time>2019-07-30T08:01:40Z</time>
      </trkpt>
      <trkpt lat="49.64024" lon="4.98029">
        <ele>163.08</ele>
        <time>2019-07-30T08:02:08Z</time>
      </trkpt>
      <trkpt lat="49.64023" lon="4.98028">
        <ele>163.08</ele>
        <time>2019-07-30T08:02:38Z</time>
      </trkpt>
      <trkpt lat="49.64023" lon="4.98027">
        <ele>162.6</ele>
        <time>2019-07-30T08:03:08Z</time>
      </trkpt>
      <trkpt lat="49.64023" lon="4.98027">
        <ele>162.6</ele>
        <time>2019-07-30T08:03:34Z</time>
      </trkpt>
      <trkpt lat="49.64022" lon="4.98028">
        <ele>163.56</ele>
        <time>2019-07-30T08:04:10Z</time>
      </trkpt>
      <trkpt lat="49.64022" lon="4.98028">
        <ele>164.04</ele>
        <time>2019-07-30T08:04:38Z</time>
      </trkpt>
      <trkpt lat="49.64022" lon="4.98028">
        <ele>164.04</ele>
        <time>2019-07-30T08:05:09Z</time>
      </trkpt>
      <trkpt lat="49.64022" lon="4.98028">
        <ele>165.48</ele>
        <time>2019-07-30T08:05:42Z</time>
      </trkpt>
      <trkpt lat="49.64022" lon="4.98029">
        <ele>166.93</ele>
        <time>2019-07-30T08:06:08Z</time>
      </trkpt>
      <trkpt lat="49.64022" lon="4.98029">
        <ele>167.41</ele>
        <time>2019-07-30T08:06:36Z</time>
      </trkpt>
      <trkpt lat="49.64021" lon="4.98029">
        <ele>166.93</ele>
        <time>2019-07-30T08:07:06Z</time>
      </trkpt>
      <trkpt lat="49.64011" lon="4.98018">
        <ele>167.89</ele>
        <time>2019-07-30T08:07:23Z</time>
      </trkpt>
      <trkpt lat="49.63994" lon="4.98002">
        <ele>168.85</ele>
        <time>2019-07-30T08:07:41Z</time>
      </trkpt>
      <trkpt lat="49.63973" lon="4.97982">
        <ele>167.89</ele>
        <time>2019-07-30T08:08:01Z</time>
      </trkpt>
      <trkpt lat="49.63954" lon="4.97963">
        <ele>167.89</ele>
        <time>2019-07-30T08:08:21Z</time>
      </trkpt>
      <trkpt lat="49.63931" lon="4.97944">
        <ele>168.85</ele>
        <time>2019-07-30T08:08:41Z</time>
      </trkpt>
      <trkpt lat="49.63912" lon="4.97926">
        <ele>168.85</ele>
        <time>2019-07-30T08:09:02Z</time>
      </trkpt>
      <trkpt lat="49.63891" lon="4.97907">
        <ele>167.41</ele>
        <time>2019-07-30T08:09:22Z</time>
      </trkpt>
      <trkpt lat="49.63872" lon="4.97887">
        <ele>167.41</ele>
        <time>2019-07-30T08:09:40Z</time>
      </trkpt>
      <trkpt lat="49.63854" lon="4.97872">
        <ele>167.41</ele>
        <time>2019-07-30T08:10:00Z</time>
      </trkpt>
      <trkpt lat="49.63832" lon="4.97855">
        <ele>165.48</ele>
        <time>2019-07-30T08:10:19Z</time>
      </trkpt>
      <trkpt lat="49.63812" lon="4.97837">
        <ele>165.96</ele>
        <time>2019-07-30T08:10:39Z</time>
      </trkpt>
      <trkpt lat="49.63795" lon="4.97817">
        <ele>168.37</ele>
        <time>2019-07-30T08:10:57Z</time>
      </trkpt>
      <trkpt lat="49.63781" lon="4.97804">
        <ele>169.33</ele>
        <time>2019-07-30T08:11:13Z</time>
      </trkpt>
      <trkpt lat="49.63763" lon="4.97788">
        <ele>169.33</ele>
        <time>2019-07-30T08:11:32Z</time>
      </trkpt>
      <trkpt lat="49.63749" lon="4.97773">
        <ele>170.77</ele>
        <time>2019-07-30T08:11:47Z</time>
      </trkpt>
      <trkpt lat="49.63742" lon="4.97772">
        <ele>169.81</ele>
        <time>2019-07-30T08:12:02Z</time>
      </trkpt>
      <trkpt lat="49.63743" lon="4.97773">
        <ele>169.81</ele>
        <time>2019-07-30T08:12:20Z</time>
      </trkpt>
      <trkpt lat="49.63744" lon="4.97773">
        <ele>169.33</ele>
        <time>2019-07-30T08:12:38Z</time>
      </trkpt>
      <trkpt lat="49.63744" lon="4.97772">
        <ele>169.33</ele>
        <time>2019-07-30T08:13:10Z</time>
      </trkpt>
      <trkpt lat="49.63742" lon="4.9777">
        <ele>169.33</ele>
        <time>2019-07-30T08:13:25Z</time>
      </trkpt>
      <trkpt lat="49.63725" lon="4.97755">
        <ele>168.37</ele>
        <time>2019-07-30T08:13:41Z</time>
      </trkpt>
      <trkpt lat="49.63709" lon="4.97745">
        <ele>166.45</ele>
        <time>2019-07-30T08:13:58Z</time>
      </trkpt>
      <trkpt lat="49.63704" lon="4.97741">
        <ele>166.93</ele>
        <time>2019-07-30T08:14:03Z</time>
      </trkpt>
      <trkpt lat="49.63681" lon="4.97724">
        <ele>167.89</ele>
        <time>2019-07-30T08:14:23Z</time>
      </trkpt>
      <trkpt lat="49.63661" lon="4.97708">
        <ele>167.41</ele>
        <time>2019-07-30T08:14:41Z</time>
      </trkpt>
      <trkpt lat="49.63649" lon="4.977">
        <ele>166.45</ele>
        <time>2019-07-30T08:14:52Z</time>
      </trkpt>
      <trkpt lat="49.6363" lon="4.97679">
        <ele>164.04</ele>
        <time>2019-07-30T08:15:13Z</time>
      </trkpt>
      <trkpt lat="49.63607" lon="4.97663">
        <ele>170.29</ele>
        <time>2019-07-30T08:15:38Z</time>
      </trkpt>
      <trkpt lat="49.63602" lon="4.97667">
        <ele>170.29</ele>
        <time>2019-07-30T08:15:44Z</time>
      </trkpt>
      <trkpt lat="49.63584" lon="4.97682">
        <ele>168.85</ele>
        <time>2019-07-30T08:16:01Z</time>
      </trkpt>
      <trkpt lat="49.6358" lon="4.97686">
        <ele>167.41</ele>
        <time>2019-07-30T08:16:06Z</time>
      </trkpt>
      <trkpt lat="49.63566" lon="4.9771">
        <ele>166.45</ele>
        <time>2019-07-30T08:16:24Z</time>
      </trkpt>
      <trkpt lat="49.63563" lon="4.97716">
        <ele>166.93</ele>
        <time>2019-07-30T08:16:28Z</time>
      </trkpt>
      <trkpt lat="49.63561" lon="4.97723">
        <ele>166.45</ele>
        <time>2019-07-30T08:16:32Z</time>
      </trkpt>
      <trkpt lat="49.63546" lon="4.97748">
        <ele>166.45</ele>
        <time>2019-07-30T08:16:50Z</time>
      </trkpt>
      <trkpt lat="49.63533" lon="4.97771">
        <ele>164.52</ele>
        <time>2019-07-30T08:17:11Z</time>
      </trkpt>
      <trkpt lat="49.63517" lon="4.97786">
        <ele>162.6</ele>
        <time>2019-07-30T08:17:27Z</time>
      </trkpt>
      <trkpt lat="49.63516" lon="4.97791">
        <ele>163.56</ele>
        <time>2019-07-30T08:17:41Z</time>
      </trkpt>
      <trkpt lat="49.63518" lon="4.97792">
        <ele>164.04</ele>
        <time>2019-07-30T08:18:00Z</time>
      </trkpt>
      <trkpt lat="49.63519" lon="4.97791">
        <ele>164.52</ele>
        <time>2019-07-30T08:18:25Z</time>
      </trkpt>
      <trkpt lat="49.63519" lon="4.97792">
        <ele>165</ele>
        <time>2019-07-30T08:18:52Z</time>
      </trkpt>
      <trkpt lat="49.63519" lon="4.97792">
        <ele>165</ele>
        <time>2019-07-30T08:19:11Z</time>
      </trkpt>
      <trkpt lat="49.6352" lon="4.97793">
        <ele>165.48</ele>
        <time>2019-07-30T08:19:37Z</time>
      </trkpt>
      <trkpt lat="49.63519" lon="4.97793">
        <ele>165.96</ele>
        <time>2019-07-30T08:20:05Z</time>
      </trkpt>
      <trkpt lat="49.63519" lon="4.97794">
        <ele>165.48</ele>
        <time>2019-07-30T08:20:29Z</time>
      </trkpt>
      <trkpt lat="49.63519" lon="4.97793">
        <ele>165.48</ele>
        <time>2019-07-30T08:20:53Z</time>
      </trkpt>
      <trkpt lat="49.6352" lon="4.97794">
        <ele>166.45</ele>
        <time>2019-07-30T08:21:16Z</time>
      </trkpt>
      <trkpt lat="49.63519" lon="4.97793">
        <ele>167.41</ele>
        <time>2019-07-30T08:21:39Z</time>
      </trkpt>
      <trkpt lat="49.63518" lon="4.97791">
        <ele>168.37</ele>
        <time>2019-07-30T08:22:08Z</time>
      </trkpt>
      <trkpt lat="49.63517" lon="4.9779">
        <ele>169.81</ele>
        <time>2019-07-30T08:22:31Z</time>
      </trkpt>
      <trkpt lat="49.63517" lon="4.9779">
        <ele>170.29</ele>
        <time>2019-07-30T08:22:59Z</time>
      </trkpt>
      <trkpt lat="49.63518" lon="4.9779">
        <ele>171.25</ele>
        <time>2019-07-30T08:23:26Z</time>
      </trkpt>
      <trkpt lat="49.63517" lon="4.9779">
        <ele>171.25</ele>
        <time>2019-07-30T08:23:59Z</time>
      </trkpt>
      <trkpt lat="49.63516" lon="4.97788">
        <ele>172.69</ele>
        <time>2019-07-30T08:24:25Z</time>
      </trkpt>
      <trkpt lat="49.63516" lon="4.97789">
        <ele>172.21</ele>
        <time>2019-07-30T08:24:53Z</time>
      </trkpt>
      <trkpt lat="49.63515" lon="4.97789">
        <ele>172.21</ele>
        <time>2019-07-30T08:25:22Z</time>
      </trkpt>
      <trkpt lat="49.63514" lon="4.97788">
        <ele>172.69</ele>
        <time>2019-07-30T08:25:40Z</time>
      </trkpt>
      <trkpt lat="49.63515" lon="4.97788">
        <ele>172.69</ele>
        <time>2019-07-30T08:26:03Z</time>
      </trkpt>
      <trkpt lat="49.63514" lon="4.97788">
        <ele>173.17</ele>
        <time>2019-07-30T08:26:32Z</time>
      </trkpt>
      <trkpt lat="49.63515" lon="4.97788">
        <ele>173.17</ele>
        <time>2019-07-30T08:26:55Z</time>
      </trkpt>
      <trkpt lat="49.63515" lon="4.97788">
        <ele>174.14</ele>
        <time>2019-07-30T08:27:22Z</time>
      </trkpt>
      <trkpt lat="49.63515" lon="4.97788">
        <ele>174.62</ele>
        <time>2019-07-30T08:27:49Z</time>
      </trkpt>
      <trkpt lat="49.63514" lon="4.97787">
        <ele>175.1</ele>
        <time>2019-07-30T08:28:24Z</time>
      </trkpt>
      <trkpt lat="49.63514" lon="4.97789">
        <ele>175.1</ele>
        <time>2019-07-30T08:28:46Z</time>
      </trkpt>
      <trkpt lat="49.63514" lon="4.9779">
        <ele>174.62</ele>
        <time>2019-07-30T08:29:09Z</time>
      </trkpt>
      <trkpt lat="49.63514" lon="4.97791">
        <ele>175.58</ele>
        <time>2019-07-30T08:29:39Z</time>
      </trkpt>
      <trkpt lat="49.63514" lon="4.97791">
        <ele>176.06</ele>
        <time>2019-07-30T08:30:07Z</time>
      </trkpt>
      <trkpt lat="49.63514" lon="4.9779">
        <ele>176.54</ele>
        <time>2019-07-30T08:30:34Z</time>
      </trkpt>
      <trkpt lat="49.63515" lon="4.97791">
        <ele>177.02</ele>
        <time>2019-07-30T08:30:56Z</time>
      </trkpt>
      <trkpt lat="49.63515" lon="4.97791">
        <ele>177.02</ele>
        <time>2019-07-30T08:31:20Z</time>
      </trkpt>
      <trkpt lat="49.63515" lon="4.97791">
        <ele>176.06</ele>
        <time>2019-07-30T08:31:49Z</time>
      </trkpt>
      <trkpt lat="49.63516" lon="4.97791">
        <ele>176.54</ele>
        <time>2019-07-30T08:32:07Z</time>
      </trkpt>
      <trkpt lat="49.63516" lon="4.97791">
        <ele>176.06</ele>
        <time>2019-07-30T08:32:33Z</time>
      </trkpt>
      <trkpt lat="49.63516" lon="4.9779">
        <ele>175.58</ele>
        <time>2019-07-30T08:32:53Z</time>
      </trkpt>
      <trkpt lat="49.63516" lon="4.9779">
        <ele>176.54</ele>
        <time>2019-07-30T08:33:20Z</time>
      </trkpt>
      <trkpt lat="49.63516" lon="4.97788">
        <ele>177.02</ele>
        <time>2019-07-30T08:33:46Z</time>
      </trkpt>
      <trkpt lat="49.63516" lon="4.97788">
        <ele>177.02</ele>
        <time>2019-07-30T08:34:13Z</time>
      </trkpt>
      <trkpt lat="49.63517" lon="4.97788">
        <ele>176.06</ele>
        <time>2019-07-30T08:34:48Z</time>
      </trkpt>
      <trkpt lat="49.63518" lon="4.97788">
        <ele>176.54</ele>
        <time>2019-07-30T08:35:18Z</time>
      </trkpt>
      <trkpt lat="49.63518" lon="4.97787">
        <ele>176.06</ele>
        <time>2019-07-30T08:35:47Z</time>
      </trkpt>
      <trkpt lat="49.63518" lon="4.97787">
        <ele>176.06</ele>
        <time>2019-07-30T08:36:11Z</time>
      </trkpt>
      <trkpt lat="49.63509" lon="4.97794">
        <ele>175.1</ele>
        <time>2019-07-30T08:36:25Z</time>
      </trkpt>
      <trkpt lat="49.63493" lon="4.97812">
        <ele>172.69</ele>
        <time>2019-07-30T08:36:43Z</time>
      </trkpt>
      <trkpt lat="49.6348" lon="4.97835">
        <ele>172.21</ele>
        <time>2019-07-30T08:36:59Z</time>
      </trkpt>
      <trkpt lat="49.63479" lon="4.97841">
        <ele>171.73</ele>
        <time>2019-07-30T08:37:02Z</time>
      </trkpt>
      <trkpt lat="49.63465" lon="4.97861">
        <ele>169.33</ele>
        <time>2019-07-30T08:37:19Z</time>
      </trkpt>
      <trkpt lat="49.63452" lon="4.97875">
        <ele>170.77</ele>
        <time>2019-07-30T08:37:34Z</time>
      </trkpt>
      <trkpt lat="49.63432" lon="4.97896">
        <ele>172.69</ele>
        <time>2019-07-30T08:37:55Z</time>
      </trkpt>
      <trkpt lat="49.63419" lon="4.97904">
        <ele>176.54</ele>
        <time>2019-07-30T08:38:09Z</time>
      </trkpt>
      <trkpt lat="49.63402" lon="4.97918">
        <ele>179.9</ele>
        <time>2019-07-30T08:38:27Z</time>
      </trkpt>
      <trkpt lat="49.63389" lon="4.97935">
        <ele>180.87</ele>
        <time>2019-07-30T08:38:44Z</time>
      </trkpt>
      <trkpt lat="49.63387" lon="4.9794">
        <ele>181.35</ele>
        <time>2019-07-30T08:38:48Z</time>
      </trkpt>
      <trkpt lat="49.63393" lon="4.97959">
        <ele>180.87</ele>
        <time>2019-07-30T08:39:02Z</time>
      </trkpt>
      <trkpt lat="49.634" lon="4.97983">
        <ele>179.9</ele>
        <time>2019-07-30T08:39:16Z</time>
      </trkpt>
      <trkpt lat="49.63408" lon="4.98004">
        <ele>179.9</ele>
        <time>2019-07-30T08:39:31Z</time>
      </trkpt>
      <trkpt lat="49.63419" lon="4.98021">
        <ele>179.42</ele>
        <time>2019-07-30T08:39:45Z</time>
      </trkpt>
      <trkpt lat="49.63433" lon="4.9804">
        <ele>178.46</ele>
        <time>2019-07-30T08:40:01Z</time>
      </trkpt>
      <trkpt lat="49.63445" lon="4.98051">
        <ele>177.98</ele>
        <time>2019-07-30T08:40:15Z</time>
      </trkpt>
      <trkpt lat="49.63447" lon="4.98052">
        <ele>175.58</ele>
        <time>2019-07-30T08:40:27Z</time>
      </trkpt>
      <trkpt lat="49.63447" lon="4.98048">
        <ele>175.58</ele>
        <time>2019-07-30T08:40:44Z</time>
      </trkpt>
      <trkpt lat="49.63453" lon="4.98038">
        <ele>175.58</ele>
        <time>2019-07-30T08:41:05Z</time>
      </trkpt>
      <trkpt lat="49.63459" lon="4.98036">
        <ele>176.54</ele>
        <time>2019-07-30T08:41:18Z</time>
      </trkpt>
      <trkpt lat="49.63467" lon="4.98046">
        <ele>176.54</ele>
        <time>2019-07-30T08:41:30Z</time>
      </trkpt>
      <trkpt lat="49.63445" lon="4.98022">
        <ele>174.14</ele>
        <time>2019-07-30T11:00:52Z</time>
      </trkpt>
      <trkpt lat="49.63452" lon="4.98013">
        <ele>171.73</ele>
        <time>2019-07-30T11:01:05Z</time>
      </trkpt>
    </trkseg>
  </trk>
</gpx>